[[{"header":{"parameterUnit":"m.s-1","parameterCategory":1,"la1":30.6,"la2":28.766,"lo1":-90.7593,"lo2":-88.6598,"dy":0.0162,"dx":0.0183,"nx":116,"ny":114,"refTime":"2023-08-11T18:00:00:Z","depth":0,"parameterNumber":2,"parameterNumberName":"U-component_of_WINDS"},"data":[0.0,0.0,0.0,0.0,0.0,0.0,0.0,0.0,0.0,0.0,0.0,0.0,0.0,0.0,0.0,0.0,0.0,0.0,0.0,0.0,0.0,0.0,0.0,0.0,0.0,0.0,0.0,0.0,0.0,0.0,0.0,0.0,0.0,0.0,0.0,0.0,0.0,0.0,0.0,0.0,0.0,0.0,0.0,0.0,0.0,0.0,0.0,0.0,0.0,0.0,0.0,0.0,0.0,0.0,0.0,0.0,0.0,0.0,0.0,0.0,0.0,0.0,0.0,0.0,0.0,0.0,0.0,0.0,0.0,0.0,0.0,0.0,0.0,0.0,0.0,0.0,0.0,0.0,0.0,0.0,0.0,0.0,0.0,0.0,0.0,0.0,0.0,0.0,0.0,0.0,0.0,0.0,0.0,0.0,0.0,0.0,0.0,0.0,0.0,0.0,0.0,0.0,0.0,0.0,0.0,0.0,0.0,0.0,0.0,0.0,0.0,0.0,0.0,0.0,0.0,0.0,0.0,0.0,0.0,0.0,0.0,0.0,0.0,0.0,0.0,0.0,0.0,0.0,0.0,0.0,0.0,0.0,0.0,0.0,0.0,0.0,0.0,0.0,0.0,0.0,0.0,0.0,0.0,0.0,0.0,0.0,0.0,0.0,0.0,0.0,0.0,0.0,0.0,0.0,0.0,0.0,0.0,0.0,0.0,0.0,0.0,0.0,0.0,0.0,0.0,0.0,0.0,0.0,0.0,0.0,0.0,0.0,0.0,0.0,0.0,0.0,0.0,0.0,0.0,0.0,0.0,0.0,0.0,0.0,0.0,0.0,0.0,0.0,0.0,0.0,0.0,0.0,0.0,0.0,0.0,0.0,0.0,0.0,0.0,0.0,0.0,0.0,0.0,0.0,0.0,0.0,0.0,0.0,0.0,0.0,0.0,0.0,0.0,0.0,0.0,0.0,0.0,0.0,0.0,0.0,0.0,0.0,0.0,0.0,0.0,0.0,0.0,0.0,0.0,0.0,0.0,0.0,0.0,0.0,0.0,0.0,0.0,0.0,0.0,0.0,0.0,0.0,0.0,0.0,0.0,0.0,0.0,0.0,0.0,0.0,0.0,0.0,0.0,0.0,0.0,0.0,0.0,0.0,0.0,0.0,0.0,0.0,0.0,0.0,0.0,0.0,0.0,0.0,0.0,0.0,0.0,0.0,0.0,0.0,0.0,0.0,0.0,0.0,0.0,0.0,0.0,0.0,0.0,0.0,0.0,0.0,0.0,0.0,0.0,0.0,0.0,0.0,0.0,0.0,0.0,0.0,0.0,0.0,0.0,0.0,0.0,0.0,0.0,0.0,0.0,0.0,0.0,0.0,0.0,0.0,0.0,0.0,0.0,0.0,0.0,0.0,0.0,0.0,0.0,0.0,0.0,0.0,0.0,0.0,0.0,0.0,0.0,0.0,0.0,0.0,0.0,0.0,0.0,0.0,0.0,0.0,0.0,0.0,0.0,0.0,0.0,0.0,0.0,0.0,0.0,0.0,0.0,0.0,0.0,0.0,0.0,0.0,0.0,0.0,0.0,0.0,0.0,0.0,0.0,0.0,0.0,0.0,0.0,0.0,0.0,0.0,0.0,0.0,0.0,0.0,0.0,0.0,0.0,0.0,0.0,0.0,0.0,0.0,0.0,0.0,0.0,0.0,0.0,0.0,0.0,0.0,0.0,0.0,0.0,0.0,0.0,0.0,0.0,0.0,0.0,0.0,0.0,0.0,0.0,0.0,0.0,0.0,0.0,0.0,0.0,0.0,0.0,0.0,0.0,0.0,0.0,0.0,0.0,0.0,0.0,0.0,0.0,0.0,0.0,0.0,0.0,0.0,0.0,0.0,0.0,0.0,0.0,0.0,0.0,0.0,0.0,0.0,0.0,0.0,0.0,0.0,0.0,0.0,0.0,0.0,0.0,0.0,0.0,0.0,0.0,0.0,0.0,0.0,0.0,0.0,0.0,0.0,0.0,0.0,0.0,0.0,0.0,0.0,0.0,0.0,0.0,0.0,0.0,0.0,0.0,0.0,0.0,0.0,0.0,0.0,0.0,0.0,0.0,0.0,0.0,0.0,0.0,0.0,0.0,0.0,0.0,0.0,0.0,0.0,0.0,0.0,0.0,0.0,0.0,0.0,0.0,0.0,0.0,0.0,0.0,0.0,0.0,0.0,0.0,0.0,0.0,0.0,0.0,0.0,0.0,0.0,0.0,0.0,0.0,0.0,0.0,0.0,0.0,0.0,0.0,0.0,0.0,0.0,0.0,0.0,0.0,0.0,0.0,0.0,0.0,0.0,0.0,0.0,0.0,0.0,0.0,0.0,0.0,0.0,0.0,0.0,0.0,0.0,0.0,0.0,0.0,0.0,0.0,0.0,0.0,0.0,0.0,0.0,0.0,0.0,0.0,0.0,0.0,0.0,0.0,0.0,0.0,0.0,0.0,0.0,0.0,0.0,0.0,0.0,0.0,0.0,0.0,0.0,0.0,0.0,0.0,0.0,0.0,0.0,0.0,0.0,0.0,0.0,0.0,0.0,0.0,0.0,0.0,0.0,0.0,0.0,0.0,0.0,0.0,0.0,0.0,0.0,0.0,0.0,0.0,0.0,0.0,0.0,0.0,0.0,0.0,0.0,0.0,0.0,0.0,0.0,0.0,0.0,0.0,0.0,0.0,0.0,0.0,0.0,0.0,0.0,0.0,0.0,0.0,0.0,0.0,0.0,0.0,0.0,0.0,0.0,0.0,0.0,0.0,0.0,0.0,0.0,0.0,0.0,0.0,0.0,0.0,0.0,0.0,0.0,0.0,0.0,0.0,0.0,0.0,0.0,0.0,0.0,0.0,0.0,0.0,0.0,0.0,0.0,0.0,0.0,0.0,0.0,0.0,0.0,0.0,0.0,0.0,0.0,0.0,0.0,0.0,0.0,0.0,0.0,0.0,0.0,0.0,0.0,0.0,0.0,0.0,0.0,0.0,0.0,0.0,0.0,0.0,0.0,0.0,0.0,0.0,0.0,0.0,0.0,0.0,0.0,0.0,0.0,0.0,0.0,0.0,0.0,0.0,0.0,0.0,0.0,0.0,0.0,0.0,0.0,0.0,0.0,0.0,0.0,0.0,0.0,0.0,0.0,0.0,0.0,0.0,0.0,0.0,0.0,0.0,0.0,0.0,0.0,0.0,0.0,0.0,0.0,0.0,0.0,0.0,0.0,0.0,0.0,0.0,0.0,0.0,0.0,0.0,0.0,0.0,0.0,0.0,0.0,0.0,0.0,0.0,0.0,0.0,0.0,0.0,0.0,0.0,0.0,0.0,0.0,0.0,0.0,0.0,0.0,0.0,0.0,0.0,0.0,0.0,0.0,0.0,0.0,0.0,0.0,0.0,0.0,0.0,0.0,0.0,0.0,0.0,0.0,0.0,0.0,0.0,0.0,0.0,0.0,0.0,0.0,0.0,0.0,0.0,0.0,0.0,0.0,0.0,0.0,0.0,0.0,0.0,0.0,0.0,0.0,0.0,0.0,0.0,0.0,0.0,0.0,0.0,0.0,0.0,0.0,0.0,0.0,0.0,0.0,0.0,0.0,0.0,0.0,0.0,0.0,0.0,0.0,0.0,0.0,0.0,0.0,0.0,0.0,0.0,0.0,0.0,0.0,0.0,0.0,0.0,0.0,0.0,0.0,0.0,0.0,0.0,0.0,0.0,0.0,0.0,0.0,0.0,0.0,0.0,0.0,0.0,0.0,0.0,0.0,0.0,0.0,0.0,0.0,0.0,0.0,0.0,0.0,0.0,0.0,0.0,0.0,0.0,0.0,0.0,0.0,0.0,0.0,0.0,0.0,0.0,0.0,0.0,0.0,0.0,0.0,0.0,0.0,0.0,0.0,0.0,0.0,0.0,0.0,0.0,0.0,0.0,0.0,0.0,0.0,0.0,0.0,0.0,0.0,0.0,0.0,0.0,0.0,0.0,0.0,0.0,0.0,0.0,0.0,0.0,0.0,0.0,0.0,0.0,0.0,0.0,0.0,0.0,0.0,0.0,0.0,0.0,0.0,0.0,0.0,0.0,0.0,0.0,0.0,0.0,0.0,0.0,0.0,0.0,0.0,0.0,0.0,0.0,0.0,0.0,0.0,0.0,0.0,0.0,0.0,0.0,0.0,0.0,0.0,0.0,0.0,0.0,0.0,0.0,0.0,0.0,0.0,0.0,0.0,0.0,0.0,0.0,0.0,0.0,0.0,0.0,0.0,0.0,0.0,0.0,0.0,0.0,0.0,0.0,0.0,0.0,0.0,0.0,0.0,0.0,0.0,0.0,0.0,0.0,0.0,0.0,0.0,0.0,0.0,0.0,0.0,0.0,0.0,0.0,0.0,0.0,0.0,0.0,0.0,0.0,0.0,0.0,0.0,0.0,0.0,0.0,0.0,0.0,0.0,0.0,0.0,0.0,0.0,0.0,0.0,0.0,0.0,0.0,0.0,0.0,0.0,0.0,0.0,0.0,0.0,0.0,0.0,0.0,0.0,0.0,0.0,0.0,0.0,0.0,0.0,0.0,0.0,0.0,0.0,0.0,0.0,0.0,0.0,0.0,0.0,0.0,0.0,0.0,0.0,0.0,0.0,0.0,0.0,0.0,0.0,0.0,0.0,0.0,0.0,0.0,0.0,0.0,0.0,0.0,0.0,0.0,0.0,0.0,0.0,0.0,0.0,0.0,0.0,0.0,0.0,0.0,0.0,0.0,0.0,0.0,0.0,0.0,0.0,0.0,0.0,0.0,0.0,0.0,0.0,0.0,0.0,0.0,0.0,0.0,0.0,0.0,0.0,0.0,0.0,0.0,0.0,0.0,0.0,0.0,0.0,0.0,0.0,0.0,0.0,0.0,0.0,0.0,0.0,0.0,0.0,0.0,0.0,0.0,0.0,0.0,0.0,0.0,0.0,0.0,0.0,0.0,0.0,0.0,0.0,0.0,0.0,0.0,0.0,0.0,0.0,0.0,0.0,0.0,0.0,0.0,0.0,0.0,0.0,0.0,0.0,0.0,0.0,0.0,0.0,0.0,0.0,0.0,0.0,0.0,0.0,0.0,0.0,0.0,0.0,0.0,0.0,0.0,0.0,0.0,0.0,0.0,0.0,0.0,0.0,0.0,0.0,0.0,0.0,0.0,0.0,0.0,0.0,0.0,0.0,0.0,0.0,0.0,0.0,0.0,0.0,0.0,0.0,0.0,0.0,0.0,0.0,0.0,0.0,0.0,0.0,0.0,0.0,0.0,0.0,0.0,0.0,0.0,0.0,0.0,0.0,0.0,0.0,0.0,0.0,0.0,0.0,0.0,0.0,0.0,0.0,0.0,0.0,0.0,0.0,0.0,0.0,0.0,0.0,0.0,0.0,0.0,0.0,0.0,0.0,0.0,0.0,0.0,0.0,0.0,0.0,0.0,0.0,0.0,0.0,0.0,0.0,0.0,0.0,0.0,0.0,0.0,0.0,0.0,0.0,0.0,0.0,0.0,0.0,0.0,0.0,0.0,0.0,0.0,0.0,0.0,0.0,0.0,0.0,0.0,0.0,0.0,0.0,0.0,0.0,0.0,0.0,0.0,0.0,0.0,0.0,0.0,0.0,0.0,0.0,0.0,0.0,0.0,0.0,0.0,0.0,0.0,0.0,0.0,0.0,0.0,0.0,0.0,0.0,0.0,0.0,0.0,0.0,0.0,0.0,0.0,0.0,0.0,0.0,0.0,0.0,0.0,0.0,0.0,0.0,0.0,0.0,0.0,0.0,0.0,0.0,0.0,0.0,0.0,0.0,0.0,0.0,0.0,0.0,0.0,0.0,0.0,0.0,0.0,0.0,0.0,0.0,0.0,0.0,0.0,0.0,0.0,0.0,0.0,0.0,0.0,0.0,0.0,0.0,0.0,0.0,0.0,0.0,0.0,0.0,0.0,0.0,0.0,0.0,0.0,0.0,0.0,0.0,0.0,0.0,0.0,0.0,0.0,0.0,0.0,0.0,0.0,0.0,0.0,0.0,0.0,0.0,0.0,0.0,0.0,0.0,0.0,0.0,0.0,0.0,0.0,0.0,-0.3664,-0.3585,0.0,0.0,0.0,0.0,0.0,0.0,0.0,0.0,0.0,0.0,0.0,0.0,0.0,0.0,0.0,0.0,0.0,0.0,0.0,0.0,0.0,0.0,0.0,0.0,0.0,0.0,0.0,0.0,0.0,0.0,0.0,0.0,0.0,0.0,0.0,0.0,0.0,0.0,0.0,0.0,0.0,0.0,0.0,0.0,0.0,0.0,0.0,0.0,0.0,0.0,0.0,0.0,0.0,0.0,0.0,0.0,0.0,0.0,0.0,0.0,0.0,0.0,0.0,0.0,0.0,0.0,0.0,0.0,0.0,0.0,0.0,0.0,0.0,0.0,0.0,0.0,0.0,0.0,0.0,0.0,0.0,0.0,0.0,0.0,0.0,0.0,0.0,0.0,0.0,0.0,0.0,0.0,0.0,0.0,0.0,0.0,0.0,0.0,0.0,0.0,0.0,0.0,0.0,0.0,0.0,0.0,0.0,0.0,0.0,0.0,0.0,0.0,0.0,0.0,-0.3906,-0.3751,0.0,0.0,0.0,0.0,0.0,0.0,0.0,0.0,0.0,0.0,0.0,0.0,0.0,0.0,0.0,0.0,0.0,0.0,0.0,0.0,0.0,0.0,0.0,0.0,0.0,0.0,0.0,0.0,0.0,0.0,0.0,0.0,0.0,0.0,0.0,0.0,0.0,0.0,0.0,0.0,0.0,0.0,0.0,0.0,0.0,0.0,0.0,0.0,0.0,0.0,0.0,0.0,0.0,0.0,0.0,0.0,0.0,0.0,0.0,0.0,0.0,0.0,0.0,0.0,0.0,0.0,0.0,0.0,0.0,0.0,0.0,0.0,0.0,0.0,0.0,0.0,0.0,0.0,0.0,0.0,0.0,0.0,0.0,0.0,0.0,0.0,0.0,0.0,0.0,0.0,0.0,0.0,0.0,0.0,0.0,0.0,0.0,0.0,0.0,0.0,0.0,0.0,0.0,0.0,0.0,0.0,0.0,0.0,-0.4493,-0.4607,-0.4629,-0.4806,-0.4853,-0.4828,-0.4357,-0.4124,-0.4026,-0.4007,0.0,0.0,0.0,0.0,0.0,0.0,0.0,0.0,0.0,0.0,0.0,0.0,0.0,0.0,0.0,0.0,0.0,0.0,0.0,0.0,0.0,0.0,0.0,0.0,0.0,0.0,0.0,0.0,0.0,0.0,0.0,0.0,0.0,0.0,0.0,0.0,0.0,0.0,-0.3765,-0.3782,-0.3789,-0.3884,0.0,0.0,0.0,0.0,0.0,0.0,0.0,0.0,0.0,0.0,0.0,0.0,0.0,0.0,0.0,0.0,0.0,0.0,0.0,0.0,0.0,0.0,0.0,0.0,0.0,0.0,0.0,0.0,0.0,0.0,0.0,0.0,0.0,0.0,0.0,0.0,0.0,0.0,0.0,0.0,0.0,0.0,0.0,0.0,-0.3077,-0.2914,0.0,0.0,0.0,0.0,0.0,0.0,0.0,0.0,0.0,0.0,0.0,0.0,0.0,-0.411,-0.4395,-0.452,-0.4689,-0.4901,-0.5029,-0.5148,-0.5252,-0.5268,-0.5276,-0.5271,-0.5208,0.0,-0.439,-0.4295,0.0,0.0,0.0,0.0,0.0,0.0,0.0,0.0,0.0,0.0,0.0,0.0,0.0,0.0,0.0,0.0,0.0,0.0,0.0,0.0,0.0,0.0,0.0,0.0,0.0,0.0,0.0,0.0,0.0,0.0,0.0,0.0,0.0,0.0,0.0,0.0,0.0,-0.3823,-0.3815,-0.3892,-0.4023,-0.4145,-0.4224,-0.4137,-0.3875,-0.3952,0.0,0.0,0.0,0.0,0.0,0.0,0.0,0.0,0.0,0.0,0.0,0.0,0.0,0.0,0.0,0.0,0.0,0.0,0.0,0.0,0.0,0.0,0.0,0.0,0.0,0.0,0.0,0.0,0.0,0.0,0.0,0.0,0.0,0.0,0.0,0.0,0.0,0.0,0.0,-0.2958,-0.3223,-0.3225,-0.3508,-0.3682,0.0,0.0,0.0,0.0,0.0,0.0,0.0,0.0,0.0,-0.4414,-0.4553,-0.4703,-0.4871,-0.5061,-0.5211,-0.532,-0.5675,-0.5796,-0.567,-0.5916,-0.595,-0.5771,-0.595,-0.5843,-0.5499,-0.5007,-0.4648,-0.4414,0.0,0.0,0.0,0.0,-0.4314,-0.4428,0.0,0.0,0.0,0.0,0.0,0.0,0.0,0.0,0.0,0.0,0.0,0.0,0.0,0.0,0.0,-0.4762,0.0,0.0,0.0,0.0,0.0,0.0,0.0,0.0,0.0,0.0,0.0,0.0,0.0,0.0,-0.4079,-0.4298,-0.4422,-0.4585,-0.4901,-0.468,-0.4124,-0.4216,-0.4115,0.0,0.0,0.0,0.0,0.0,0.0,0.0,0.0,0.0,0.0,0.0,0.0,0.0,0.0,0.0,0.0,0.0,0.0,0.0,0.0,0.0,0.0,0.0,0.0,0.0,0.0,0.0,0.0,0.0,0.0,0.0,0.0,0.0,0.0,0.0,0.0,0.0,0.0,-0.3069,-0.337,-0.3605,-0.3806,-0.4004,0.0,0.0,0.0,0.0,0.0,0.0,-0.4387,-0.4558,-0.4724,-0.4876,-0.5059,-0.5224,-0.5368,-0.5551,-0.567,-0.5735,-0.6129,-0.6247,-0.6089,-0.6367,-0.6415,-0.6319,-0.6571,-0.6676,-0.6522,-0.5852,-0.5388,-0.5103,-0.511,-0.4991,-0.4793,-0.4919,-0.5046,-0.5123,0.0,0.0,0.0,0.0,0.0,0.0,0.0,0.0,0.0,0.0,0.0,0.0,0.0,0.0,-0.4947,-0.4971,-0.5146,-0.5259,0.0,0.0,0.0,0.0,0.0,0.0,0.0,0.0,0.0,0.0,0.0,0.0,0.0,0.0,-0.5219,-0.5417,-0.5683,-0.5419,-0.469,-0.4695,-0.449,-0.4254,0.0,0.0,0.0,0.0,0.0,0.0,0.0,0.0,0.0,0.0,0.0,0.0,0.0,0.0,0.0,0.0,0.0,0.0,0.0,0.0,0.0,0.0,0.0,0.0,0.0,0.0,0.0,0.0,0.0,0.0,0.0,0.0,0.0,0.0,0.0,0.0,0.0,0.0,0.0,-0.3816,-0.3977,0.0,0.0,0.0,0.0,-0.477,-0.4795,-0.4896,-0.5121,-0.5143,-0.526,-0.5411,-0.5432,-0.5635,-0.5866,-0.588,-0.6002,-0.6233,-0.6352,-0.6469,-0.6584,-0.6589,-0.6697,-0.7004,-0.7074,-0.7242,-0.7376,-0.6753,-0.6318,-0.6248,-0.6225,-0.6192,-0.6125,-0.6154,-0.6204,-0.6193,0.0,0.0,0.0,0.0,0.0,0.0,0.0,0.0,0.0,0.0,0.0,0.0,0.0,-0.4768,-0.5094,-0.5363,-0.5325,-0.5287,-0.5287,0.0,0.0,0.0,0.0,0.0,0.0,0.0,0.0,0.0,0.0,0.0,0.0,0.0,0.0,0.0,-0.6602,-0.6564,-0.6318,-0.5571,-0.5041,-0.4728,-0.4414,-0.4115,0.0,0.0,0.0,0.0,0.0,0.0,0.0,0.0,0.0,0.0,0.0,0.0,0.0,0.0,0.0,0.0,0.0,0.0,0.0,0.0,0.0,0.0,0.0,0.0,0.0,0.0,0.0,0.0,0.0,0.0,0.0,0.0,0.0,0.0,0.0,0.0,0.0,-0.4365,-0.4461,0.0,-0.4806,-0.4887,-0.4966,-0.5053,-0.5205,-0.533,-0.5415,-0.5564,-0.5687,-0.5773,-0.5931,-0.6089,-0.6244,-0.6325,-0.6448,-0.6611,-0.6779,-0.6683,-0.6616,-0.6842,-0.7009,-0.7211,-0.7759,-0.8103,-0.8343,-0.8855,-0.8352,-0.7378,-0.7526,-0.7541,-0.7418,-0.7552,-0.7555,-0.7578,0.0,0.0,0.0,0.0,0.0,0.0,0.0,0.0,0.0,0.0,0.0,-0.4276,-0.4666,-0.4985,-0.5335,-0.5679,-0.558,-0.5467,-0.5401,0.0,0.0,0.0,0.0,0.0,0.0,0.0,0.0,0.0,0.0,0.0,0.0,0.0,0.0,0.0,0.0,-0.7923,-0.7904,-0.6976,-0.6156,-0.5484,-0.5038,-0.4606,-0.4163,0.0,0.0,0.0,0.0,0.0,0.0,0.0,0.0,0.0,0.0,0.0,0.0,0.0,0.0,0.0,0.0,0.0,0.0,0.0,0.0,0.0,0.0,0.0,0.0,0.0,0.0,0.0,0.0,0.0,0.0,0.0,0.0,0.0,0.0,0.0,-0.4438,-0.4863,-0.5002,-0.5124,-0.5246,-0.5325,-0.5404,-0.5485,-0.564,-0.5784,-0.5904,-0.6059,-0.6165,-0.6206,-0.6363,-0.6486,-0.6559,-0.6641,-0.6722,-0.6801,-0.6976,-0.6956,-0.6843,-0.7276,-0.7517,-0.7772,-0.8532,-0.9076,-0.9434,-1.061,-1.0351,-0.9274,-0.927,-0.9192,-0.9001,-0.9246,-0.9216,-0.91,0.0,0.0,0.0,0.0,0.0,0.0,0.0,0.0,0.0,0.0,-0.4106,-0.448,-0.4681,-0.5231,-0.5689,-0.5892,-0.5902,-0.5817,-0.5623,-0.5401,0.0,0.0,0.0,0.0,0.0,0.0,0.0,0.0,0.0,0.0,0.0,0.0,0.0,0.0,0.0,0.0,-0.9194,-0.8909,-0.7975,-0.6526,-0.5854,-0.5298,-0.4818,0.0,0.0,0.0,0.0,0.0,0.0,0.0,0.0,0.0,0.0,0.0,0.0,0.0,0.0,0.0,0.0,0.0,0.0,0.0,0.0,0.0,0.0,0.0,0.0,0.0,0.0,0.0,0.0,0.0,0.0,0.0,0.0,0.0,-0.4356,-0.4481,-0.4828,-0.5347,-0.5494,-0.5529,-0.5744,-0.576,-0.5855,-0.6086,-0.6105,-0.626,-0.6605,-0.6624,-0.6679,-0.6798,-0.6801,-0.6804,-0.6806,-0.6806,-0.6809,-0.6815,-0.6931,-0.72,-0.7411,-0.7732,-0.8295,-0.8884,-0.9658,-1.0096,-1.0533,-1.1834,-1.2287,-1.1975,-1.1482,-1.1179,-1.0858,-1.124,-1.1101,-1.0783,0.0,0.0,0.0,0.0,0.0,0.0,0.0,0.0,0.0,0.0,-0.4106,-0.448,-0.4681,-0.5231,-0.5689,-0.5892,-0.5774,-0.567,-0.5613,0.0,0.0,0.0,0.0,0.0,0.0,0.0,0.0,0.0,0.0,0.0,0.0,0.0,0.0,0.0,0.0,0.0,-1.0048,-0.9719,-0.9259,-0.8742,-0.724,-0.6334,-0.5797,0.0,0.0,0.0,0.0,0.0,0.0,0.0,0.0,0.0,0.0,0.0,0.0,0.0,0.0,0.0,0.0,0.0,0.0,0.0,0.0,0.0,0.0,0.0,0.0,0.0,0.0,0.0,0.0,0.0,0.0,0.0,0.0,-0.4961,-0.4803,-0.4993,-0.5388,-0.5836,-0.5918,-0.6021,-0.6233,-0.6328,-0.6401,-0.6467,-0.6554,-0.6649,-0.6747,-0.6752,-0.6766,-0.6801,-0.6801,-0.6844,-0.6934,-0.6934,-0.7086,-0.7391,-0.7334,-0.7519,-0.805,-0.8485,-0.9144,-0.9827,-1.072,-1.1203,-1.1539,-1.2628,-1.2876,-1.2581,-1.2646,-1.2413,-1.1965,-1.2098,-1.192,-1.158,0.0,0.0,0.0,0.0,0.0,0.0,0.0,0.0,0.0,0.0,-0.4106,-0.448,-0.4681,-0.515,-0.5557,-0.5765,-0.5675,-0.5571,-0.5481,0.0,0.0,0.0,0.0,0.0,0.0,0.0,0.0,0.0,0.0,0.0,0.0,0.0,0.0,0.0,0.0,0.0,-1.083,-1.0695,-1.0582,-1.0336,-0.9149,-0.7982,-0.6791,-0.609,-0.5473,-0.4927,-0.454,-0.4262,-0.4151,-0.4105,0.0,0.0,0.0,0.0,0.0,0.0,0.0,0.0,0.0,0.0,0.0,0.0,0.0,0.0,0.0,0.0,0.0,0.0,0.0,0.0,0.0,0.0,0.0,0.0,-0.5178,-0.5445,-0.5529,-0.5659,-0.5885,-0.6263,-0.6355,-0.6442,-0.6584,-0.6657,-0.6717,-0.6768,-0.6839,-0.6899,-0.6948,-0.695,-0.695,-0.695,-0.7061,-0.7203,-0.7278,-0.7494,-0.7749,-0.7934,-0.8182,-0.8577,-0.911,-0.967,-1.0331,-1.1203,-1.1945,-1.2442,-1.276,-1.3653,-1.3779,-1.3428,0.0,0.0,0.0,0.0,-1.2565,-1.2467,0.0,0.0,0.0,0.0,0.0,0.0,0.0,0.0,0.0,0.0,0.0,-0.4471,-0.4652,-0.5067,-0.5363,-0.5557,-0.5571,-0.549,0.0,0.0,0.0,0.0,0.0,0.0,0.0,0.0,0.0,0.0,0.0,0.0,0.0,0.0,0.0,0.0,0.0,0.0,-1.1529,-1.1732,-1.161,-1.139,-1.1105,-0.9707,-0.7834,-0.7247,-0.6447,-0.5532,-0.4969,-0.4726,-0.4534,-0.442,0.0,0.0,0.0,0.0,0.0,0.0,0.0,0.0,0.0,0.0,0.0,0.0,0.0,0.0,0.0,0.0,0.0,0.0,0.0,0.0,0.0,0.0,0.0,0.0,-0.5572,-0.5934,-0.6279,-0.6342,-0.6429,-0.6635,-0.6757,-0.6828,-0.6839,-0.6842,-0.6888,-0.6997,-0.7005,-0.7048,-0.7149,-0.7265,0.0,0.0,0.0,-0.7715,-0.7718,-0.8266,-0.8706,-0.8702,-0.9251,-0.9798,-1.0453,-1.1013,-1.1792,-1.2795,-1.3324,-1.3717,-1.4015,-1.4561,-1.4612,-1.4372,-1.4228,-1.3823,-1.3443,-1.3147,-1.305,-1.305,0.0,0.0,0.0,0.0,0.0,0.0,0.0,0.0,0.0,-0.3928,-0.4276,-0.448,-0.4519,-0.4976,-0.5306,-0.5344,-0.5349,-0.533,0.0,0.0,0.0,0.0,0.0,0.0,0.0,0.0,0.0,0.0,0.0,0.0,0.0,0.0,0.0,0.0,0.0,0.0,0.0,-1.1732,-1.1817,-1.1709,-1.1672,-1.0733,-0.9192,-0.8273,-0.741,-0.6506,-0.5809,-0.5388,-0.5031,-0.4917,-0.4732,-0.4545,-0.4523,0.0,0.0,0.0,0.0,0.0,0.0,0.0,0.0,0.0,0.0,0.0,0.0,0.0,0.0,0.0,0.0,0.0,0.0,0.0,0.0,-0.5725,-0.6064,-0.6393,-0.6662,-0.6785,-0.6864,-0.691,-0.6937,-0.6986,-0.7078,-0.7086,-0.7097,-0.7122,-0.7122,-0.7133,-0.7154,-0.7382,-0.7493,-0.7493,-0.8045,-0.8484,-0.8592,-0.9034,-0.9581,-1.0237,-1.0343,0.0,-1.1669,-1.2318,-1.2837,-1.3552,-1.4099,-1.44,-1.4619,-1.4813,-1.4833,-1.4583,-1.3918,-1.3625,-1.3443,-1.3055,-1.2861,-1.2861,0.0,0.0,0.0,0.0,0.0,0.0,0.0,0.0,0.0,0.0,-0.4217,-0.4347,-0.4347,-0.4654,-0.4909,-0.5009,-0.5075,0.0,0.0,0.0,0.0,0.0,0.0,0.0,0.0,0.0,0.0,0.0,0.0,0.0,0.0,0.0,0.0,0.0,0.0,0.0,0.0,-1.1997,-1.2129,-1.212,-1.202,-1.1376,-1.0462,-0.9389,-0.8426,-0.7431,-0.6527,-0.5931,-0.56,-0.5336,-0.5072,-0.4909,-0.4852,-0.4629,-0.4349,0.0,0.0,0.0,0.0,0.0,0.0,0.0,0.0,0.0,0.0,0.0,0.0,0.0,0.0,-0.5156,0.0,0.0,-0.5896,-0.6138,-0.6426,-0.6684,-0.6869,-0.6994,-0.707,-0.707,-0.707,-0.7092,-0.7149,-0.7154,-0.7265,-0.7379,-0.7379,-0.749,-0.782,-0.7934,-0.8156,-0.8484,-0.903,-0.9467,-0.9798,-1.0562,-1.1109,-1.1546,-1.1982,-1.2531,-1.3088,-1.3516,-1.4056,-1.4606,-1.4934,-1.5186,-1.527,-1.5141,-1.4956,-1.4666,-1.3785,-1.3539,-1.3443,-1.2958,-1.2764,-1.2764,0.0,0.0,0.0,0.0,0.0,0.0,0.0,0.0,0.0,0.0,0.0,-0.4221,-0.4221,-0.4345,-0.448,0.0,0.0,0.0,0.0,0.0,0.0,0.0,0.0,0.0,0.0,0.0,0.0,0.0,0.0,0.0,0.0,0.0,0.0,0.0,0.0,0.0,0.0,-1.2157,-1.2318,-1.2304,-1.2143,-1.174,-1.1307,-1.0341,-0.9311,-0.8328,-0.7151,-0.6545,-0.6133,-0.5619,-0.5386,-0.5289,-0.5116,-0.492,-0.4675,-0.4439,-0.4197,0.0,0.0,0.0,0.0,0.0,0.0,0.0,0.0,0.0,-0.5034,-0.5249,-0.5426,-0.5619,-0.586,-0.61,-0.6339,-0.6581,-0.6782,-0.694,-0.7147,-0.7221,-0.7376,-0.7487,-0.7376,-0.7265,-0.7376,-0.7376,-0.749,-0.7715,-0.7937,-0.8156,-0.8595,-0.8813,-0.9154,-0.9735,-1.0394,-1.0851,-1.1219,-1.2321,-1.285,-1.291,-1.3573,-1.4099,-1.4385,-1.4606,-1.5041,-1.5482,-1.5589,-1.5684,-1.5855,-1.5378,-1.5028,-1.467,-1.3906,-1.3585,-1.3443,-1.2958,-1.2764,-1.2764,0.0,0.0,0.0,0.0,0.0,0.0,0.0,0.0,0.0,0.0,0.0,0.0,0.0,0.0,0.0,0.0,0.0,0.0,0.0,0.0,0.0,0.0,0.0,0.0,0.0,0.0,0.0,0.0,0.0,0.0,0.0,0.0,0.0,0.0,0.0,0.0,0.0,0.0,-1.1888,-1.1883,-1.186,-1.1732,-1.1423,-1.0888,-0.9998,-0.8829,-0.7915,-0.7258,-0.6571,-0.5876,-0.5616,-0.5601,-0.5419,-0.5167,-0.4928,-0.4683,0.0,-0.4208,-0.3977,-0.4072,-0.4273,-0.4414,-0.4613,-0.4838,0.0,0.0,-0.5422,-0.5646,-0.5937,-0.6241,-0.6475,-0.6719,-0.6961,-0.7198,-0.7258,-0.7392,-0.7632,-0.7774,-0.8045,-0.8374,-0.7937,-0.7604,-0.7934,-0.8152,-0.8374,-0.8374,-0.8923,-0.9251,-0.9251,-1.0017,-1.0528,-1.0799,-1.1926,-1.2795,-1.3315,-1.3891,-1.4356,-1.4696,-1.4812,-1.492,-1.4928,-1.5261,-1.5482,-1.5482,-1.5791,-1.5891,-1.5867,-1.5572,-1.53,-1.5034,-1.4471,-1.3935,-1.3443,-1.2958,-1.2764,-1.2764,0.0,0.0,0.0,0.0,0.0,0.0,0.0,0.0,0.0,0.0,0.0,0.0,0.0,0.0,0.0,0.0,0.0,0.0,0.0,0.0,0.0,0.0,0.0,0.0,0.0,0.0,0.0,0.0,0.0,0.0,0.0,0.0,0.0,0.0,0.0,0.0,0.0,0.0,-1.2127,-1.2014,-1.1894,-1.1616,-1.1293,-1.0866,-1.0093,-0.9076,-0.83,-0.7554,0.0,0.0,-0.5753,-0.5544,-0.5379,-0.5199,-0.5025,-0.4776,-0.4485,0.0,-0.4175,-0.427,-0.4477,0.0,-0.5069,-0.533,-0.564,-0.5893,-0.6121,-0.6314,-0.6532,-0.6757,-0.6994,-0.7119,-0.7244,0.0,-0.7383,-0.745,-0.8019,-0.813,-0.8562,-0.924,-0.9226,-0.9043,-0.8803,-0.9251,-0.9578,-0.9798,-1.0343,-1.0777,-1.1109,-1.1867,-1.2413,-1.2841,-1.3648,-1.4215,-1.4654,-1.5225,-1.562,-1.5741,-1.5806,-1.5793,-1.5802,-1.5755,-1.5684,-1.5791,-1.5891,-1.5891,-1.5867,-1.5608,-1.5348,-1.5083,-1.4512,-1.4062,-1.3642,-1.3152,-1.2861,-1.2764,0.0,0.0,0.0,0.0,0.0,0.0,0.0,0.0,0.0,0.0,0.0,0.0,0.0,0.0,0.0,0.0,0.0,0.0,0.0,0.0,0.0,0.0,0.0,0.0,0.0,0.0,0.0,0.0,0.0,0.0,0.0,0.0,0.0,0.0,0.0,0.0,0.0,0.0,-1.2074,-1.1854,-1.1649,-1.1274,-1.0891,-1.0409,-0.9794,-0.906,-0.84,-0.7672,0.0,0.0,-0.5815,-0.5558,-0.5361,-0.5247,-0.507,-0.4802,-0.4571,-0.4448,-0.4583,0.0,0.0,-0.5476,-0.5826,-0.6153,-0.6497,-0.6665,-0.6894,-0.6973,-0.7105,-0.7243,-0.7304,-0.7336,-0.7377,-0.75,-0.753,-0.7792,-0.8363,-0.8762,-0.9363,-1.0214,-1.0686,-1.0814,-1.0405,-1.057,-1.0837,-1.1324,-1.176,-1.2304,-1.2743,-1.3332,-1.392,-1.4383,-1.5013,-1.5523,-1.5892,-1.6343,-1.6648,-1.6571,-1.6414,-1.6362,-1.629,-1.6018,-1.5891,-1.5891,-1.5891,-1.5891,-1.5873,-1.5686,-1.5451,-1.5191,-1.4725,-1.426,-1.3934,-1.3465,-1.3152,-1.2958,0.0,0.0,0.0,0.0,0.0,0.0,0.0,0.0,0.0,0.0,0.0,0.0,0.0,0.0,0.0,0.0,0.0,0.0,0.0,0.0,0.0,0.0,0.0,0.0,0.0,0.0,0.0,0.0,0.0,0.0,0.0,0.0,0.0,0.0,0.0,0.0,0.0,0.0,0.0,-1.0959,-1.0754,-1.0486,-1.0234,-0.9601,-0.91,-0.8655,-0.8282,0.0,0.0,0.0,-0.5887,-0.5804,-0.5534,-0.525,0.0,-0.4812,-0.4767,0.0,0.0,0.0,-0.6155,-0.6433,-0.691,-0.7381,-0.7654,-0.7825,-0.7916,-0.7593,-0.7691,-0.7664,-0.7334,-0.7336,-0.7377,-0.75,-0.7878,-0.8363,-0.9037,-0.9768,-1.0523,-1.1473,-1.2149,-1.255,0.0,-1.2321,-1.2209,-1.2842,-1.329,-1.3614,-1.3619,-1.4283,-1.4833,-1.5321,-1.5902,-1.6486,-1.6997,-1.7343,-1.7334,-1.7074,-1.6815,-1.6543,-1.6272,-1.6012,-1.5891,-1.5891,-1.5891,-1.5891,-1.5891,-1.5879,-1.5722,-1.5457,-1.5197,-1.4731,-1.4272,-1.4025,-1.3738,-1.3443,0.0,0.0,0.0,0.0,0.0,0.0,0.0,0.0,0.0,0.0,0.0,0.0,0.0,0.0,0.0,0.0,0.0,0.0,0.0,0.0,0.0,0.0,0.0,0.0,0.0,0.0,0.0,0.0,0.0,0.0,0.0,0.0,0.0,0.0,0.0,0.0,0.0,0.0,0.0,0.0,-1.0544,-0.994,-0.922,-0.8663,-0.8001,-0.7362,0.0,0.0,0.0,0.0,0.0,0.0,-0.5542,0.0,0.0,-0.5183,-0.5365,-0.562,0.0,0.0,-0.7168,-0.7664,-0.8361,-0.8894,-0.8769,-0.9083,-0.9087,-0.8426,-0.8255,-0.8081,-0.7445,-0.725,-0.7236,-0.7143,-0.75,-0.8097,-0.8951,-0.9858,-1.0819,-1.1918,-1.2557,0.0,0.0,0.0,0.0,-1.3705,-1.4351,-1.4747,-1.4922,-1.5574,-1.6063,-1.6245,-1.6803,-1.7187,-1.7367,-1.7485,-1.7436,-1.7346,-1.6911,-1.6459,-1.6018,-1.5928,-1.5891,-1.5891,-1.5891,-1.5891,-1.5891,-1.5891,-1.5734,-1.5487,-1.5403,-1.5107,-1.4843,-1.4481,-1.4386,-1.4258,0.0,0.0,0.0,0.0,0.0,0.0,0.0,0.0,0.0,0.0,0.0,0.0,0.0,0.0,0.0,0.0,0.0,0.0,0.0,0.0,0.0,0.0,0.0,0.0,0.0,0.0,0.0,0.0,0.0,0.0,0.0,0.0,0.0,0.0,0.0,0.0,0.0,0.0,0.0,0.0,0.0,-0.9034,-0.8225,-0.7615,-0.6987,0.0,0.0,0.0,0.0,0.0,0.0,0.0,0.0,-0.5449,-0.5487,-0.5613,-0.6079,-0.6707,-0.7355,-0.8061,-0.8653,-0.9205,-0.9817,-1.0198,-1.0019,-1.0111,-1.0108,-0.9157,-0.8719,-0.8304,-0.7485,-0.7238,-0.7091,-0.7122,-0.7629,-0.8394,-0.944,-1.0535,-1.1686,-1.2746,-1.3382,-1.3942,0.0,0.0,0.0,-1.4641,-1.4972,-1.5446,-1.5809,-1.6258,-1.664,-1.6833,-1.7165,-1.7388,-1.7485,-1.7485,-1.7388,-1.7201,-1.6767,-1.6326,-1.5891,-1.5891,-1.5891,-1.5891,-1.5891,-1.5891,-1.5891,-1.5891,-1.5795,-1.5626,-1.5535,-1.5396,-1.5203,-1.4847,-1.4714,-1.458,0.0,0.0,0.0,0.0,0.0,0.0,0.0,0.0,0.0,0.0,0.0,0.0,0.0,0.0,0.0,0.0,0.0,0.0,0.0,0.0,0.0,0.0,0.0,0.0,-0.6283,-0.6463,-0.6637,-0.6799,0.0,0.0,0.0,0.0,0.0,0.0,0.0,0.0,0.0,0.0,0.0,0.0,0.0,0.0,-0.7144,-0.651,0.0,0.0,0.0,0.0,0.0,0.0,0.0,0.0,0.0,0.0,-0.5822,-0.6158,-0.6958,-0.7897,-0.8605,-0.9522,-1.0489,-1.0866,-1.1237,-1.1569,-1.1265,-1.12,-1.0799,-0.9734,-0.9146,-0.861,0.0,0.0,-0.7017,-0.7263,-0.8091,-0.9199,-1.0372,-1.1784,-1.3019,0.0,0.0,0.0,0.0,0.0,0.0,-1.5481,-1.5499,-1.5728,-1.6254,-1.6296,-1.6543,-1.7074,-1.7105,-1.7231,-1.7479,-1.7473,-1.7207,-1.67,-1.6435,-1.6163,-1.5891,-1.5891,-1.5891,-1.5891,-1.5891,-1.5891,-1.5891,-1.5891,-1.5891,-1.5861,-1.5614,-1.5517,-1.5457,-1.4944,-1.4751,-1.4696,0.0,0.0,0.0,0.0,0.0,0.0,0.0,0.0,0.0,0.0,0.0,0.0,0.0,0.0,0.0,0.0,0.0,0.0,0.0,0.0,0.0,0.0,0.0,0.0,0.0,-0.6243,-0.6446,-0.6722,0.0,0.0,0.0,0.0,0.0,0.0,0.0,0.0,0.0,0.0,0.0,0.0,0.0,0.0,-0.6431,0.0,0.0,0.0,0.0,0.0,0.0,0.0,0.0,0.0,0.0,-0.615,-0.6538,-0.6839,-0.7685,-0.8547,-0.9229,-1.0278,-1.118,-1.1667,-1.2333,-1.2741,-1.2298,-1.2033,-1.155,-1.034,-0.9423,-0.8513,0.0,0.0,0.0,-0.6933,-0.7996,0.0,-1.0069,-1.1678,0.0,-1.3832,0.0,-1.4796,-1.5107,-1.5107,0.0,0.0,-1.5499,-1.5728,-1.6254,-1.6483,-1.6748,-1.708,-1.728,-1.7412,-1.7485,-1.7292,-1.7026,-1.67,-1.6416,-1.6151,-1.5891,-1.5891,-1.5891,-1.5891,-1.5891,-1.5891,-1.5891,-1.5891,-1.5891,-1.5885,-1.5813,-1.5789,-1.5753,-1.5421,-1.5179,-1.4974,0.0,0.0,0.0,0.0,0.0,0.0,0.0,0.0,0.0,0.0,0.0,0.0,0.0,0.0,0.0,0.0,0.0,0.0,0.0,0.0,0.0,0.0,0.0,0.0,0.0,0.0,0.0,0.0,0.0,0.0,0.0,0.0,0.0,0.0,0.0,0.0,0.0,0.0,0.0,0.0,0.0,0.0,0.0,0.0,0.0,0.0,0.0,0.0,0.0,0.0,0.0,-0.5513,-0.583,-0.6303,-0.6739,-0.7048,0.0,-0.8992,-0.9614,-1.0679,-1.171,-1.1921,-1.2494,-1.291,-1.2409,-1.1995,-1.1411,-1.0499,-0.9463,0.0,0.0,0.0,0.0,0.0,0.0,0.0,-1.1105,-1.2504,-1.3694,0.0,-1.4925,0.0,-1.5451,-1.5451,-1.5511,0.0,-1.5674,-1.5903,-1.6435,-1.6724,-1.6996,-1.7255,-1.7406,-1.7424,-1.7316,-1.693,-1.6664,-1.6513,-1.6241,-1.6036,-1.5891,-1.5891,-1.5891,-1.5891,-1.5891,-1.5891,-1.5891,-1.5891,-1.5891,-1.5891,-1.5891,-1.5891,-1.5855,-1.5596,-1.5403,-1.524,0.0,0.0,0.0,0.0,0.0,0.0,0.0,0.0,0.0,0.0,0.0,0.0,0.0,0.0,0.0,0.0,0.0,0.0,0.0,0.0,0.0,0.0,0.0,0.0,0.0,0.0,0.0,0.0,0.0,0.0,0.0,0.0,0.0,0.0,0.0,0.0,0.0,0.0,0.0,0.0,0.0,0.0,0.0,0.0,0.0,0.0,0.0,0.0,0.0,0.0,-0.4712,-0.5271,-0.5715,-0.6215,-0.6747,-0.7031,-0.81,-0.9169,-0.9688,-1.0681,-1.1761,-1.1862,-1.2138,-1.2365,-1.1977,-1.1482,-1.0867,-1.0226,0.0,-0.8637,-0.7906,-0.7741,-0.7935,-0.8626,0.0,-1.0691,-1.2417,-1.3629,-1.4527,-1.5364,-1.5767,-1.5891,-1.5891,-1.5922,-1.5928,-1.5891,-1.5988,-1.6241,-1.6676,-1.6948,-1.7213,-1.7473,-1.7449,-1.7322,-1.7092,-1.6555,-1.6278,-1.6278,-1.6012,-1.5891,-1.5891,-1.5891,-1.5891,-1.5891,-1.5891,-1.5891,-1.5891,-1.5891,-1.5891,-1.5891,-1.5891,-1.5891,-1.5861,-1.5638,-1.5529,-1.5469,0.0,0.0,0.0,0.0,0.0,0.0,0.0,0.0,0.0,0.0,-0.3568,-0.37,0.0,0.0,0.0,0.0,0.0,0.0,0.0,0.0,0.0,0.0,0.0,0.0,0.0,0.0,0.0,0.0,0.0,0.0,0.0,0.0,0.0,0.0,0.0,0.0,0.0,0.0,0.0,0.0,0.0,0.0,0.0,0.0,0.0,0.0,0.0,0.0,0.0,0.0,-0.47,-0.5199,-0.5808,-0.6377,-0.696,-0.7226,-0.8021,-0.8851,-0.937,-1.0244,-1.1079,-1.1181,-1.1481,-1.1624,-1.125,-1.0834,0.0,0.0,0.0,-0.8487,-0.8053,-0.7944,0.0,-0.844,0.0,0.0,0.0,0.0,-1.4369,0.0,0.0,0.0,0.0,0.0,0.0,0.0,-1.6507,-1.6827,-1.6706,-1.6948,-1.7213,-1.7473,-1.7267,-1.7135,-1.7092,-1.6555,-1.6278,-1.6278,-1.6012,-1.5891,-1.5891,-1.5891,-1.5891,-1.5891,-1.5891,-1.5891,-1.5891,-1.5891,-1.5891,-1.5891,-1.5891,-1.5891,-1.5885,-1.5837,-1.5686,-1.5493,0.0,0.0,0.0,0.0,0.0,0.0,0.0,-0.2893,-0.2875,-0.3029,-0.3158,-0.3266,-0.3378,-0.3627,0.0,0.0,0.0,0.0,0.0,0.0,0.0,0.0,0.0,0.0,0.0,0.0,-0.5159,0.0,0.0,0.0,0.0,0.0,0.0,0.0,0.0,0.0,0.0,0.0,0.0,0.0,0.0,0.0,0.0,0.0,0.0,0.0,0.0,0.0,0.0,0.0,-0.4511,-0.4972,-0.5556,-0.6195,-0.6706,-0.6957,-0.7666,-0.8414,-0.8852,-0.9597,-1.038,-1.0334,-1.0481,-1.054,-1.0082,0.0,0.0,0.0,-0.876,-0.8332,-0.8154,0.0,0.0,0.0,0.0,0.0,0.0,0.0,0.0,0.0,0.0,0.0,0.0,0.0,-1.6447,-1.632,-1.6797,-1.6978,-1.6712,-1.708,-1.7292,-1.728,-1.7026,-1.6821,-1.667,-1.6278,-1.6079,-1.6072,-1.5946,-1.5891,-1.5891,-1.5891,-1.5891,-1.5891,-1.5891,-1.5891,-1.5891,-1.5891,-1.5891,-1.5891,-1.5891,-1.5891,-1.5891,-1.5891,-1.5813,-1.5698,0.0,0.0,0.0,0.0,0.0,0.0,0.0,-0.2466,-0.2456,-0.2674,-0.2722,-0.2782,-0.2994,-0.3301,-0.3442,0.0,0.0,0.0,0.0,0.0,0.0,0.0,0.0,0.0,0.0,0.0,0.0,-0.4785,0.0,0.0,0.0,0.0,0.0,0.0,0.0,0.0,0.0,0.0,0.0,0.0,0.0,0.0,0.0,0.0,0.0,0.0,0.0,0.0,0.0,0.0,-0.43,-0.4664,-0.5162,-0.5703,-0.6206,-0.6467,-0.722,-0.8017,-0.8286,-0.898,-0.9683,-0.949,-0.95,-0.9419,-0.8954,-0.8593,0.0,0.0,-0.826,-0.8172,-0.8166,0.0,0.0,0.0,0.0,0.0,0.0,0.0,0.0,0.0,0.0,0.0,0.0,0.0,0.0,-1.67,-1.6948,-1.7026,-1.6875,-1.7255,-1.7364,-1.7098,-1.6839,-1.6567,-1.6284,-1.6018,-1.5891,-1.5891,-1.5891,-1.5891,-1.5891,-1.5891,-1.5891,-1.5891,-1.5891,-1.5891,-1.5891,-1.5891,-1.5891,-1.5891,-1.5891,-1.5891,-1.5891,-1.5891,-1.5891,-1.5891,0.0,0.0,0.0,0.0,0.0,0.0,0.0,-0.2278,-0.2332,-0.243,-0.243,-0.2426,-0.238,-0.2837,-0.306,0.0,0.0,0.0,0.0,0.0,0.0,0.0,0.0,0.0,0.0,0.0,0.0,-0.4194,-0.4324,0.0,0.0,0.0,0.0,0.0,0.0,0.0,0.0,0.0,0.0,0.0,0.0,0.0,0.0,0.0,0.0,0.0,0.0,0.0,0.0,0.0,0.0,-0.436,-0.4518,-0.5127,-0.585,-0.62,0.0,0.0,-0.8008,-0.8606,-0.8967,-0.8917,-0.8723,-0.8405,-0.8024,0.0,0.0,-0.7605,-0.7817,-0.8047,-0.8172,-0.8435,0.0,0.0,0.0,0.0,0.0,0.0,0.0,0.0,0.0,0.0,0.0,0.0,-1.67,-1.67,-1.6948,-1.7189,-1.74,-1.7455,-1.7364,-1.7098,-1.6839,-1.6567,-1.6284,-1.6018,-1.5891,-1.5891,-1.5891,-1.5891,-1.5891,-1.5891,-1.5891,-1.5891,-1.5891,-1.5891,-1.5891,-1.5891,-1.5891,-1.5891,-1.5891,-1.5891,-1.5891,-1.5891,-1.5891,-1.5891,0.0,0.0,0.0,0.0,0.0,0.0,-0.1721,-0.1801,-0.1882,-0.207,-0.2108,-0.2138,-0.2228,-0.2502,-0.2647,0.0,0.0,0.0,0.0,0.0,0.0,0.0,0.0,0.0,0.0,0.0,-0.3672,-0.3881,-0.3909,0.0,0.0,0.0,0.0,0.0,0.0,-0.428,0.0,0.0,0.0,0.0,0.0,0.0,0.0,0.0,0.0,0.0,0.0,0.0,0.0,0.0,0.0,0.0,-0.4197,-0.456,0.0,0.0,-0.6409,-0.7135,-0.7795,-0.8249,-0.8682,-0.8587,-0.8254,-0.7778,-0.7243,0.0,0.0,-0.6738,-0.7167,-0.7553,-0.7741,-0.8161,-0.8634,0.0,0.0,0.0,0.0,0.0,0.0,0.0,0.0,0.0,0.0,0.0,-1.7002,-1.7159,-1.7267,-1.737,-1.7473,-1.7334,-1.7129,-1.6863,-1.6604,-1.6332,-1.6048,-1.594,-1.5891,-1.5891,-1.5891,-1.5891,-1.5891,-1.5891,-1.5891,-1.5891,-1.5891,-1.5891,-1.5891,-1.5891,-1.5891,-1.5891,-1.5891,-1.5891,-1.5891,-1.5891,-1.5998,-1.6111,0.0,0.0,0.0,0.0,0.0,-0.0944,-0.1357,-0.1455,-0.1589,-0.1837,-0.1817,-0.1814,-0.1929,-0.2113,-0.2198,-0.2143,0.0,0.0,0.0,0.0,0.0,0.0,0.0,0.0,0.0,0.0,-0.3228,-0.3454,-0.3548,-0.3654,0.0,0.0,-0.384,-0.3932,0.0,0.0,0.0,0.0,0.0,0.0,0.0,0.0,0.0,0.0,0.0,0.0,0.0,0.0,0.0,0.0,0.0,0.0,0.0,0.0,0.0,0.0,-0.6099,-0.6816,-0.7324,-0.7872,-0.8187,-0.8041,-0.7668,-0.716,0.0,0.0,-0.6246,-0.6002,-0.6527,-0.7067,-0.737,-0.7968,-0.856,0.0,0.0,0.0,0.0,0.0,0.0,0.0,0.0,0.0,0.0,-1.6573,-1.7165,-1.7352,-1.7443,-1.7485,-1.7485,-1.7159,-1.6893,-1.6706,-1.6441,-1.6169,-1.5891,-1.5891,-1.5891,-1.5891,-1.5891,-1.5891,-1.5891,-1.5891,-1.5891,-1.5891,-1.5891,-1.5891,-1.5891,-1.5891,-1.5891,-1.5891,-1.5891,-1.5891,-1.5891,-1.5891,-1.6105,-1.6324,0.0,0.0,0.0,0.0,0.0,0.0,-0.1163,-0.1374,-0.1572,-0.1777,-0.1626,-0.1454,-0.1323,-0.1606,-0.1723,-0.1529,0.0,0.0,0.0,0.0,0.0,0.0,0.0,0.0,0.0,0.0,-0.291,-0.2913,-0.3248,-0.3351,-0.3313,-0.351,-0.3626,-0.3626,0.0,0.0,0.0,0.0,0.0,0.0,0.0,0.0,0.0,0.0,0.0,0.0,0.0,0.0,0.0,0.0,0.0,0.0,0.0,0.0,0.0,0.0,-0.5628,-0.6263,-0.6599,-0.7194,-0.757,-0.7417,-0.7044,-0.659,0.0,0.0,-0.56,-0.5409,-0.6026,-0.6647,-0.7091,-0.7766,-0.8301,-0.8705,-0.9168,0.0,0.0,0.0,0.0,0.0,0.0,0.0,0.0,-1.6465,-1.7092,-1.7092,-1.7334,-1.7485,-1.7485,-1.699,-1.6706,-1.67,-1.6429,-1.6151,-1.5891,-1.5891,-1.5891,-1.5891,-1.5891,-1.5891,-1.5891,-1.5891,-1.5891,-1.5891,-1.5891,-1.5891,-1.5891,-1.5891,-1.5891,-1.5891,-1.5891,-1.5891,-1.5891,-1.5891,-1.6105,-1.6324,0.0,0.0,0.0,0.0,0.0,0.0,0.0,-0.1114,-0.1369,-0.1572,-0.1547,-0.1464,-0.1381,-0.1539,-0.1559,-0.1326,0.0,0.0,0.0,0.0,0.0,0.0,0.0,0.0,0.0,0.0,-0.2805,-0.291,-0.3002,-0.3151,-0.3309,-0.3356,-0.348,-0.3581,-0.3581,-0.3581,0.0,0.0,0.0,0.0,0.0,0.0,0.0,0.0,0.0,0.0,0.0,0.0,0.0,0.0,0.0,0.0,0.0,0.0,0.0,0.0,0.0,0.0,-0.6162,-0.6595,-0.6949,-0.6793,-0.6498,-0.6152,-0.5806,-0.5454,-0.5178,-0.4942,-0.5571,-0.6237,-0.666,-0.7535,-0.8366,-0.8823,-0.9221,0.0,0.0,0.0,0.0,0.0,0.0,0.0,0.0,0.0,-1.6616,-1.6809,-1.6905,-1.6948,-1.6948,-1.661,-1.6501,-1.6694,-1.6254,-1.5976,-1.5891,-1.5891,-1.5891,-1.5891,-1.5891,-1.5891,-1.5891,-1.5891,-1.5891,-1.5891,-1.5891,-1.5891,-1.5891,-1.5891,-1.5891,-1.5891,-1.5891,-1.5998,-1.6217,-1.6217,-1.6636,-1.7272,0.0,0.0,0.0,0.0,0.0,0.0,0.0,-0.1114,-0.135,-0.1581,-0.1532,-0.1425,-0.1297,-0.1378,-0.1344,-0.1117,0.0,0.0,0.0,0.0,0.0,0.0,0.0,0.0,0.0,-0.2483,-0.2592,-0.2714,-0.2769,-0.2916,-0.3104,-0.3156,-0.3302,-0.3442,-0.3442,-0.3442,0.0,0.0,0.0,0.0,0.0,0.0,-0.2744,0.0,0.0,0.0,0.0,0.0,0.0,0.0,0.0,0.0,0.0,0.0,0.0,0.0,-0.4849,0.0,0.0,-0.5935,-0.6173,-0.6078,-0.5871,0.0,0.0,-0.5142,-0.4897,-0.4653,-0.5202,-0.589,-0.6379,-0.7366,-0.8306,-0.8888,-0.928,0.0,0.0,0.0,0.0,0.0,0.0,0.0,0.0,-1.5922,-1.6247,-1.6525,-1.664,-1.67,-1.67,-1.6435,-1.6362,-1.6537,-1.6115,-1.5891,-1.5891,-1.5891,-1.5891,-1.5891,-1.5891,-1.5891,-1.5885,-1.5789,-1.5741,-1.5734,-1.5638,-1.565,0.0,-1.5741,-1.5801,-1.5891,-1.5998,-1.6111,-1.6324,-1.6537,-1.7067,-1.7799,0.0,0.0,0.0,0.0,0.0,0.0,0.0,0.0,-0.1451,-0.1711,-0.153,-0.1296,-0.111,-0.114,-0.1107,-0.0896,0.0,0.0,0.0,0.0,0.0,0.0,0.0,0.0,0.0,-0.2217,-0.2317,-0.2374,-0.2501,-0.2634,-0.2769,-0.2896,-0.3025,-0.3158,-0.3167,-0.317,-0.3126,-0.2954,-0.2776,-0.264,-0.2551,-0.246,0.0,0.0,0.0,0.0,0.0,0.0,0.0,0.0,0.0,0.0,0.0,0.0,0.0,0.0,0.0,0.0,0.0,0.0,0.0,0.0,0.0,0.0,0.0,-0.4782,0.0,-0.4546,-0.4988,-0.5627,-0.6357,-0.7293,-0.8226,-0.8882,-0.9297,0.0,0.0,0.0,0.0,0.0,0.0,0.0,-1.5028,-1.5553,-1.5964,-1.6205,-1.6483,-1.664,-1.664,-1.6392,-1.6254,-1.6254,-1.6,-1.5873,-1.5891,-1.5891,-1.5879,-1.5861,-1.5861,-1.5849,-1.5825,-1.5584,-1.5469,-1.5457,-1.5215,-1.5246,-1.5469,-1.5469,-1.5614,-1.5831,-1.6156,-1.6268,-1.6374,-1.7009,-1.7535,-1.806,0.0,0.0,0.0,0.0,0.0,0.0,0.0,0.0,0.0,0.0,-0.1172,-0.1068,-0.1033,-0.1048,-0.0955,0.0,0.0,0.0,0.0,0.0,0.0,0.0,0.0,0.0,0.0,-0.1914,-0.2014,-0.2011,-0.2037,-0.2146,-0.2262,-0.2333,-0.2442,-0.2599,-0.2644,-0.2682,-0.2682,-0.2595,-0.2504,-0.237,-0.2368,-0.2284,0.0,0.0,0.0,0.0,-0.2541,-0.2762,0.0,0.0,0.0,0.0,0.0,0.0,0.0,0.0,-0.4543,-0.4587,-0.4602,0.0,-0.5023,-0.5023,-0.4908,0.0,0.0,0.0,0.0,0.0,0.0,0.0,0.0,-0.7296,-0.8164,-0.8854,0.0,0.0,0.0,0.0,0.0,0.0,0.0,-1.4431,-1.4775,-1.5282,-1.5614,-1.568,-1.5928,-1.6079,-1.6079,-1.6018,-1.5982,-1.5982,-1.594,-1.5903,-1.5885,-1.5891,-1.5789,-1.559,-1.559,-1.5487,-1.5288,-1.5228,-1.5197,-1.5197,-1.5137,-1.5143,-1.5197,-1.5197,-1.5234,-1.5288,-1.5589,-1.5896,-1.6317,-1.6819,-1.7521,-1.8361,0.0,0.0,0.0,0.0,0.0,0.0,0.0,0.0,0.0,0.0,0.0,0.0,0.0,0.0,0.0,0.0,0.0,0.0,0.0,0.0,0.0,0.0,0.0,-0.1343,-0.141,-0.1546,-0.1613,-0.1613,-0.1613,-0.1694,-0.182,-0.1912,-0.1965,-0.2101,-0.2153,-0.215,-0.2103,-0.2103,-0.2014,-0.1878,-0.1878,0.0,0.0,0.0,0.0,0.0,-0.2118,-0.2323,0.0,-0.3188,-0.3524,-0.3802,0.0,0.0,0.0,0.0,-0.4519,-0.4519,-0.4519,-0.4582,-0.4711,-0.4711,-0.4646,-0.4585,0.0,0.0,0.0,0.0,0.0,0.0,0.0,0.0,0.0,0.0,-0.9573,0.0,0.0,0.0,0.0,0.0,-1.3978,-1.4407,0.0,-1.4974,-1.5191,-1.5312,-1.5451,-1.5529,-1.5529,-1.5529,-1.5529,-1.5529,-1.57,-1.5756,-1.5927,-1.5903,-1.5871,-1.5723,-1.5723,-1.5648,-1.5506,-1.5382,-1.5326,-1.532,-1.519,-1.5208,-1.522,-1.512,-1.5193,-1.5303,-1.5601,-1.591,-1.6419,-1.7114,-1.7903,-1.8617,0.0,0.0,0.0,0.0,0.0,0.0,0.0,0.0,0.0,0.0,0.0,0.0,0.0,0.0,0.0,0.0,0.0,0.0,0.0,0.0,0.0,0.0,0.0,-0.0942,-0.0976,-0.1111,-0.1173,-0.1164,-0.1206,-0.1268,-0.1384,-0.1444,-0.1533,-0.1614,-0.1676,-0.1614,-0.1523,-0.1523,-0.1478,-0.1344,-0.1344,0.0,0.0,0.0,0.0,0.0,0.0,0.0,0.0,-0.2796,-0.3188,-0.3469,-0.3968,0.0,0.0,0.0,0.0,0.0,-0.4519,-0.4519,-0.4519,-0.4519,-0.4519,-0.4519,0.0,0.0,0.0,0.0,0.0,0.0,0.0,0.0,0.0,0.0,0.0,0.0,0.0,0.0,0.0,0.0,-1.3978,0.0,-1.463,-1.469,-1.4805,-1.5034,-1.5083,-1.5107,-1.5107,-1.5107,-1.5107,-1.5208,-1.5456,-1.565,-1.6003,-1.6011,-1.5985,-1.594,-1.594,-1.5921,-1.587,-1.5633,-1.553,-1.5511,-1.5281,-1.5313,-1.553,-1.5224,-1.5258,-1.547,-1.5776,-1.6082,-1.6487,-1.7478,-1.8258,-1.8739,0.0,0.0,0.0,0.0,0.0,0.0,0.0,0.0,0.0,0.0,0.0,0.0,0.0,0.0,0.0,0.0,0.0,0.0,0.0,0.0,0.0,0.0,-0.0095,-0.0235,-0.0403,-0.0538,-0.0624,-0.0624,-0.0722,-0.0791,-0.0826,-0.0959,-0.1069,-0.1198,-0.1205,-0.1208,-0.1164,-0.1164,-0.1164,-0.1164,-0.1164,0.0,0.0,0.0,0.0,0.0,0.0,0.0,0.0,-0.2464,-0.2854,-0.3186,-0.3572,0.0,0.0,0.0,0.0,0.0,-0.4463,-0.4519,-0.4519,-0.4519,-0.4519,-0.4519,0.0,0.0,0.0,0.0,0.0,0.0,0.0,0.0,0.0,0.0,0.0,0.0,0.0,0.0,-1.3224,-1.3483,0.0,-1.4316,-1.4358,-1.4576,-1.4733,-1.4775,-1.4986,-1.5107,-1.5107,-1.5107,-1.5202,-1.5392,-1.5655,-1.5954,-1.6511,-1.6314,-1.6188,-1.6137,-1.6137,-1.6005,-1.5767,-1.5728,-1.5708,-1.5701,-1.5757,-1.5763,-1.5708,-1.5504,-1.5338,-1.5473,-1.5671,-1.6157,-1.6633,-1.7399,-1.8067,-1.8535,0.0,0.0,0.0,0.0,0.0,0.0,0.0,0.0,0.0,0.0,0.0,0.0,0.0,0.0,0.0,0.0,0.0,0.0,0.0,0.0,0.0,0.0615,0.0612,0.0553,0.047,0.0163,-0.0,0.0031,-0.0276,-0.0491,-0.0588,-0.0696,-0.0784,-0.0897,-0.0897,-0.0897,-0.0897,-0.0897,-0.0897,-0.0897,0.0,0.0,0.0,0.0,0.0,0.0,0.0,0.0,0.0,0.0,-0.235,-0.2627,-0.313,0.0,0.0,0.0,0.0,0.0,-0.4463,-0.4519,-0.4519,-0.4519,-0.4574,-0.4629,0.0,0.0,0.0,0.0,0.0,0.0,0.0,0.0,0.0,0.0,0.0,-1.1938,-1.2451,-1.3115,-1.3592,0.0,0.0,-1.4298,-1.4298,-1.4413,-1.4491,-1.4491,-1.46,-1.4672,-1.4672,-1.4672,-1.4765,-1.506,-1.5415,-1.5923,-1.6607,-1.6739,-1.6828,-1.6784,-1.6784,-1.6714,-1.6581,-1.6581,-1.6581,-1.6581,-1.6581,-1.6581,-1.6574,-1.6386,-1.6197,-1.6103,-1.6386,-1.6574,-1.6958,-1.7815,-1.8381,-1.8651,0.0,0.0,0.0,0.0,0.0,0.0,0.0,0.0,0.0,0.0,0.0,0.0,0.0,0.0,0.0,0.0,0.0,0.0,0.0,0.0,0.0801,0.1031,0.1112,0.1103,0.1055,0.0715,0.0534,0.049,0.0113,-0.0206,-0.0451,-0.0481,-0.0579,-0.0719,-0.0719,-0.0719,-0.0719,-0.0719,-0.0719,-0.0719,0.0,0.0,0.0,0.0,0.0,0.0,0.0,0.0,0.0,0.0,0.0,0.0,0.0,0.0,0.0,-0.3799,-0.4024,-0.4193,-0.4463,-0.4519,-0.4519,-0.4519,0.0,-0.4754,-0.5005,0.0,0.0,0.0,0.0,0.0,0.0,0.0,0.0,0.0,-1.1781,-1.2361,-1.2747,-1.3387,-1.3839,-1.39,-1.4236,-1.4394,-1.4394,-1.449,-1.449,-1.449,-1.4394,-1.4394,-1.4394,-1.4298,-1.449,-1.479,-1.5255,-1.5913,-1.677,-1.7239,-1.752,-1.752,-1.752,-1.752,-1.752,-1.752,-1.752,-1.752,-1.752,-1.752,-1.7426,-1.7232,-1.7052,-1.6871,-1.7044,-1.7232,-1.7426,-1.828,-1.8658,-1.8827,0.0,0.0,0.0,0.0,0.0,0.0,0.0,0.0,0.0,0.0,0.0,0.0,0.0,0.0,0.0,0.0,0.0,0.0,0.0,0.0,0.1287,0.1195,0.1261,0.1174,0.093,0.0933,0.0795,0.0508,0.0342,0.0061,-0.0324,-0.0268,-0.0413,-0.0719,-0.0719,-0.0719,-0.0719,-0.0719,-0.0719,-0.0719,-0.0719,0.0,0.0,0.0,0.0,0.0,0.0,0.0,0.0,0.0,0.0,0.0,0.0,0.0,-0.3072,-0.363,-0.391,-0.4079,-0.4408,-0.4519,-0.4519,-0.4632,0.0,0.0,-0.5502,0.0,0.0,0.0,0.0,0.0,0.0,0.0,0.0,0.0,-1.1751,-1.2216,-1.2982,0.0,-1.3634,-1.3876,-1.4331,-1.4688,-1.4688,-1.4885,-1.5083,-1.5083,-1.479,-1.4688,-1.4688,-1.44,-1.4496,-1.5083,-1.5547,-1.6204,-1.7239,-1.78,-1.8087,-1.8087,-1.8087,-1.8087,-1.8087,-1.8087,-1.8087,-1.8087,-1.8087,-1.8087,-1.7994,-1.7721,-1.7628,-1.7628,-1.7628,-1.7916,-1.8388,-1.8651,-1.8827,-1.8827,0.0,0.0,0.0,0.0,0.0,0.0,0.0,0.0,0.0,0.0,0.0,0.0,0.0,0.0,0.0,0.0,0.0,0.0,0.0,0.0,0.1388,0.1326,0.1388,0.1333,0.1164,0.1042,0.1023,0.1054,0.0879,0.0534,-0.0,-0.0036,-0.0316,-0.0692,-0.0711,-0.0719,-0.0719,-0.0719,-0.0719,-0.0721,-0.074,-0.0755,0.0,0.0,0.0,0.0,0.0,0.0,0.0,0.0,-0.185,-0.2183,0.0,-0.2912,-0.3299,-0.3685,-0.3965,-0.4193,-0.4522,-0.4632,-0.4688,-0.4908,0.0,0.0,0.0,0.0,0.0,0.0,0.0,0.0,0.0,0.0,0.0,-1.1642,-1.1992,-1.2391,-1.3031,-1.335,-1.3647,-1.3842,-1.421,-1.445,-1.4542,-1.4917,-1.518,-1.5265,-1.5265,-1.5249,-1.5146,-1.5057,-1.5159,-1.5547,-1.6021,-1.6676,-1.7527,-1.8179,-1.8643,-1.8819,-1.8643,-1.855,-1.855,-1.855,-1.855,-1.855,-1.855,-1.855,-1.855,-1.8458,-1.828,-1.8195,-1.8195,-1.8381,-1.8743,-1.8735,-1.8827,-1.8827,0.0,0.0,0.0,0.0,0.0,0.0,0.0,0.0,0.0,0.0,0.0,0.0,0.0,0.0,0.0,0.0,0.0,0.0,0.0968,0.1228,0.1396,0.143,0.1434,0.1409,0.1291,0.1236,0.1238,0.1377,0.1367,0.1075,0.0546,0.0484,0.0078,-0.0591,-0.0661,-0.0719,-0.0719,-0.0719,-0.0719,-0.0722,-0.0753,-0.0818,0.0,0.0,0.0,0.0,0.0,0.0,0.0,0.0,-0.2186,0.0,0.0,0.0,0.0,0.0,-0.4024,-0.4249,-0.4636,-0.4743,-0.4849,0.0,0.0,0.0,0.0,0.0,0.0,0.0,0.0,0.0,0.0,0.0,0.0,0.0,-1.2071,-1.2409,-1.3118,-1.3361,-1.3603,-1.3966,-1.4321,-1.4584,-1.4847,-1.5301,-1.5659,-1.5763,-1.5959,-1.5867,-1.5704,-1.5531,-1.5631,-1.5831,-1.6288,-1.6941,-1.7591,-1.8229,-1.8675,-1.8938,-1.8757,-1.8795,-1.902,-1.902,-1.902,-1.892,-1.892,-1.892,-1.8827,-1.8827,-1.8743,-1.8566,-1.8566,-1.8651,-1.8827,-1.8827,-1.8827,-1.8827,0.0,0.0,0.0,0.0,0.0,0.0,0.0,0.0,0.0,0.0,0.0,0.0,0.0,0.0,0.0,0.0,0.0,0.0,0.1105,0.1239,0.1348,0.1483,0.137,0.129,0.1291,0.1501,0.1507,0.1306,0.1701,0.1713,0.1303,0.138,0.0762,-0.0422,-0.0617,-0.0719,-0.0719,-0.0719,-0.0719,-0.0722,-0.0753,-0.088,-0.1013,0.0,0.0,0.0,0.0,0.0,0.0,0.0,-0.2685,0.0,0.0,0.0,0.0,0.0,-0.4079,-0.4304,-0.4636,-0.4794,0.0,0.0,0.0,0.0,0.0,0.0,0.0,0.0,0.0,0.0,-1.0677,0.0,0.0,-1.1787,-1.192,-1.2273,-1.333,-1.353,-1.3642,-1.4109,-1.4764,-1.5294,-1.5548,-1.6168,-1.669,-1.6851,-1.669,-1.6521,-1.625,-1.5991,-1.5821,-1.5924,-1.6367,-1.6896,-1.743,-1.7866,-1.8213,-1.837,-1.8448,-1.8853,-1.9579,-1.9579,-1.9479,-1.9188,-1.9188,-1.9096,-1.8819,-1.8819,-1.8819,-1.8819,-1.8819,-1.8819,-1.8819,-1.8819,-1.8812,-1.8819,0.0,0.0,0.0,0.0,0.0,0.0,0.0,0.0,0.0,0.0,0.0,0.0,0.0,0.0,0.0,0.0,0.0,0.0,0.1169,0.1241,0.1313,0.1348,0.1326,0.1278,0.1232,0.1565,0.1833,0.2004,0.2263,0.2192,0.1784,0.152,0.0763,-0.0322,-0.0609,-0.0719,-0.0719,-0.0719,-0.0764,-0.086,-0.0919,-0.1099,-0.127,0.0,0.0,0.0,0.0,0.0,0.0,0.0,0.0,0.0,0.0,0.0,0.0,-0.4353,-0.4574,-0.4853,-0.5077,-0.5344,0.0,0.0,0.0,0.0,0.0,0.0,0.0,0.0,0.0,0.0,-1.1346,0.0,0.0,-1.2196,-1.2272,-1.2425,-1.2952,-1.3016,-1.313,-1.3474,-1.3885,-1.4444,-1.4918,-1.5499,-1.6082,-1.6553,-1.6585,-1.6798,-1.7009,-1.6947,-1.7063,-1.7406,-1.7668,-1.7929,-1.8292,-1.8801,-1.905,-1.9136,-1.9324,-1.9332,-1.9191,-1.9191,-1.9093,-1.9093,-1.9093,-1.8848,-1.8514,-1.8514,-1.8514,-1.8514,-1.8514,-1.8514,-1.8514,-1.8514,-1.8434,-1.8274,0.0,0.0,0.0,0.0,0.0,0.0,0.0,0.0,0.0,0.0,0.0,0.0,0.0,0.0,0.0,0.0,0.0,0.0,0.0,0.1123,0.1179,0.1246,0.1246,0.1291,0.1404,0.1695,0.2011,0.2331,0.2513,0.2426,0.2069,0.18,0.102,-0.0203,-0.0523,-0.0719,-0.0719,-0.0764,-0.0862,-0.0972,-0.1083,-0.1373,-0.1659,0.0,0.0,0.0,0.0,0.0,0.0,0.0,0.0,0.0,0.0,0.0,0.0,-0.4904,-0.5124,-0.5348,-0.5567,0.0,0.0,0.0,0.0,0.0,0.0,0.0,0.0,0.0,0.0,-1.1558,-1.1706,-1.1781,0.0,-1.247,-1.2599,-1.2775,-1.3225,-1.3186,-1.3272,-1.3673,-1.3981,-1.4358,-1.4972,-1.5528,-1.6086,-1.6677,-1.6857,-1.7041,-1.7307,-1.7243,-1.7359,-1.7507,-1.7746,-1.791,-1.8091,-1.8417,-1.8661,-1.8661,-1.8841,-1.8876,-1.8811,-1.9098,-1.9146,-1.9067,-1.8795,-1.8575,-1.837,-1.837,-1.837,-1.837,-1.837,-1.837,-1.837,-1.837,-1.8292,-1.8135,0.0,0.0,0.0,0.0,0.0,0.0,0.0,0.0,0.0,0.0,0.0,0.0,0.0,0.0,0.0,0.0,0.0,0.0,0.0,0.0,0.0976,0.1179,0.1179,0.1315,0.1655,0.179,0.2012,0.2365,0.2487,0.2418,0.2183,0.2045,0.1261,-0.0042,-0.0529,-0.0719,-0.0764,-0.0899,-0.1009,-0.1093,-0.1389,-0.1748,-0.2124,-0.2483,0.0,0.0,0.0,0.0,0.0,0.0,0.0,0.0,0.0,0.0,-0.5234,-0.5563,-0.5727,-0.5837,0.0,0.0,0.0,0.0,0.0,0.0,0.0,0.0,0.0,0.0,0.0,-1.1781,-1.1781,-1.1929,-1.2236,-1.2728,-1.2975,-1.3286,-1.3874,-1.3811,-1.3797,-1.4275,-1.4498,-1.479,-1.5399,-1.5878,-1.6338,-1.6994,-1.6994,-1.702,-1.7081,-1.7081,-1.7041,-1.6901,-1.7119,-1.7186,-1.7186,-1.7428,-1.7521,-1.7521,-1.7521,-1.7894,-1.8603,-1.9125,-1.9323,-1.9102,-1.8631,-1.8443,-1.8443,-1.8443,-1.8443,-1.8443,-1.8443,-1.8357,-1.8357,-1.8357,-1.828,-1.8029,0.0,0.0,0.0,0.0,0.0,0.0,0.0,0.0,0.0,0.0,0.0,0.0,0.0,0.0,0.0,0.0,0.0,0.0,0.0,0.0,0.0908,0.0976,0.0976,0.1097,0.1391,0.1482,0.1691,0.2085,0.2228,0.2181,0.1957,0.1398,0.0672,-0.0253,-0.0705,-0.1033,-0.1165,-0.121,-0.1351,-0.1646,-0.1961,-0.2427,-0.2922,-0.3219,-0.3627,0.0,0.0,0.0,0.0,0.0,0.0,0.0,-0.5171,-0.5504,-0.5837,-0.615,-0.648,-0.681,0.0,0.0,0.0,0.0,0.0,0.0,0.0,0.0,0.0,0.0,-1.1748,-1.2231,-1.2378,-1.2673,-1.3068,-1.3492,-1.3576,-1.3712,-1.3787,-1.3505,-1.3346,-1.3423,-1.3631,-1.3907,-1.438,-1.467,-1.5019,-1.5618,-1.5618,-1.602,-1.6908,-1.6944,-1.7234,-1.7803,-1.7886,-1.7886,-1.7886,-1.797,-1.797,-1.797,-1.797,-1.8061,-1.8261,-1.8567,-1.8927,-1.9191,-1.8819,-1.8615,-1.8615,-1.8615,-1.8525,-1.8443,-1.8606,-1.8443,-1.8108,-1.8353,-1.8108,-1.7771,0.0,0.0,0.0,0.0,0.0,0.0,0.0,0.0,0.0,0.0,0.0,0.0,0.0,0.0,0.0,0.0,0.0,0.0,0.0,0.0,0.0808,0.0841,0.0875,0.0978,0.1168,0.1019,0.0976,0.1045,0.11,0.1233,0.0,0.0755,0.0174,-0.0435,-0.0934,-0.1256,-0.1344,-0.1569,-0.1833,-0.2192,-0.2625,-0.3031,-0.3453,-0.3854,-0.4184,-0.446,-0.4574,0.0,0.0,0.0,0.0,0.0,0.0,0.0,-0.6598,-0.6858,-0.7133,-0.7456,0.0,0.0,0.0,0.0,0.0,0.0,0.0,0.0,0.0,0.0,-1.2242,-1.2573,-1.2872,-1.3071,-1.3322,-1.3805,-1.387,-1.399,-1.4134,-1.3905,-1.3792,-1.3866,-1.3866,-1.4057,-1.4453,-1.4584,-1.4789,-1.5254,-1.5319,-1.5629,-1.6303,-1.6321,-1.6523,-1.6945,-1.6963,-1.6963,-1.6963,-1.6963,-1.6963,-1.6963,-1.7165,-1.7458,-1.7844,-1.8078,-1.8309,-1.8408,-1.8222,-1.8133,-1.8133,-1.8133,-1.8055,-1.7969,-1.8055,-1.7978,-1.7735,-1.7804,-1.757,-1.7361,0.0,0.0,0.0,0.0,0.0,0.0,0.0,0.0,0.0,0.0,0.0,0.0,0.0,0.0,0.0,0.0,0.0,0.0,0.0,0.0,0.0,0.0773,0.0849,0.0858,0.0863,0.0475,0.0166,-0.009,-0.0224,0.0,0.0,0.0,0.0,-0.0763,-0.1256,-0.1567,-0.1657,-0.2016,-0.2386,-0.2792,-0.326,-0.3712,-0.4097,-0.4505,-0.4794,-0.4963,-0.5124,-0.5289,-0.5344,-0.5673,0.0,0.0,0.0,0.0,-0.73,-0.7568,-0.7729,-0.7937,0.0,0.0,0.0,0.0,0.0,0.0,0.0,0.0,0.0,-1.2648,-1.2736,-1.2861,-1.3129,-1.3308,-1.3462,-1.3937,-1.4047,-1.422,-1.4564,-1.4374,-1.4323,-1.447,-1.4332,-1.4388,-1.4711,-1.4711,-1.4839,-1.5177,-1.5177,-1.5332,-1.5588,-1.5588,-1.5615,-1.5689,-1.5689,-1.5689,-1.5689,-1.5689,-1.5689,-1.5689,-1.6037,-1.6551,-1.7193,-1.7388,-1.7476,-1.7596,-1.7596,-1.7596,-1.7596,-1.7596,-1.7596,-1.7596,-1.7596,-1.7596,-1.7446,-1.7353,-1.7212,-1.7037,0.0,0.0,0.0,0.0,0.0,0.0,0.0,0.0,0.0,0.0,0.0,0.0,0.0,0.0,0.0,0.0,0.0,0.0,0.0538,0.0,0.0,0.0706,0.0739,0.063,0.0392,-0.0041,-0.0342,-0.0449,0.0,0.0,0.0,0.0,0.0,-0.1705,0.0,0.0,-0.2551,-0.2724,-0.3163,-0.3738,-0.4059,-0.4524,-0.5031,-0.5341,-0.5618,-0.5837,-0.5723,-0.5941,-0.6218,-0.6258,-0.6588,0.0,0.0,0.0,-0.7877,-0.8209,-0.8362,-0.8521,0.0,0.0,0.0,0.0,0.0,0.0,0.0,0.0,0.0,0.0,-1.3042,-1.3141,-1.318,-1.3553,-1.3981,-1.4189,-1.4418,-1.4567,-1.4567,-1.4268,-1.4048,-1.4109,-1.4048,-1.4039,-1.41,-1.41,-1.423,-1.443,-1.443,-1.4635,-1.5157,-1.5184,-1.5331,-1.568,-1.5689,-1.5689,-1.5689,-1.5689,-1.5689,-1.5689,-1.5744,-1.5826,-1.5936,-1.5982,-1.672,-1.8053,-1.8053,-1.8053,-1.8053,-1.8053,-1.7886,-1.7803,-1.797,-1.783,-1.7521,-1.7662,-1.7587,-1.7455,0.0,0.0,0.0,0.0,0.0,0.0,0.0,0.0,0.0,0.0,0.0,0.0,0.0,0.0,0.0,0.0663,0.0626,0.0626,0.0552,0.0626,0.0626,0.0626,0.0601,0.0389,-0.0041,-0.0542,-0.086,-0.0987,0.0,0.0,0.0,-0.1788,-0.1944,0.0,0.0,0.0,0.0,0.0,-0.3952,-0.4403,-0.4825,-0.5276,-0.5668,-0.5968,-0.6164,-0.6376,-0.6485,-0.6647,-0.6815,-0.7074,-0.7343,-0.7616,-0.7842,0.0,0.0,0.0,-0.8633,0.0,0.0,0.0,0.0,0.0,0.0,0.0,0.0,0.0,-1.2273,-1.2751,-1.3083,-1.3334,-1.3539,-1.3754,-1.4003,-1.4269,-1.4346,-1.4477,-1.4529,-1.4375,-1.4267,-1.4267,-1.4267,-1.4267,-1.4267,-1.4267,-1.4327,-1.4396,-1.4387,-1.4529,-1.4763,-1.4772,-1.4845,-1.5029,-1.5029,-1.5029,-1.5029,-1.5029,-1.5139,-1.5359,-1.5359,-1.5478,-1.5689,-1.5689,-1.6083,-1.6762,-1.6762,-1.6762,-1.6762,-1.6762,-1.6684,-1.6633,-1.6948,-1.6969,-1.6847,-1.7054,-1.7063,-1.7027,0.0,0.0,0.0,0.0,0.0,0.0,0.0,0.0,0.0,0.0,0.0,0.0,0.0,0.0,0.0,0.0,0.0589,0.0589,0.0589,0.0589,0.0589,0.0589,0.0437,0.0163,-0.0295,-0.0851,-0.1217,0.0,0.0,0.0,-0.1928,-0.2521,-0.2723,0.0,-0.3035,0.0,0.0,0.0,0.0,0.0,0.0,0.0,0.0,-0.6598,-0.681,-0.6961,-0.7241,-0.7348,-0.7456,-0.783,-0.7984,-0.809,-0.8321,-0.8533,0.0,0.0,0.0,0.0,0.0,0.0,0.0,0.0,0.0,0.0,0.0,0.0,-1.2122,0.0,-1.3008,-1.3374,-1.3539,-1.3664,-1.3855,-1.411,-1.4094,-1.4087,-1.4203,-1.4286,-1.4359,-1.4359,-1.4451,-1.4515,-1.4515,-1.4515,-1.4515,-1.4515,-1.4515,-1.4515,-1.4515,-1.4515,-1.4515,-1.4515,-1.4515,-1.4515,-1.4515,-1.4515,-1.4662,-1.4955,-1.4955,-1.5102,-1.5386,-1.5386,-1.5386,-1.5404,-1.5606,-1.5689,-1.5689,-1.5689,-1.5689,-1.5716,-1.6037,-1.6156,-1.6193,-1.6342,-1.6374,-1.6419,0.0,0.0,0.0,0.0,0.0,0.0,0.0,0.0,0.0,0.0,0.0,0.0,0.1298,0.1061,0.0826,0.0628,0.0589,0.0589,0.0589,0.0589,0.0589,0.0589,0.0164,0.0,-0.0295,-0.0876,0.0,0.0,0.0,0.0,-0.2281,-0.2936,-0.3534,-0.4009,-0.4009,-0.4264,-0.4672,0.0,0.0,0.0,0.0,0.0,0.0,0.0,-0.7616,-0.7818,-0.7871,-0.8037,-0.8368,-0.8521,-0.8573,-0.8626,-0.885,-0.8903,-0.8857,0.0,0.0,0.0,0.0,0.0,0.0,0.0,0.0,0.0,0.0,0.0,0.0,-1.2447,-1.2762,-1.2994,-1.2882,-1.3286,-1.3633,-1.3633,-1.3496,-1.3351,-1.336,-1.3681,-1.391,-1.391,-1.4268,-1.4515,-1.4515,-1.4515,-1.4515,-1.4515,-1.4515,-1.4515,-1.4515,-1.4515,-1.4515,-1.4515,-1.4515,-1.4515,-1.4515,-1.4515,-1.4524,-1.4543,-1.4543,-1.4552,-1.457,-1.457,-1.457,-1.4616,-1.5359,-1.5689,-1.5689,-1.5689,-1.5689,-1.5689,-1.5716,-1.5716,-1.5725,-1.5744,-1.5753,-1.5753,0.0,0.0,0.0,0.0,0.0,0.0,0.0,0.0,0.0,0.0,0.0,0.0,0.0,0.0385,0.0214,-0.0086,-0.0171,-0.0214,-0.0214,-0.0214,-0.0214,-0.0214,-0.0391,-0.0657,-0.1008,-0.1646,0.0,0.0,0.0,-0.2462,-0.269,-0.3446,-0.407,-0.4477,-0.4579,-0.4888,-0.5413,-0.5839,0.0,0.0,0.0,0.0,0.0,0.0,0.0,0.0,0.0,0.0,-0.9047,-0.9204,-0.9249,-0.9249,-0.9361,-0.9361,-0.9309,-0.9413,-0.9562,0.0,0.0,0.0,0.0,0.0,0.0,0.0,0.0,-1.1986,-1.2135,-1.2186,-1.2556,-1.2777,-1.2724,-1.2987,-1.3202,-1.3202,-1.3268,-1.3296,-1.3296,-1.3415,-1.3598,-1.3855,-1.4011,-1.4212,-1.4488,-1.4515,-1.4515,-1.4515,-1.4515,-1.4515,-1.4515,-1.4515,-1.4515,-1.4515,-1.4515,-1.4515,-1.4515,-1.4515,-1.4515,-1.4515,-1.4515,-1.4515,-1.4515,-1.4515,-1.4515,-1.4533,-1.4808,-1.4937,-1.4937,-1.4937,-1.4937,-1.4964,-1.5212,-1.5313,-1.534,-1.5597,-1.5689,-1.5689,0.0,0.0,0.0,0.0,0.0,0.0,0.0,0.0,0.0,0.0,0.0,0.0,0.0,0.0,-0.1034,-0.1549,-0.1533,-0.153,-0.1549,-0.1533,-0.1521,-0.1521,-0.1518,-0.1654,-0.2012,-0.2328,0.0,0.0,0.0,0.0,0.0,-0.4072,-0.4668,-0.5125,-0.5423,-0.5761,0.0,0.0,0.0,-0.7359,0.0,0.0,-0.8355,0.0,0.0,0.0,0.0,0.0,-0.9673,-0.9821,-0.9821,-0.9762,-0.9769,-0.9829,-0.988,-0.9829,-0.9976,0.0,0.0,0.0,0.0,0.0,0.0,0.0,0.0,0.0,-1.1977,-1.2076,-1.2337,-1.2521,-1.2521,-1.2638,-1.2751,-1.2887,-1.2912,-1.2883,-1.2883,-1.3002,-1.3186,-1.3442,-1.3598,-1.3846,-1.4258,-1.4304,-1.4359,-1.4506,-1.4515,-1.4515,-1.4515,-1.4515,-1.4515,-1.4515,-1.4515,-1.4515,-1.4515,-1.4515,-1.4515,-1.4515,-1.4515,-1.4515,-1.4515,-1.4515,-1.4515,-1.4515,-1.4515,-1.4515,-1.4515,-1.4515,-1.4515,-1.4543,-1.4799,-1.49,-1.4937,-1.5194,-1.5294,-1.5294,0.0,0.0,0.0,0.0,0.0,0.0,0.0,0.0,0.0,-0.2113,0.0,0.0,0.0,0.0,0.0,-0.3657,-0.3452,-0.3248,-0.3225,-0.3263,-0.3242,-0.3242,-0.3185,-0.3223,-0.336,-0.2998,0.0,0.0,0.0,0.0,0.0,0.0,-0.5417,-0.5977,-0.6623,-0.6815,-0.6696,0.0,-0.7788,-0.8275,0.0,-0.8837,-0.9211,0.0,0.0,0.0,-1.0198,-1.0249,0.0,-1.0403,0.0,0.0,0.0,-1.036,-1.047,-1.0308,-1.0565,0.0,0.0,0.0,0.0,0.0,0.0,0.0,-1.2076,0.0,-1.2076,-1.2076,-1.2076,-1.2076,-1.2076,-1.2076,-1.2254,-1.2632,-1.2324,-1.2076,-1.2076,-1.2457,-1.2706,-1.2715,-1.303,-1.3433,-1.3827,-1.3864,-1.4029,-1.4442,-1.4478,-1.4478,-1.4478,-1.4478,-1.4478,-1.4488,-1.4488,-1.4506,-1.4515,-1.4506,-1.4488,-1.4488,-1.4478,-1.4478,-1.4488,-1.4488,-1.4506,-1.4515,-1.4515,-1.4515,-1.4515,-1.4515,-1.4515,-1.4515,-1.4515,-1.4515,-1.4515,-1.4515,-1.4515,-1.4515,0.0,0.0,0.0,0.0,0.0,0.0,0.0,0.0,-0.2929,0.0,0.0,0.0,-0.3384,-0.3685,-0.4038,-0.4375,-0.4293,-0.4241,-0.4372,-0.4245,-0.4271,-0.4359,-0.4455,-0.455,-0.4685,-0.4637,0.0,0.0,0.0,0.0,0.0,0.0,0.0,0.0,-0.7477,-0.7996,-0.819,-0.8049,0.0,-0.8798,-0.9054,-0.9354,0.0,0.0,0.0,0.0,0.0,-1.1065,-1.1167,0.0,-1.1318,-1.1209,0.0,0.0,0.0,0.0,0.0,0.0,-1.1377,0.0,0.0,0.0,0.0,0.0,0.0,0.0,-1.2076,-1.2076,-1.2076,-1.2076,-1.2076,-1.2076,-1.2162,-1.2273,-1.2149,-1.2076,-1.2076,-1.2227,-1.2393,-1.2687,-1.2825,-1.3002,-1.3415,-1.3461,-1.3506,-1.3626,-1.3635,-1.3635,-1.3635,-1.3635,-1.3763,-1.4047,-1.4057,-1.4203,-1.4506,-1.4203,-1.4057,-1.4057,-1.3763,-1.3782,-1.4057,-1.4057,-1.4222,-1.4515,-1.4515,-1.4515,-1.4515,-1.4515,-1.4515,-1.4515,-1.4515,-1.4515,-1.4515,-1.4515,-1.4515,-1.4515,0.0,0.0,0.0,0.0,0.0,0.0,0.0,0.0,-0.4104,0.0,0.0,0.0,-0.482,-0.5127,-0.5403,-0.5634,-0.5618,-0.5658,-0.5784,-0.5667,-0.562,-0.5712,-0.5814,-0.5863,-0.5955,-0.6008,0.0,0.0,0.0,0.0,0.0,0.0,0.0,0.0,0.0,0.0,0.0,0.0,0.0,0.0,-0.9732,0.0,0.0,-1.0753,-1.1065,0.0,0.0,0.0,-1.1999,-1.2098,-1.2098,0.0,0.0,0.0,0.0,0.0,0.0,0.0,0.0,0.0,0.0,0.0,0.0,0.0,-1.2076,-1.2076,-1.2076,-1.2076,-1.2076,-1.2076,-1.2076,-1.2076,-1.2076,-1.2076,-1.2076,-1.2076,-1.2076,-1.2076,-1.2208,-1.2439,-1.2466,-1.2632,-1.2993,-1.303,-1.3103,-1.3277,-1.3296,-1.3296,-1.3296,-1.3296,-1.3406,-1.3635,-1.3635,-1.3754,-1.4002,-1.3763,-1.3635,-1.3635,-1.3406,-1.3415,-1.3635,-1.3635,-1.3772,-1.4002,-1.4002,-1.4002,-1.4011,-1.4185,-1.4359,-1.4515,-1.4515,-1.4515,-1.4515,-1.4515,-1.4515,-1.4515,0.0,0.0,0.0,0.0,0.0,0.0,0.0,0.0,0.0,0.0,-0.5913,-0.6075,-0.6428,-0.6726,-0.7014,-0.7285,-0.7302,-0.7358,-0.7488,-0.7339,-0.7315,-0.7315,-0.7315,-0.7315,-0.7315,-0.7315,0.0,0.0,0.0,0.0,0.0,0.0,0.0,0.0,0.0,0.0,0.0,0.0,0.0,-1.0446,-1.0549,-1.1006,0.0,0.0,-1.1909,-1.2353,-1.2501,-1.2638,-1.2764,-1.2909,-1.2812,0.0,0.0,0.0,0.0,0.0,-1.2076,0.0,0.0,0.0,0.0,0.0,-1.2126,0.0,-1.2076,-1.2076,-1.2076,-1.2076,-1.2076,-1.2076,-1.2076,-1.2076,-1.2076,-1.2076,-1.2076,-1.2076,-1.2076,-1.2076,-1.2076,-1.2076,-1.2076,-1.2214,-1.2614,-1.265,-1.2807,-1.3131,-1.3158,-1.3158,-1.3158,-1.3158,-1.3176,-1.3222,-1.3222,-1.325,-1.3296,-1.325,-1.3222,-1.3222,-1.3176,-1.3186,-1.3222,-1.3222,-1.325,-1.3296,-1.3296,-1.3296,-1.3323,-1.3671,-1.4066,-1.4451,-1.4497,-1.4515,-1.4515,-1.4515,-1.4515,-1.4515,-0.6872,0.0,0.0,0.0,0.0,0.0,0.0,0.0,0.0,-0.7312,-0.7833,-0.8229,-0.8287,-0.8635,-0.8913,-0.9092,-0.908,-0.9169,-0.9291,-0.9183,-0.9147,-0.9264,-0.9264,-0.9307,-0.9409,-0.9315,-0.9264,0.0,0.0,0.0,0.0,0.0,0.0,0.0,0.0,0.0,0.0,0.0,0.0,-1.195,-1.1783,0.0,-1.2276,-1.2579,-1.2822,-1.3025,-1.3276,-1.3467,-1.361,-1.3742,-1.36,-1.342,0.0,0.0,0.0,-1.2774,0.0,0.0,0.0,0.0,0.0,0.0,-1.2175,0.0,-1.2076,-1.2076,-1.2076,-1.2076,-1.2076,-1.2076,-1.2076,-1.2076,-1.2076,-1.2076,-1.2076,-1.2076,-1.2076,-1.2076,-1.2076,-1.2076,-1.2076,-1.2104,-1.2236,-1.2236,-1.2223,-1.2305,-1.2314,-1.2314,-1.2314,-1.2314,-1.2461,-1.2834,-1.2834,-1.2956,-1.3286,-1.2956,-1.2834,-1.2782,-1.2461,-1.2479,-1.2834,-1.2834,-1.2975,-1.3296,-1.3296,-1.3296,-1.3305,-1.3378,-1.3644,-1.4038,-1.4378,-1.4515,-1.4515,-1.4515,-1.4515,-1.4515,-0.7773,0.0,0.0,0.0,0.0,0.0,0.0,0.0,0.0,-0.867,-0.9144,-0.9599,-0.985,-1.0143,-1.0399,-1.0568,-1.0602,-1.0653,-1.0712,-1.0653,-1.0653,-1.0712,-1.0712,-1.072,-1.0813,-1.0712,-1.0661,0.0,0.0,0.0,0.0,0.0,0.0,0.0,0.0,0.0,0.0,0.0,-1.2745,-1.3035,-1.2667,0.0,-1.3112,-1.3399,-1.3647,-1.3926,-1.4302,-1.4731,-1.5136,-1.499,-1.4759,0.0,-1.4168,-1.3847,-1.3542,0.0,-1.3286,-1.3104,0.0,0.0,0.0,-1.2618,-1.2529,0.0,0.0,-1.2431,-1.2431,-1.248,-1.2372,-1.2323,-1.2382,-1.2283,-1.2175,-1.2175,-1.2126,-1.2076,-1.2076,-1.2076,-1.2076,-1.2076,-1.2076,-1.2076,-1.2076,-1.2076,-1.2076,-1.2076,-1.2076,-1.2076,-1.2076,-1.2076,-1.2168,-1.2411,-1.242,-1.2479,-1.2681,-1.2479,-1.242,-1.242,-1.2227,-1.2227,-1.242,-1.242,-1.2489,-1.2681,-1.2681,-1.2681,-1.27,-1.2901,-1.3094,-1.3332,-1.3956,-1.4194,-1.4222,-1.4433,-1.4515,-1.4515,-0.8627,0.0,0.0,0.0,0.0,0.0,0.0,0.0,0.0,-0.9938,-1.032,-1.0771,-1.1266,-1.1458,-1.1665,-1.1913,-1.1963,-1.1963,-1.1963,-1.1963,-1.1963,-1.1963,-1.1963,-1.1963,-1.1963,-1.1963,-1.1913,0.0,0.0,0.0,0.0,0.0,0.0,0.0,0.0,0.0,0.0,0.0,0.0,-1.4042,0.0,-1.3803,-1.401,-1.4273,-1.4598,-1.4967,-1.5437,-1.606,-1.6593,-1.6238,-1.5967,-1.5706,-1.5216,-1.478,0.0,0.0,0.0,0.0,0.0,0.0,-1.3122,-1.3113,-1.3017,-1.3017,0.0,0.0,0.0,-1.2968,-1.2813,-1.2666,-1.2822,-1.2618,-1.2421,-1.2421,-1.2274,-1.2175,-1.2126,-1.2126,-1.2076,-1.2076,-1.2076,-1.2076,-1.2076,-1.2076,-1.2076,-1.2076,-1.2076,-1.2076,-1.2076,-1.2076,-1.2076,-1.2076,-1.2076,-1.2076,-1.2076,-1.2076,-1.2076,-1.2076,-1.2076,-1.2076,-1.2076,-1.2076,-1.2076,-1.2076,-1.2076,-1.2076,-1.2153,-1.2466,-1.2604,-1.2687,-1.3451,-1.3772,-1.3809,-1.4157,-1.4277,-1.4286,-0.9694,-0.9603,0.0,0.0,0.0,0.0,0.0,0.0,0.0,-1.1209,-1.171,-1.2089,-1.2365,0.0,0.0,0.0,0.0,-1.3362,-1.3362,-1.3362,-1.3362,-1.3362,-1.3362,-1.3362,-1.3362,-1.3266,-1.317,-1.316,0.0,0.0,0.0,0.0,0.0,0.0,-1.3621,0.0,0.0,0.0,-1.4801,0.0,-1.5775,-1.5478,0.0,-1.5414,-1.5774,-1.6008,-1.6676,-1.6947,-1.7032,-1.6985,-1.6851,-1.6729,-1.6671,-1.613,-1.5513,-1.5466,0.0,0.0,0.0,-1.3999,-1.3716,-1.3726,-1.3525,-1.3324,-1.3324,0.0,-1.317,-1.3324,0.0,-1.317,-1.3324,0.0,0.0,-1.2754,-1.2569,-1.2421,-1.2274,-1.2175,-1.2076,-1.2076,-1.2076,-1.2076,-1.2076,-1.2076,-1.2076,-1.2076,-1.2076,-1.2076,-1.2076,-1.2076,-1.2076,-1.2076,-1.2076,-1.2076,-1.2076,-1.2076,-1.2076,-1.2076,-1.2076,-1.2076,-1.2076,-1.2076,-1.2076,-1.2076,-1.2076,-1.2076,-1.2076,-1.2172,-1.219,-1.2223,-1.3039,-1.336,-1.3369,-1.3415,-1.3433,-1.3479,-1.1084,-1.0918,0.0,0.0,0.0,0.0,0.0,0.0,0.0,-1.2335,-1.2686,0.0,0.0,0.0,0.0,0.0,0.0,-1.4455,-1.4455,-1.4455,0.0,-1.4351,-1.4351,-1.4305,-1.4247,-1.4201,-1.4118,-1.4025,-1.3978,0.0,0.0,0.0,0.0,0.0,-1.4501,0.0,-1.5121,0.0,-1.5736,0.0,0.0,-1.6578,0.0,-1.6476,-1.6842,-1.726,-1.7597,-1.7933,-1.8136,-1.7838,-1.7668,-1.7458,-1.7152,-1.6619,-1.6067,-1.6067,0.0,0.0,-1.4834,-1.464,-1.4408,-1.4351,-1.4222,-1.4093,-1.4093,-1.3941,-1.3836,-1.4046,0.0,0.0,0.0,0.0,0.0,0.0,-1.2987,-1.2793,-1.2696,-1.2608,-1.2431,-1.2126,-1.2076,-1.2076,-1.2076,-1.2076,-1.2076,-1.2076,-1.2076,-1.2076,-1.2076,-1.2076,-1.2076,-1.2076,-1.2076,-1.2076,-1.2076,-1.2076,-1.2076,-1.2076,-1.2076,-1.2076,-1.2076,-1.2076,-1.2126,-1.2224,-1.2224,-1.2274,-1.2323,-1.2323,-1.2323,-1.236,-1.2614,-1.2831,-1.2956,-1.3204,-1.3296,-1.3314,-1.2792,0.0,0.0,0.0,0.0,0.0,0.0,0.0,0.0,0.0,0.0,0.0,-1.449,-1.472,0.0,0.0,-1.5355,-1.5516,-1.5668,-1.568,-1.5693,-1.5695,-1.5649,-1.5591,-1.5487,-1.5303,-1.5188,-1.5119,0.0,0.0,0.0,0.0,0.0,0.0,0.0,-1.5742,-1.6162,0.0,-1.683,-1.7305,-1.7547,-1.7745,-1.7771,-1.7502,-1.7763,-1.8295,-1.8358,-1.8674,-1.8992,-1.8542,-1.8358,-1.8235,-1.7852,-1.7337,-1.686,-1.6717,0.0,0.0,-1.5414,-1.5232,-1.5142,-1.4994,-1.4915,-1.4846,-1.48,-1.4605,-1.4501,-1.4754,-1.4547,0.0,0.0,0.0,-1.3894,-1.3847,0.0,-1.3256,-1.3218,-1.3142,-1.2871,-1.2323,-1.2224,-1.2175,-1.2175,-1.2175,-1.2126,-1.2076,-1.2076,-1.2076,-1.2076,-1.2076,-1.2076,-1.2076,-1.2076,-1.2076,-1.2076,-1.2076,-1.2076,-1.2076,-1.2126,-1.2175,-1.2175,-1.2224,-1.2323,-1.2421,-1.2471,-1.2559,-1.2657,-1.2657,-1.2657,-1.2618,-1.252,-1.2601,-1.2749,-1.2899,-1.2956,-1.2975,-1.4858,-1.3902,0.0,0.0,0.0,0.0,0.0,0.0,0.0,0.0,0.0,0.0,0.0,0.0,0.0,0.0,0.0,-1.6504,-1.7107,-1.7144,-1.73,-1.7593,-1.7617,-1.7569,-1.74,-1.6893,-1.664,-1.664,0.0,0.0,0.0,0.0,0.0,0.0,0.0,-1.664,-1.6725,-1.7712,-1.8157,-1.8229,-1.8879,-1.919,-1.9258,-1.8476,-1.8506,-1.8963,-1.8963,-1.9093,-1.917,-1.9028,-1.9081,-1.9146,-1.9004,-1.867,-1.8238,-1.7703,-1.7157,-1.6657,-1.609,-1.5869,-1.5748,-1.5715,-1.557,-1.5424,-1.5312,-1.5165,-1.5108,-1.5267,-1.5165,-1.5108,-1.5267,-1.4937,-1.4605,-1.4501,-1.4165,0.0,0.0,-1.3668,-1.3334,-1.2774,-1.2578,-1.2431,-1.2332,-1.2274,-1.2224,-1.2126,-1.2076,-1.2076,-1.2076,-1.2076,-1.2076,-1.2076,-1.2076,-1.2076,-1.2076,-1.2076,-1.2076,-1.2076,-1.2224,-1.2274,-1.2274,-1.2578,-1.2676,-1.2676,-1.288,-1.2967,-1.2967,-1.2967,-1.2967,-1.2977,-1.292,-1.2891,-1.2852,-1.2311,-1.2162,-1.2168,0.0,0.0,0.0,0.0,0.0,0.0,0.0,-1.4571,0.0,0.0,-1.5421,0.0,0.0,-1.6398,-1.6697,0.0,0.0,-1.7783,-1.7978,-1.8414,-1.8624,-1.8575,-1.8541,-1.8435,-1.8223,-1.8046,-1.7958,-1.7958,0.0,0.0,0.0,0.0,0.0,0.0,0.0,-1.789,0.0,0.0,0.0,0.0,0.0,-1.9747,-1.9734,-1.9199,-1.9105,-1.9263,-1.9263,-1.9368,-1.946,-1.9316,-1.9368,-1.946,-1.9316,-1.8743,-1.8128,-1.7907,-1.7251,-1.6573,-1.6399,-1.6306,-1.6262,-1.6188,-1.6057,-1.5881,-1.5659,-1.557,-1.5525,-1.5537,-1.548,-1.5424,-1.5525,-1.53,-1.5074,-1.5028,-1.4777,-1.4582,0.0,-1.4316,-1.4046,-1.3858,-1.3228,-1.2793,-1.2657,-1.252,-1.2382,-1.2224,-1.2224,-1.2224,-1.2224,-1.2323,-1.2382,-1.2382,-1.2382,-1.2323,-1.2224,-1.2224,-1.2224,-1.2224,-1.2382,-1.252,-1.2618,-1.29,-1.3142,-1.3286,-1.3467,-1.36,-1.3684,-1.3684,-1.3684,-1.3637,-1.343,-1.3344,-1.3286,-1.2715,-1.248,-1.2499,-1.6175,0.0,0.0,0.0,0.0,0.0,0.0,0.0,0.0,0.0,-1.643,0.0,-1.6863,0.0,-1.7618,-1.7556,-1.807,-1.8545,-1.8936,-1.9385,-1.9656,-1.9781,-1.9794,-1.97,-1.9439,-1.9243,-1.9152,-1.9152,0.0,-1.876,0.0,0.0,0.0,0.0,0.0,-1.9028,-1.9338,-1.9615,-1.9961,0.0,0.0,-2.0346,-2.0346,-2.0055,-1.9811,-1.9617,-1.9617,-1.9759,-1.9914,-1.9772,-1.9823,-1.9914,-1.972,-1.9283,-1.8765,-1.8374,-1.7847,-1.7275,-1.688,-1.6735,-1.6723,-1.6637,-1.6522,-1.6362,-1.6088,-1.6013,-1.5925,-1.5893,-1.5792,-1.5748,-1.5792,-1.5614,-1.5492,-1.5447,-1.5244,-1.5096,0.0,-1.488,-1.4708,-1.4708,-1.3931,-1.3266,-1.3045,-1.2852,-1.2657,-1.248,-1.2431,-1.2431,-1.2431,-1.2618,-1.2666,-1.2627,-1.2666,-1.2608,-1.2529,-1.2529,-1.252,-1.2559,-1.2706,-1.29,-1.3094,-1.3457,-1.3695,-1.3905,-1.4093,-1.4222,-1.4305,-1.4305,-1.4305,-1.4305,-1.4071,-1.3988,-1.3858,-1.3142,-1.2861,-1.2852,-1.6765,0.0,0.0,0.0,-1.5836,0.0,0.0,-1.6175,-1.6504,0.0,-1.7506,-1.7895,-1.7663,-1.8368,-1.8741,-1.8299,-1.8391,-1.8891,-1.9972,-2.0097,-2.047,-2.1224,-2.1277,-2.1215,-2.1042,-2.0569,-2.0301,-2.0301,0.0,0.0,0.0,0.0,0.0,0.0,-1.9847,0.0,-1.9935,-2.0571,-2.0858,-2.0858,-2.0993,-2.1042,-2.1042,-2.1042,-2.0646,-2.0093,-2.0042,-2.0295,-2.061,-2.0321,-2.0422,-2.056,-2.0321,-2.0308,-2.0176,-1.9089,-1.8819,-1.8668,-1.7581,-1.7267,-1.7199,-1.7076,-1.6976,-1.6876,-1.6607,-1.6479,-1.6392,-1.6275,-1.6244,-1.6188,-1.6044,-1.5913,-1.5792,-1.5715,-1.5614,-1.5513,-1.5513,-1.539,-1.5312,-1.5312,-1.4593,-1.3931,-1.3505,-1.3314,-1.3084,-1.2774,-1.2725,-1.2725,-1.2725,-1.2929,-1.3035,-1.2978,-1.3035,-1.3035,-1.2929,-1.2929,-1.2958,-1.3064,-1.3314,-1.3515,-1.3658,-1.4186,-1.4419,-1.4466,-1.4777,-1.4949,-1.4949,-1.4949,-1.4949,-1.4903,-1.4801,-1.4686,-1.4523,-1.36,-1.3266,-1.3266,-1.7352,-1.761,-1.8044,0.0,-1.727,-1.656,-1.7244,-1.7583,-1.8044,0.0,-1.9293,-1.9551,-1.9501,-1.9866,-1.9908,-1.9288,-2.0147,-2.0713,-2.0529,-2.1437,-2.1985,-2.2077,-2.2091,-2.203,-2.1874,-2.1736,-2.1713,-2.1713,0.0,0.0,-2.1197,0.0,0.0,0.0,0.0,0.0,-2.1,-2.1293,-2.1506,-2.1698,-2.1636,-2.1636,-2.1732,-2.1636,-2.1541,-2.1444,-2.0944,-2.0858,-2.1019,-2.0858,-2.0921,-2.1019,-2.0858,-2.0616,-2.0313,-2.0067,-1.9405,-1.8741,-1.8488,-1.8042,-1.7706,-1.7557,-1.7516,-1.7393,-1.7073,-1.6989,-1.6947,-1.6748,-1.665,-1.6509,-1.6392,-1.6219,-1.6057,-1.5957,-1.5836,-1.5703,-1.5703,-1.5659,-1.5582,-1.5582,-1.5334,-1.4869,-1.4233,-1.3752,-1.3372,-1.3084,-1.318,-1.3228,-1.3228,-1.3552,-1.3742,-1.3695,-1.3732,-1.3705,-1.3583,-1.3583,-1.3583,-1.3621,-1.3752,-1.3978,-1.4269,-1.464,-1.488,-1.5074,-1.5289,-1.5367,-1.5367,-1.5367,-1.5367,-1.5322,-1.5198,-1.5062,-1.488,-1.4222,-1.3884,-1.3779,-1.867,-1.8814,0.0,-1.9636,-1.8816,-1.8209,-1.8601,-1.893,-1.9296,-1.9929,-2.0438,-2.0639,-2.0443,-2.0841,-2.0855,-2.0226,-2.0897,-2.1298,-2.1198,-2.1858,-2.2314,-2.2526,-2.2509,-2.2463,-2.2402,-2.2417,-2.237,-2.237,0.0,0.0,-2.2137,0.0,0.0,0.0,0.0,-2.1664,-2.1664,-2.1841,-2.2091,-2.2278,-2.2184,-2.2184,0.0,-2.2184,-2.2184,-2.2217,-2.1827,-2.1684,-2.1698,-2.1589,-2.1589,-2.1698,-2.1589,-2.1308,-2.1055,-2.0795,-2.0247,-1.9658,-1.9398,-1.8878,-1.8426,-1.8331,-1.8072,-1.7747,-1.757,-1.7447,-1.7352,-1.7199,-1.706,-1.6934,-1.6752,-1.6607,-1.6448,-1.6219,-1.6044,-1.5969,-1.5969,-1.5925,-1.5893,-1.5836,-1.5691,-1.5424,-1.4846,-1.4326,-1.3905,-1.3563,-1.3621,-1.3705,-1.3742,-1.4118,-1.4305,-1.4294,-1.434,-1.4351,-1.4165,-1.4165,-1.4222,-1.4269,-1.4398,-1.4593,-1.488,-1.5153,-1.5334,-1.5492,-1.557,-1.5647,-1.5647,-1.5647,-1.5647,-1.5603,-1.5537,-1.5435,-1.53,-1.4915,-1.464,-1.449,-2.0312,0.0,0.0,0.0,0.0,-2.0394,-2.0191,-2.0237,-2.0412,-2.0698,-2.1281,-2.1497,-2.104,-2.1571,-2.173,-2.1137,-2.122,-2.1452,-2.1816,-2.1932,-2.225,-2.277,-2.2723,-2.2737,-2.2799,-2.2737,-2.2692,-2.2661,0.0,0.0,0.0,0.0,0.0,0.0,0.0,0.0,0.0,-2.2324,-2.2509,-2.2615,-2.2615,-2.2615,-2.2661,-2.2661,-2.2661,-2.2661,-2.2661,-2.2555,-2.2417,-2.2278,-2.2324,-2.2417,-2.2278,-2.2184,-2.1979,-2.1447,-2.1147,-2.0876,-2.0348,-1.9766,-1.928,-1.9197,-1.8727,-1.8192,-1.8057,-1.7895,-1.7801,-1.7639,-1.7557,-1.7434,-1.7173,-1.7031,-1.6833,-1.6479,-1.6362,-1.6275,-1.6231,-1.6231,0.0,0.0,-1.5957,0.0,-1.5402,-1.4949,-1.4477,-1.4114,-1.4104,-1.415,-1.4269,-1.4605,-1.4823,-1.4801,-1.4903,-1.4903,-1.4801,-1.4789,-1.4846,-1.4994,-1.5108,-1.521,-1.5357,-1.5582,-1.5715,-1.5715,-1.5748,-1.5792,-1.5792,-1.5792,-1.5792,-1.5792,-1.576,-1.5715,-1.5715,-1.5558,-1.5379,-1.5198,-2.1456,0.0,0.0,0.0,0.0,-2.2288,-2.2467,-2.1769,-2.1552,-2.2364,-2.2521,-2.2579,-2.2673,-2.2715,-2.2527,-2.2016,-2.244,-2.26,-2.2261,-2.2717,-2.3113,-2.3363,-2.3231,-2.3231,-2.3363,-2.3231,-2.3098,-2.2992,-2.2904,0.0,0.0,0.0,0.0,0.0,0.0,0.0,-2.2509,-2.2555,-2.2629,-2.2749,-2.2749,-2.2781,-2.2843,-2.2843,-2.2843,-2.2843,-2.2843,-2.2752,-2.2555,-2.2555,-2.2555,-2.2555,-2.2555,-2.2509,-2.248,-2.2381,-2.1936,-2.1465,-2.1352,-2.0869,-2.0287,-1.9817,-1.9589,-1.9336,-1.8708,-1.8556,-1.8464,-1.8201,-1.8095,-1.7989,-1.7788,-1.7406,-1.7031,-1.6723,-1.6637,-1.6552,-1.6479,-1.6436,-1.6436,0.0,-1.6306,-1.6132,-1.5748,-1.5187,-1.4743,-1.4523,-1.4651,-1.4766,-1.4766,-1.5142,-1.5379,-1.5367,-1.5367,-1.5367,-1.5367,-1.5367,-1.5367,-1.5424,-1.5424,-1.5525,-1.5626,-1.5671,-1.5715,-1.5792,-1.5792,-1.5792,-1.5792,-1.5792,-1.5792,-1.5792,-1.5792,-1.5792,-1.5792,-1.5748,-1.5703,-1.5647,-2.244,0.0,0.0,0.0,-2.3038,-2.3113,-2.3436,-2.3039,-2.2819,-2.3187,-2.3112,-2.3127,-2.329,-2.3201,-2.3025,-2.2906,-2.3157,-2.3245,-2.3091,-2.3359,-2.361,-2.3782,-2.3711,-2.3711,-2.3797,-2.3668,-2.3494,-2.3363,-2.3172,-2.3068,-2.2962,0.0,0.0,0.0,0.0,-2.2768,0.0,-2.2918,-2.2933,-2.2962,-2.2962,-2.2917,-2.2888,-2.2888,-2.2888,-2.2888,-2.2888,-2.2843,-2.2752,-2.2752,-2.2752,-2.2752,-2.2752,-2.2721,-2.2689,-2.2689,-2.2415,-2.2112,-2.2112,-2.1412,-2.0626,-2.0326,-1.9755,-1.9184,-1.8831,-1.8736,-1.8721,-1.8592,-1.8503,-1.84,-1.8123,-1.7989,-1.7779,-1.7308,-1.7173,-1.7102,-1.7018,-1.6976,-1.6934,-1.682,0.0,0.0,-1.612,-1.5712,-1.5322,-1.4994,-1.5074,-1.5153,-1.5187,-1.5468,-1.5614,-1.5647,-1.5659,-1.5659,-1.5659,-1.5659,-1.5659,-1.5659,-1.5659,-1.5703,-1.576,-1.576,-1.5748,-1.5792,-1.5792,-1.5792,-1.5792,-1.5792,-1.5792,-1.5792,-1.5792,-1.5792,-1.5792,-1.5792,-1.5792,-1.5792,0.0,-2.3216,0.0,0.0,-2.3451,-2.3566,-2.3882,-2.3925,-2.3839,-2.3668,-2.3538,-2.3494,-2.3625,-2.3538,-2.3494,-2.3625,-2.3625,-2.3711,-2.3882,-2.3925,-2.4009,-2.4177,-2.4094,-2.4094,-2.4162,-2.3994,-2.3824,-2.3696,-2.3494,-2.3319,-2.3171,-2.3007,0.0,0.0,0.0,-2.3113,-2.326,-2.3363,-2.3319,-2.3201,-2.3216,-2.3112,-2.2978,-2.2978,-2.2978,-2.2978,-2.2978,-2.2978,-2.2978,-2.2978,-2.2933,-2.2888,-2.2888,-2.2857,-2.2841,-2.2841,-2.2766,-2.2632,-2.2503,-2.1743,-2.0925,-2.0653,-1.9921,-1.9233,-1.9104,-1.9176,-1.9262,-1.9262,-1.9173,-1.903,-1.8737,-1.8755,-1.8616,-1.8099,-1.7801,-1.7598,-1.7611,-1.7529,-1.7447,-1.7323,0.0,-1.6863,-1.6484,-1.6281,-1.5957,-1.5525,-1.5447,-1.5435,-1.5558,-1.5671,-1.576,-1.5792,-1.5792,-1.5792,-1.5792,-1.5792,-1.5792,-1.5792,-1.5792,-1.5792,-1.5792,-1.5792,-1.5792,-1.5792,-1.5792,-1.5792,-1.5792,-1.5792,-1.5792,-1.5792,-1.5792,-1.5792,-1.5792,-1.5792,-1.5792,-1.5792,0.0,0.0,-2.3882,-2.394,-2.3994,-2.4078,-2.4219,-2.4261,-2.4219,-2.4078,-2.3967,-2.3967,-2.4036,-2.3967,-2.3967,-2.4036,-2.4021,-2.412,-2.4219,-2.4261,-2.4317,-2.4457,-2.4359,-2.4317,-2.4457,-2.4317,-2.4135,-2.3982,-2.3839,-2.3668,-2.3466,-2.3334,-2.3334,-2.3422,-2.348,-2.361,-2.3754,-2.3754,-2.3653,-2.3566,-2.3509,-2.3378,-2.3275,-2.3275,-2.3275,-2.3275,-2.3275,-2.3275,-2.3275,-2.3275,-2.3112,-2.2888,-2.2888,-2.2902,-2.2902,-2.2902,-2.2888,-2.2772,-2.2193,-2.1946,-2.1584,-2.0425,-2.0469,-2.0628,-2.0092,-2.0382,-2.0787,-2.0734,-2.061,-2.0485,-2.0387,-1.9851,-1.9321,-1.9017,-1.8385,-1.7922,-1.7868,-1.7882,-1.7788,-1.7679,-1.7516,-1.7297,-1.6951,-1.6752,-1.6466,-1.6144,-1.5848,-1.5671,-1.5671,-1.576,-1.5792,-1.5792,-1.5792,-1.5792,-1.5792,-1.5792,-1.5792,-1.5792,-1.5792,-1.5792,-1.5792,-1.5792,-1.5792,-1.5792,-1.5792,-1.5792,-1.5792,-1.5792,-1.5792,-1.5792,-1.5792,-1.5792,-1.5792,-1.5792,-1.5792,-1.5792,-2.4333,-2.4234,-2.4193,-2.4291,-2.4317,-2.44,-2.4564,-2.4605,-2.4605,-2.463,-2.4385,-2.4234,-2.4317,-2.4219,-2.4234,-2.4317,-2.4359,-2.44,-2.4605,-2.4605,-2.4645,-2.4766,-2.4766,-2.4766,-2.4806,-2.4645,-2.4523,-2.4343,-2.4177,-2.4009,-2.3812,-2.3668,-2.3668,-2.3812,-2.3867,-2.3952,-2.4094,-2.4094,-2.4036,-2.3894,-2.3839,-2.3711,-2.3581,-2.3523,-2.348,-2.348,-2.348,-2.3523,-2.3581,-2.3523,-2.3319,-2.3112,-2.3037,-2.3037,-2.2992,-2.2947,-2.2888,-2.2757,-2.2164,-2.1699,-2.1191,-2.032,-1.9986,-1.9899,-2.0059,-2.0291,-2.0567,-2.0889,-2.1153,-2.1226,-2.0854,-2.0484,-2.0074,-1.961,-1.8922,-1.8475,-1.8436,-1.8347,-1.8228,-1.8189,-1.7962,-1.7707,-1.7462,-1.7186,-1.685,-1.6522,-1.6132,-1.5869,-1.5869,-1.5913,-1.5957,-1.6013,-1.6013,-1.6013,-1.5913,-1.5913,-1.5869,-1.5792,-1.5792,-1.5792,-1.5792,-1.5792,-1.5792,-1.5792,-1.5792,-1.5792,-1.5792,-1.5792,-1.5792,-1.5792,-1.5792,-1.5792,-1.5792,-1.5792,-1.5836,-1.5913,-2.458,-2.4523,-2.4508,-2.458,-2.462,-2.4701,-2.4822,-2.4862,-2.4902,-2.4966,-2.4726,-2.4564,-2.4661,-2.4564,-2.4564,-2.4661,-2.4661,-2.4701,-2.4862,-2.4862,-2.4902,-2.5021,-2.5005,-2.5005,-2.5005,-2.4902,-2.4766,-2.4686,-2.4467,-2.4317,-2.4151,-2.4009,-2.4009,-2.4151,-2.4219,-2.4343,-2.4441,-2.4441,-2.4385,-2.4245,-2.4177,-2.4067,-2.3925,-2.3824,-2.3824,-2.3824,-2.3824,-2.3867,-2.3925,-2.3824,-2.3696,-2.3538,-2.3305,-2.3216,-2.3171,-2.3037,-2.2947,-2.2759,-2.1931,-2.1351,-2.0814,-2.004,-1.9633,-1.9589,-2.0313,-2.0604,-2.0855,-2.1438,-2.1845,-2.2004,-2.1556,-2.1082,-2.0638,-2.0194,-1.938,-1.8784,-1.8784,-1.8683,-1.8581,-1.8556,-1.8333,-1.8082,-1.7882,-1.7516,-1.7227,-1.6892,-1.6497,-1.625,-1.6132,-1.6132,-1.6175,-1.6275,-1.6275,-1.6219,-1.6132,-1.6132,-1.6044,-1.5925,-1.5925,-1.5925,-1.5925,-1.5925,-1.5925,-1.5925,-1.5925,-1.5925,-1.5925,-1.5925,-1.5925,-1.5925,-1.5925,-1.5925,-1.5925,-1.5925,-1.6013,-1.6132,-2.4822,-2.4902,-2.4926,-2.4822,-2.4902,-2.5005,-2.5005,-2.5005,-2.5005,-2.5005,-2.5021,-2.5005,-2.5005,-2.5005,-2.5005,-2.5005,-2.5005,-2.5005,-2.5005,-2.5005,-2.5005,-2.5005,-2.5005,-2.5005,-2.5005,-2.5005,-2.4926,-2.4782,-2.4686,-2.4564,-2.4498,-2.4359,-2.4359,-2.4498,-2.4564,-2.4686,-2.4782,-2.4782,-2.4726,-2.4589,-2.4523,-2.44,-2.4302,-2.4302,-2.4302,-2.4302,-2.4302,-2.4302,-2.4302,-2.4302,-2.4302,-2.4177,-2.3683,-2.3509,-2.3422,-2.3171,-2.3082,-2.2805,-2.1407,-2.1003,-2.0738,-1.9587,-1.9748,-2.0377,-2.1186,-2.172,-2.225,-2.2788,-2.2873,-2.2873,-2.2873,-2.1802,-2.0922,-2.0907,-1.9706,-1.8784,-1.8784,-1.8784,-1.876,-1.8711,-1.8595,-1.84,-1.8202,-1.7895,-1.7557,-1.724,-1.7047,-1.6837,-1.6436,-1.6392,-1.6436,-1.6479,-1.6522,-1.6479,-1.6392,-1.6392,-1.6318,-1.62,-1.62,-1.62,-1.62,-1.62,-1.62,-1.62,-1.62,-1.62,-1.62,-1.62,-1.62,-1.62,-1.62,-1.62,-1.62,-1.62,-1.6275,-1.6392,-2.4926,-2.4966,-2.4966,-2.4926,-2.4966,-2.5005,-2.5005,-2.5005,-2.5005,-2.5005,-2.5005,-2.5005,-2.5005,-2.5005,-2.5005,-2.5005,-2.5005,-2.5005,-2.5005,-2.5005,-2.5005,-2.5005,-2.5005,-2.5005,-2.5005,-2.5005,-2.4966,-2.4942,-2.4886,-2.4806,-2.4701,-2.4661,-2.4661,-2.4701,-2.4806,-2.4886,-2.4942,-2.4942,-2.4926,-2.4846,-2.4742,-2.4701,-2.4645,-2.4549,-2.4508,-2.4508,-2.4508,-2.4564,-2.4645,-2.4564,-2.4564,-2.4564,-2.4276,-2.4024,-2.3769,-2.3466,-2.3378,-2.3053,-2.1645,-2.1252,-2.0984,-1.979,-1.999,-2.0679,-2.1426,-2.2381,-2.3024,-2.3038,-2.3037,-2.2992,-2.2947,-2.1845,-2.0961,-2.0961,-1.985,-1.8988,-1.8988,-1.8965,-1.8941,-1.8917,-1.875,-1.8595,-1.8439,-1.8189,-1.7949,-1.7706,-1.7557,-1.7269,-1.6791,-1.6765,-1.6837,-1.6976,-1.6989,-1.6934,-1.6795,-1.6778,-1.665,-1.6552,-1.6436,-1.6392,-1.6392,-1.6392,-1.6392,-1.6392,-1.6392,-1.6392,-1.6392,-1.6392,-1.6392,-1.6392,-1.6392,-1.6392,-1.6436,-1.6522,-1.665,-1.6748,-2.524,-2.524,-2.524,-2.524,-2.524,-2.524,-2.524,-2.524,-2.524,-2.524,-2.524,-2.524,-2.524,-2.524,-2.5146,-2.5005,-2.5005,-2.5005,-2.5005,-2.5005,-2.5005,-2.5005,-2.5005,-2.5005,-2.5005,-2.5005,-2.5005,-2.5005,-2.5005,-2.4966,-2.4862,-2.4862,-2.4862,-2.4902,-2.4966,-2.5005,-2.5005,-2.5005,-2.5005,-2.5005,-2.4902,-2.4862,-2.4862,-2.4766,-2.4751,-2.4751,-2.4751,-2.4806,-2.4862,-2.4766,-2.4806,-2.4862,-2.4661,-2.4457,-2.4234,-2.3839,-2.3726,-2.3355,-2.1932,-2.1535,-2.1262,-2.0049,-2.0287,-2.1061,-2.2003,-2.2987,-2.3596,-2.3319,-2.3246,-2.3128,-2.2746,-2.1856,-2.1067,-2.0819,-1.9846,-1.9176,-1.9176,-1.9078,-1.9017,-1.8993,-1.8879,-1.875,-1.862,-1.8478,-1.8268,-1.8069,-1.7962,-1.776,-1.7365,-1.7214,-1.7214,-1.7323,-1.7323,-1.7269,-1.7144,-1.7128,-1.7002,-1.6892,-1.6808,-1.6765,-1.6765,-1.6765,-1.6765,-1.6765,-1.6765,-1.6765,-1.6765,-1.6765,-1.6808,-1.685,-1.685,-1.685,-1.6892,-1.6976,-1.7102,-1.7199,-2.5788,-2.5788,-2.5788,-2.5788,-2.574,-2.5707,-2.5707,-2.5675,-2.5642,-2.5642,-2.5642,-2.5642,-2.5642,-2.5642,-2.5492,-2.5123,-2.5045,-2.5045,-2.5045,-2.5045,-2.5045,-2.5045,-2.5045,-2.5005,-2.5005,-2.5005,-2.5005,-2.5005,-2.5005,-2.5005,-2.5005,-2.5005,-2.5005,-2.5005,-2.5005,-2.5005,-2.5005,-2.5005,-2.5005,-2.5005,-2.5005,-2.5005,-2.5005,-2.5005,-2.5005,-2.5005,-2.5005,-2.5005,-2.5005,-2.5005,-2.5005,-2.4966,-2.4862,-2.4822,-2.4726,-2.4245,-2.4094,-2.372,-2.2264,-2.1807,-2.156,-2.0385,-2.0721,-2.1666,-2.2937,-2.3651,-2.3967,-2.3696,-2.3581,-2.3301,-2.2463,-2.1842,-2.1222,-2.0528,-1.9803,-1.9339,-1.9302,-1.9176,-1.9078,-1.9031,-1.8993,-1.8941,-1.8836,-1.8736,-1.862,-1.8344,-1.8344,-1.8226,-1.8042,-1.772,-1.7557,-1.7557,-1.7557,-1.7488,-1.7446,-1.7446,-1.7391,-1.724,-1.724,-1.724,-1.724,-1.724,-1.724,-1.724,-1.724,-1.724,-1.724,-1.724,-1.7323,-1.7434,-1.7434,-1.7475,-1.7516,-1.7516,-1.7598,-1.772,-2.7701,-2.7739,-2.7739,-2.7739,-2.7222,-2.6805,-2.6805,-2.6343,-2.5997,-2.5997,-2.5997,-2.5997,-2.5997,-2.5997,-2.5924,-2.5852,-2.5626,-2.5454,-2.5454,-2.5454,-2.5416,-2.5317,-2.5317,-2.5224,-2.5068,-2.5068,-2.5029,-2.5005,-2.5005,-2.5005,-2.5005,-2.5005,-2.5005,-2.5005,-2.5005,-2.5005,-2.5005,-2.5005,-2.5005,-2.5005,-2.5005,-2.5005,-2.5005,-2.5005,-2.5005,-2.5005,-2.5005,-2.5005,-2.5005,-2.5005,-2.5005,-2.5005,-2.4966,-2.4926,-2.4886,-2.4523,-2.44,-2.4066,-2.2578,-2.2171,-2.201,-2.126,-2.2081,-2.3235,-2.4008,-2.4292,-2.4317,-2.4036,-2.3925,-2.3643,-2.284,-2.2088,-2.1391,-2.0667,-1.999,-1.9501,-1.9376,-1.9302,-1.9228,-1.9078,-1.9017,-1.8993,-1.8941,-1.8851,-1.876,-1.8707,-1.8644,-1.8542,-1.8386,-1.8201,-1.8082,-1.8029,-1.8029,-1.7975,-1.7841,-1.7841,-1.7814,-1.7747,-1.7747,-1.7747,-1.7747,-1.7747,-1.7747,-1.7747,-1.7747,-1.7747,-1.7747,-1.7747,-1.7747,-1.7788,-1.7788,-1.7788,-1.7828,-1.7841,-1.7908,-1.7948,-2.8797,-2.8797,-2.8797,-2.8797,-2.8157,-2.7616,-2.7616,-2.6993,-2.6488,-2.6488,-2.6488,-2.6488,-2.6488,-2.6488,-2.6488,-2.6488,-2.6068,-2.5832,-2.5832,-2.5811,-2.5754,-2.568,-2.5605,-2.5476,-2.5339,-2.5262,-2.5185,-2.5139,-2.5139,-2.5139,-2.5139,-2.5162,-2.5201,-2.5201,-2.524,-2.5262,-2.5262,-2.5278,-2.5278,-2.5262,-2.5262,-2.524,-2.5201,-2.5201,-2.5162,-2.5139,-2.5139,-2.5084,-2.5045,-2.5045,-2.5045,-2.5005,-2.5005,-2.5005,-2.4966,-2.4782,-2.4701,-2.4324,-2.2901,-2.2512,-2.2403,-2.2139,-2.2932,-2.3904,-2.4585,-2.4701,-2.458,-2.4369,-2.4261,-2.3902,-2.2772,-2.2221,-2.1637,-2.0637,-2.0089,-1.9756,-1.9603,-1.9508,-1.9376,-1.9265,-1.9205,-1.9168,-1.9168,-1.9116,-1.9026,-1.8936,-1.8912,-1.8812,-1.8659,-1.8553,-1.8436,-1.8202,-1.8202,-1.8149,-1.8095,-1.8095,-1.8055,-1.8043,-1.8043,-1.8043,-1.8043,-1.8043,-1.8043,-1.8043,-1.8043,-1.8043,-1.8043,-1.8043,-1.8069,-1.8095,-1.8149,-1.8202,-1.8268,-1.8358,-1.8383,-1.8397,-2.9403,-2.9471,-2.954,-2.954,-2.8905,-2.8356,-2.8356,-2.7619,-2.707,-2.707,-2.707,-2.707,-2.707,-2.707,-2.707,-2.707,-2.659,-2.6298,-2.6245,-2.6173,-2.6154,-2.6118,-2.5957,-2.5811,-2.5717,-2.5567,-2.547,-2.541,-2.541,-2.541,-2.541,-2.547,-2.5492,-2.5492,-2.5605,-2.568,-2.568,-2.5659,-2.5659,-2.5663,-2.568,-2.5567,-2.5454,-2.5454,-2.5394,-2.5317,-2.5294,-2.524,-2.5146,-2.5146,-2.5084,-2.506,-2.506,-2.506,-2.506,-2.506,-2.4966,-2.4579,-2.3305,-2.2928,-2.2896,-2.3038,-2.3559,-2.4239,-2.4879,-2.4886,-2.4822,-2.467,-2.4527,-2.3996,-2.2631,-2.2284,-2.1769,-2.0539,-2.0166,-2.0025,-1.9874,-1.9762,-1.9611,-1.9487,-1.945,-1.945,-1.945,-1.945,-1.9376,-1.9176,-1.9139,-1.9064,-1.8898,-1.886,-1.8683,-1.8361,-1.8321,-1.8282,-1.8242,-1.8242,-1.8282,-1.8282,-1.8268,-1.8307,-1.8307,-1.8307,-1.8307,-1.8307,-1.8307,-1.8307,-1.8307,-1.8307,-1.8333,-1.8397,-1.8503,-1.862,-1.8711,-1.8798,-1.8784,-1.8784,-2.9832,-3.0196,-3.0647,-3.0647,-3.0023,-2.9553,-2.9553,-2.8337,-2.7434,-2.7434,-2.7434,-2.7434,-2.7434,-2.7434,-2.7434,-2.7434,-2.7355,-2.7149,-2.6891,-2.6858,-2.6791,-2.6691,-2.659,-2.6453,-2.6189,-2.5954,-2.5824,-2.5824,-2.5824,-2.5824,-2.5824,-2.5824,-2.5844,-2.5901,-2.5937,-2.5957,-2.6033,-2.6033,-2.6033,-2.6033,-2.5957,-2.5848,-2.5721,-2.5589,-2.5492,-2.5394,-2.5333,-2.5294,-2.5294,-2.5294,-2.524,-2.5256,-2.5256,-2.5256,-2.5256,-2.5256,-2.5256,-2.5003,-2.3986,-2.3711,-2.3711,-2.3749,-2.4286,-2.4879,-2.4974,-2.4966,-2.4966,-2.4926,-2.439,-2.3669,-2.287,-2.2186,-2.1424,-2.06,-2.0407,-2.0304,-2.022,-2.0061,-1.9884,-1.9767,-1.9675,-1.9654,-1.9654,-1.9654,-1.9632,-1.9538,-1.9413,-1.9339,-1.9228,-1.9101,-1.9026,-1.895,-1.8736,-1.8556,-1.8439,-1.8439,-1.8517,-1.8634,-1.8683,-1.8721,-1.8721,-1.8721,-1.8721,-1.8721,-1.8721,-1.8721,-1.8721,-1.8721,-1.8707,-1.8707,-1.876,-1.876,-1.8798,-1.8784,-1.8784,-1.8784,-3.0029,-3.0239,-3.0589,-3.0991,-3.0082,-2.9452,-2.9889,-2.8613,-2.76,-2.76,-2.76,-2.76,-2.76,-2.76,-2.76,-2.76,-2.76,-2.7522,-2.74,-2.7293,-2.7198,-2.7135,-2.6989,-2.6791,-2.6521,-2.6332,-2.6208,-2.6154,-2.6154,-2.6173,-2.6227,-2.6279,-2.6349,-2.6453,-2.6521,-2.6556,-2.6573,-2.6573,-2.6573,-2.6573,-2.6556,-2.6418,-2.6227,-2.6101,-2.5885,-2.5717,-2.5567,-2.5508,-2.5448,-2.5355,-2.5317,-2.5294,-2.5294,-2.5294,-2.5214,-2.483,-2.4702,-2.4623,-2.4175,-2.3787,-2.3501,-2.3501,-2.3756,-2.4089,-2.4471,-2.4264,-2.4105,-2.4487,-2.3973,-2.3201,-2.2505,-2.2055,-2.1563,-2.0771,-2.061,-2.0525,-2.0426,-2.0304,-2.0166,-2.0065,-2.0045,-2.001,-2.001,-2.001,-1.9975,-1.9884,-1.9777,-1.9705,-1.9566,-1.9457,-1.942,-1.942,-1.9055,-1.8841,-1.875,-1.8697,-1.8683,-1.876,-1.8798,-1.8784,-1.8784,-1.8784,-1.8784,-1.8784,-1.8784,-1.8784,-1.8784,-1.8784,-1.8784,-1.8822,-1.8889,-1.8889,-1.8927,-1.9026,-1.9064,-1.9064,-2.9579,-2.9702,-3.0001,-3.0562,-2.9685,-2.9105,-2.9737,-2.8614,-2.7701,-2.7701,-2.7701,-2.7701,-2.7701,-2.7701,-2.7701,-2.7701,-2.7701,-2.7701,-2.7701,-2.7569,-2.7465,-2.7465,-2.7293,-2.7103,-2.6858,-2.6724,-2.6624,-2.659,-2.659,-2.6607,-2.6674,-2.6774,-2.6756,-2.6667,-2.6764,-2.6742,-2.6588,-2.6588,-2.6673,-2.6828,-2.6796,-2.677,-2.6708,-2.6521,-2.6314,-2.6049,-2.5651,-2.5493,-2.5452,-2.5362,-2.5287,-2.5244,-2.546,-2.5395,-2.5115,-2.4514,-2.4354,-2.437,-2.442,-2.3935,-2.3423,-2.3423,-2.3243,-2.3259,-2.3818,-2.3515,-2.3275,-2.3834,-2.3371,-2.2681,-2.2102,-2.1863,-2.1528,-2.0889,-2.0744,-2.0677,-2.0595,-2.0509,-2.0457,-2.0407,-2.0373,-2.0339,-2.0339,-2.0339,-2.0304,-2.0185,-2.0131,-2.0045,-1.9909,-1.9854,-1.9833,-1.9833,-1.9339,-1.9093,-1.9055,-1.895,-1.8898,-1.8898,-1.8936,-1.8936,-1.8936,-1.8936,-1.8936,-1.8936,-1.8936,-1.8936,-1.8936,-1.8936,-1.8936,-1.895,-1.9055,-1.9093,-1.9107,-1.9317,-1.9376,-1.9376,-2.8017,-2.8473,-2.9018,-2.907,-2.8983,-2.893,-2.8983,-2.8263,-2.7701,-2.7701,-2.7701,-2.7701,-2.7701,-2.7701,-2.7701,-2.7701,-2.7701,-2.7701,-2.7701,-2.7701,-2.7672,-2.7672,-2.7539,-2.7434,-2.7341,-2.723,-2.7149,-2.7149,-2.7149,-2.7149,-2.7149,-2.7149,-2.6851,-2.6238,-2.6238,-2.5917,-2.5333,-2.5333,-2.5715,-2.637,-2.6298,-2.6561,-2.7021,-2.6758,-2.6556,-2.6248,-2.5359,-2.5058,-2.5041,-2.5041,-2.5023,-2.5139,-2.5919,-2.562,-2.5007,-2.4888,-2.4783,-2.4841,-2.5137,-2.4686,-2.4122,-2.4122,-2.361,-2.3096,-2.3159,-2.3127,-2.3112,-2.3159,-2.2636,-2.2141,-2.2007,-2.1434,-2.094,-2.0827,-2.0794,-2.0794,-2.0794,-2.0711,-2.0693,-2.066,-2.0577,-2.0494,-2.0494,-2.0494,-2.0475,-2.0373,-2.0388,-2.0354,-2.027,-2.027,-2.027,-2.027,-1.9669,-1.9325,-1.9184,-1.925,-1.9265,-1.9265,-1.9339,-1.9376,-1.9376,-1.9376,-1.9376,-1.9376,-1.9376,-1.9376,-1.9376,-1.9376,-1.9376,-1.9376,-1.9391,-1.9391,-1.9391,-1.9538,-1.9574,-1.9574,-2.7754,-2.7947,-2.8315,-2.8807,-2.8491,-2.8315,-2.8825,-2.821,-2.7701,-2.7701,-2.7701,-2.7701,-2.7701,-2.7701,-2.7701,-2.7701,-2.7701,-2.7701,-2.7701,-2.7701,-2.7701,-2.7701,-2.7642,-2.76,-2.7526,-2.7478,-2.7417,-2.7386,-2.7386,-2.7174,-2.6753,-2.6753,-2.6411,-2.5701,-2.5701,-2.5544,-2.531,-2.531,-2.5495,-2.5792,-2.6243,-2.6521,-2.6649,-2.7009,-2.6666,-2.5979,-2.5513,-2.5012,-2.4562,-2.453,-2.4497,-2.4547,-2.488,-2.468,-2.4365,-2.4315,-2.3968,-2.3753,-2.4272,-2.4151,-2.3772,-2.3318,-2.267,-2.2281,-2.2702,-2.2475,-2.2297,-2.2652,-2.2167,-2.1649,-2.1503,-2.123,-2.0974,-2.0877,-2.0827,-2.0794,-2.0794,-2.0761,-2.0777,-2.0777,-2.0728,-2.0695,-2.0695,-2.0695,-2.0662,-2.0628,-2.061,-2.0577,-2.0559,-2.0475,-2.0426,-2.0426,-2.0166,-1.994,-1.9767,-1.966,-1.9588,-1.9588,-1.9603,-1.9581,-1.9581,-1.9581,-1.9581,-1.9581,-1.9581,-1.9581,-1.9581,-1.9581,-1.9581,-1.9581,-1.9581,-1.9603,-1.9675,-1.9812,-1.9884,-1.9904,-2.7701,-2.7701,-2.7877,-2.8421,-2.807,-2.7877,-2.8438,-2.8052,-2.7701,-2.7701,-2.7701,-2.7701,-2.7701,-2.7701,-2.7701,-2.7701,-2.7701,-2.7701,-2.7701,-2.7701,-2.7701,-2.7701,-2.7701,-2.7672,-2.763,-2.763,-2.76,-2.7569,-2.7569,-2.7215,-2.6527,-2.6527,-2.5995,-2.505,-2.505,-2.491,-2.4682,-2.4682,-2.4822,-2.5103,-2.5665,-2.5915,-2.6045,-2.6514,-2.6226,-2.5527,-2.5169,-2.4652,-2.415,-2.4076,-2.4076,-2.4096,-2.4349,-2.4168,-2.3823,-2.3543,-2.3262,-2.3112,-2.3333,-2.3486,-2.339,-2.2816,-2.2145,-2.1704,-2.2179,-2.1917,-2.172,-2.2132,-2.1775,-2.1371,-2.1262,-2.1199,-2.1087,-2.099,-2.0925,-2.0876,-2.0876,-2.0876,-2.0876,-2.0876,-2.0876,-2.0876,-2.0876,-2.0876,-2.0876,-2.0811,-2.0794,-2.0744,-2.0744,-2.0628,-2.0595,-2.0595,-2.0543,-2.0475,-2.0308,-2.01,-1.9945,-1.9945,-1.9889,-1.9904,-1.9904,-1.9904,-1.9904,-1.9904,-1.9904,-1.9904,-1.9904,-1.9904,-1.9904,-1.9904,-1.9904,-1.9925,-1.998,-2.0096,-2.0166,-2.0185,-2.7701,-2.7701,-2.7701,-2.7701,-2.7701,-2.7701,-2.7701,-2.7701,-2.7701,-2.7701,-2.7701,-2.7701,-2.7701,-2.7701,-2.7701,-2.7701,-2.7701,-2.7701,-2.7701,-2.7701,-2.7701,-2.7701,-2.7701,-2.7701,-2.7701,-2.7683,-2.7683,-2.7683,-2.7683,-2.7297,-2.6595,-2.6595,-2.5752,-2.4304,-2.4304,-2.3839,-2.3095,-2.3095,-2.3558,-2.4304,-2.4304,-2.4708,-2.5292,-2.5216,-2.5177,-2.4971,-2.4091,-2.3788,-2.3788,-2.3788,-2.3788,-2.3908,-2.4655,-2.4293,-2.3454,-2.272,-2.2932,-2.3224,-2.2496,-2.2743,-2.3134,-2.2859,-2.2176,-2.162,-2.162,-2.162,-2.162,-2.1589,-2.1495,-2.1386,-2.1309,-2.1262,-2.1183,-2.1103,-2.1103,-2.1119,-2.1119,-2.1119,-2.1119,-2.1119,-2.1119,-2.1119,-2.1119,-2.1119,-2.1054,-2.0893,-2.0893,-2.0861,-2.0794,-2.0794,-2.0794,-2.0794,-2.0794,-2.0794,-2.0794,-2.046,-2.0304,-2.0304,-2.0304,-2.0304,-2.0304,-2.0304,-2.0304,-2.0304,-2.0304,-2.0304,-2.0304,-2.0304,-2.0304,-2.0304,-2.0304,-2.0304,-2.0304,-2.0388,-2.0388,-2.0423,-2.7701,-2.7701,-2.7701,-2.7701,-2.7701,-2.7701,-2.7701,-2.7701,-2.7701,-2.7701,-2.7701,-2.7701,-2.7701,-2.7701,-2.7701,-2.7701,-2.7701,-2.7701,-2.7701,-2.7701,-2.7701,-2.7701,-2.7701,-2.7701,-2.7701,-2.7192,-2.6929,-2.6929,-2.6367,-2.57,-2.498,-2.498,-2.4436,-2.347,-2.347,-2.333,-2.3095,-2.3095,-2.3242,-2.3506,-2.405,-2.4418,-2.4638,-2.5154,-2.4978,-2.4435,-2.4164,-2.3676,-2.3172,-2.3172,-2.3172,-2.3206,-2.3352,-2.3256,-2.3005,-2.2728,-2.2777,-2.287,-2.2647,-2.2679,-2.2711,-2.2442,-2.2141,-2.1899,-2.1899,-2.1899,-2.1869,-2.1811,-2.1721,-2.1661,-2.1631,-2.1573,-2.1466,-2.1466,-2.1356,-2.1277,-2.123,-2.123,-2.123,-2.123,-2.123,-2.123,-2.123,-2.123,-2.123,-2.1183,-2.1183,-2.1183,-2.1151,-2.1151,-2.1151,-2.1151,-2.1103,-2.1071,-2.1071,-2.0744,-2.0592,-2.0592,-2.0509,-2.0509,-2.0592,-2.0592,-2.061,-2.0662,-2.0662,-2.0662,-2.0662,-2.0662,-2.0662,-2.0662,-2.0662,-2.0695,-2.0712,-2.0745,-2.081,-2.0907,-2.7701,-2.7701,-2.7789,-2.8122,-2.7912,-2.7806,-2.8122,-2.7894,-2.7701,-2.7701,-2.7748,-2.7795,-2.7795,-2.7806,-2.7806,-2.7777,-2.773,-2.7701,-2.7701,-2.7701,-2.7701,-2.7701,-2.7701,-2.7701,-2.7701,-2.6981,-2.6613,-2.6613,-2.5805,-2.5173,-2.4717,-2.4444,-2.4058,-2.3558,-2.3242,-2.3095,-2.3095,-2.3095,-2.3095,-2.313,-2.3628,-2.3821,-2.3857,-2.4331,-2.4182,-2.3753,-2.3753,-2.343,-2.2995,-2.2995,-2.2995,-2.297,-2.2944,-2.2893,-2.2868,-2.2842,-2.2816,-2.279,-2.279,-2.2738,-2.2632,-2.2497,-2.2287,-2.213,-2.2101,-2.2118,-2.2118,-2.2061,-2.2237,-2.2391,-2.2391,-2.2551,-2.2675,-2.2675,-2.2566,-2.2503,-2.2456,-2.2162,-2.1982,-2.1982,-2.1751,-2.157,-2.157,-2.157,-2.1685,-2.1933,-2.1935,-2.1935,-2.1935,-2.1642,-2.1495,-2.1464,-2.1419,-2.1388,-2.1309,-2.1119,-2.0958,-2.0859,-2.081,-2.081,-2.0892,-2.0924,-2.0958,-2.1039,-2.1039,-2.1039,-2.1071,-2.1071,-2.1071,-2.1039,-2.1039,-2.1039,-2.1071,-2.1071,-2.1087,-2.1183,-2.7865,-2.7918,-2.82,-2.8938,-2.8393,-2.8112,-2.882,-2.824,-2.776,-2.776,-2.7853,-2.7917,-2.7917,-2.7986,-2.7986,-2.7917,-2.7795,-2.7701,-2.7701,-2.7701,-2.7701,-2.7701,-2.7631,-2.7596,-2.7596,-2.6946,-2.6613,-2.6613,-2.5805,-2.5401,-2.5384,-2.4699,-2.4409,-2.4374,-2.3558,-2.3225,-2.3207,-2.3137,-2.3095,-2.3095,-2.3095,-2.3095,-2.3095,-2.3095,-2.3095,-2.3095,-2.3095,-2.3095,-2.3095,-2.3095,-2.3095,-2.3095,-2.3095,-2.307,-2.302,-2.302,-2.297,-2.2919,-2.2919,-2.292,-2.2929,-2.292,-2.2787,-2.262,-2.2485,-2.2423,-2.2457,-2.2525,-2.3021,-2.3431,-2.346,-2.3958,-2.4334,-2.4334,-2.4305,-2.4258,-2.4258,-2.3625,-2.3159,-2.3159,-2.2618,-2.2257,-2.2257,-2.2257,-2.2497,-2.3106,-2.3095,-2.3048,-2.2981,-2.2335,-2.1893,-2.1784,-2.1768,-2.1691,-2.1568,-2.1568,-2.1417,-2.1135,-2.1215,-2.1247,-2.1247,-2.1325,-2.1402,-2.1448,-2.1448,-2.1493,-2.1538,-2.1538,-2.1524,-2.1448,-2.1448,-2.1433,-2.1371,-2.1371,-2.1371,-2.1371,-2.9045,-2.9543,-3.0024,-3.0202,-2.9579,-2.9098,-2.9247,-2.8607,-2.8091,-2.8091,-2.8136,-2.8136,-2.8136,-2.8164,-2.8136,-2.8071,-2.7929,-2.7795,-2.7701,-2.7701,-2.7701,-2.7701,-2.7214,-2.6898,-2.6898,-2.6711,-2.6613,-2.6613,-2.5805,-2.5401,-2.5401,-2.5243,-2.5156,-2.5121,-2.4366,-2.4058,-2.4005,-2.3383,-2.3095,-2.3095,-2.3095,-2.3095,-2.3095,-2.3095,-2.3095,-2.3095,-2.3095,-2.3095,-2.3095,-2.3095,-2.3095,-2.3095,-2.3095,-2.3095,-2.3095,-2.3095,-2.307,-2.307,-2.307,-2.3508,-2.3955,-2.3929,-2.4286,-2.4483,-2.3719,-2.3553,-2.3725,-2.431,-2.4494,-2.4567,-2.4626,-2.4704,-2.4778,-2.4778,-2.4765,-2.4735,-2.4675,-2.4539,-2.439,-2.439,-2.4283,-2.4211,-2.4211,-2.4211,-2.4249,-2.4403,-2.439,-2.4117,-2.3476,-2.3306,-2.2937,-2.2349,-2.2226,-2.2136,-2.2051,-2.201,-2.1777,-2.1417,-2.1448,-2.1509,-2.1678,-2.1678,-2.1751,-2.1882,-2.1882,-2.1882,-2.1895,-2.1895,-2.1866,-2.1882,-2.1882,-2.1853,-2.1853,-2.1853,-2.1853,-2.1853,-2.951,-3.0137,-3.0704,-3.0657,-3.0012,-2.9492,-2.9446,-2.8783,-2.8309,-2.8309,-2.8309,-2.8335,-2.8335,-2.8362,-2.8353,-2.8246,-2.8126,-2.7996,-2.7933,-2.7933,-2.7933,-2.7933,-2.7589,-2.7422,-2.7449,-2.7422,-2.6994,-2.6153,-2.5428,-2.5437,-2.6162,-2.5791,-2.5826,-2.6074,-2.5332,-2.4953,-2.4822,-2.4048,-2.3689,-2.3628,-2.326,-2.3095,-2.3095,-2.3095,-2.3095,-2.3095,-2.3095,-2.3095,-2.3095,-2.3095,-2.3095,-2.3095,-2.3095,-2.3095,-2.3095,-2.3095,-2.3095,-2.319,-2.3576,-2.3962,-2.4366,-2.469,-2.5049,-2.5187,-2.4639,-2.4524,-2.4629,-2.5027,-2.538,-2.5611,-2.5669,-2.5935,-2.6147,-2.6147,-2.6117,-2.6087,-2.6057,-2.57,-2.5459,-2.5459,-2.5178,-2.4982,-2.4982,-2.5328,-2.5552,-2.5552,-2.5552,-2.538,-2.4965,-2.424,-2.3643,-2.3227,-2.3148,-2.3076,-2.3021,-2.3335,-2.3362,-2.3156,-2.2258,-2.2107,-2.2605,-2.2269,-2.2203,-2.2298,-2.2298,-2.2298,-2.2326,-2.2326,-2.2326,-2.2298,-2.2298,-2.2271,-2.226,-2.226,-2.226,-2.2215,-2.9909,-3.0677,-3.1255,-3.1064,-3.0414,-2.9854,-2.9638,-2.8979,-2.8518,-2.8518,-2.8543,-2.8587,-2.8587,-2.8612,-2.8587,-2.8458,-2.8327,-2.8255,-2.8228,-2.8228,-2.8228,-2.8228,-2.8103,-2.8085,-2.8138,-2.8038,-2.7394,-2.6142,-2.5593,-2.6,-2.7227,-2.6609,-2.6637,-2.713,-2.6356,-2.5948,-2.5729,-2.4969,-2.4554,-2.4327,-2.3633,-2.3298,-2.3168,-2.3168,-2.3168,-2.3168,-2.3168,-2.3168,-2.3168,-2.3168,-2.3168,-2.3144,-2.3144,-2.3144,-2.3119,-2.3119,-2.3207,-2.3453,-2.4128,-2.4497,-2.4822,-2.5454,-2.57,-2.576,-2.5649,-2.5534,-2.5481,-2.5603,-2.6161,-2.6615,-2.6615,-2.7121,-2.7539,-2.7539,-2.7496,-2.7465,-2.7465,-2.6892,-2.6474,-2.6474,-2.5976,-2.5638,-2.5638,-2.6231,-2.6615,-2.6615,-2.6615,-2.6563,-2.644,-2.522,-2.4425,-2.4249,-2.4232,-2.4205,-2.4123,-2.4746,-2.5109,-2.523,-2.3528,-2.309,-2.3745,-2.3055,-2.2784,-2.2848,-2.271,-2.2685,-2.2738,-2.2738,-2.2712,-2.2659,-2.2659,-2.2623,-2.2569,-2.2569,-2.2569,-2.2525,-3.1144,-3.2352,-3.3158,-3.2481,-3.1693,-3.0924,-3.0229,-2.9417,-2.8905,-2.8905,-2.8947,-2.8929,-2.8929,-2.8834,-2.8737,-2.8687,-2.8543,-2.844,-2.8388,-2.8388,-2.8388,-2.8388,-2.7749,-2.7446,-2.7519,-2.6949,-2.712,-2.8021,-2.7957,-2.8011,-2.8226,-2.8118,-2.8118,-2.8164,-2.7305,-2.6921,-2.6841,-2.6022,-2.5301,-2.4635,-2.4528,-2.4058,-2.3448,-2.3448,-2.3448,-2.3448,-2.3448,-2.3448,-2.3448,-2.3448,-2.3424,-2.336,-2.336,-2.3289,-2.3193,-2.3193,-2.3643,-2.4163,-2.4269,-2.5261,-2.6314,-2.642,-2.6929,-2.7385,-2.7356,-2.6865,-2.6602,-2.7233,-2.7444,-2.7514,-2.7514,-2.7601,-2.7672,-2.7672,-2.7672,-2.7672,-2.7672,-2.7584,-2.7514,-2.7514,-2.7426,-2.7356,-2.7356,-2.7461,-2.7514,-2.7514,-2.7514,-2.7251,-2.6619,-2.6391,-2.5953,-2.5224,-2.5189,-2.5162,-2.5108,-2.5212,-2.5614,-2.6295,-2.5314,-2.4893,-2.4867,-2.4123,-2.3831,-2.385,-2.3146,-2.285,-2.285,-2.285,-2.2868,-2.2868,-2.2868,-2.285,-2.2842,-2.2842,-2.2816,-2.2764,-3.1621,-3.2915,-3.3635,-3.2379,-3.1861,-3.1177,-2.9902,-2.9403,-2.9181,-2.9181,-2.9181,-2.9181,-2.9181,-2.9075,-2.9007,-2.8966,-2.8897,-2.8808,-2.8785,-2.8785,-2.8785,-2.8785,-2.8484,-2.8324,-2.8393,-2.8128,-2.8254,-2.8902,-2.8341,-2.8306,-2.8737,-2.8737,-2.8718,-2.8651,-2.8239,-2.8001,-2.7897,-2.7054,-2.6188,-2.541,-2.498,-2.4311,-2.3553,-2.3553,-2.3553,-2.3553,-2.3553,-2.3553,-2.3553,-2.3553,-2.3553,-2.3508,-2.3504,-2.3458,-2.3501,-2.3868,-2.4215,-2.465,-2.5464,-2.6206,-2.6813,-2.7282,-2.7635,-2.7864,-2.7864,-2.7617,-2.7448,-2.766,-2.7701,-2.7701,-2.7701,-2.7701,-2.7701,-2.7701,-2.7701,-2.7701,-2.7701,-2.7701,-2.7701,-2.7701,-2.7701,-2.7701,-2.7701,-2.7701,-2.7701,-2.7701,-2.7701,-2.7561,-2.7227,-2.6823,-2.6455,-2.6086,-2.6086,-2.6058,-2.603,-2.6416,-2.6801,-2.7151,-2.6801,-2.6387,-2.5911,-2.5125,-2.4576,-2.4182,-2.3832,-2.3422,-2.302,-2.302,-2.302,-2.302,-2.302,-2.302,-2.302,-2.302,-2.2977,-2.297]},{"header":{"parameterUnit":"m.s-1","parameterCategory":1,"la1":30.6,"la2":28.766,"lo1":-90.7593,"lo2":-88.6598,"dy":0.0162,"dx":0.0183,"nx":116,"ny":114,"refTime":"2023-08-11T18:00:00:Z","depth":0,"parameterNumber":3,"parameterNumberName":"V-component_of_WINDS"},"data":[0.0,0.0,0.0,0.0,0.0,0.0,0.0,0.0,0.0,0.0,0.0,0.0,0.0,0.0,0.0,0.0,0.0,0.0,0.0,0.0,0.0,0.0,0.0,0.0,0.0,0.0,0.0,0.0,0.0,0.0,0.0,0.0,0.0,0.0,0.0,0.0,0.0,0.0,0.0,0.0,0.0,0.0,0.0,0.0,0.0,0.0,0.0,0.0,0.0,0.0,0.0,0.0,0.0,0.0,0.0,0.0,0.0,0.0,0.0,0.0,0.0,0.0,0.0,0.0,0.0,0.0,0.0,0.0,0.0,0.0,0.0,0.0,0.0,0.0,0.0,0.0,0.0,0.0,0.0,0.0,0.0,0.0,0.0,0.0,0.0,0.0,0.0,0.0,0.0,0.0,0.0,0.0,0.0,0.0,0.0,0.0,0.0,0.0,0.0,0.0,0.0,0.0,0.0,0.0,0.0,0.0,0.0,0.0,0.0,0.0,0.0,0.0,0.0,0.0,0.0,0.0,0.0,0.0,0.0,0.0,0.0,0.0,0.0,0.0,0.0,0.0,0.0,0.0,0.0,0.0,0.0,0.0,0.0,0.0,0.0,0.0,0.0,0.0,0.0,0.0,0.0,0.0,0.0,0.0,0.0,0.0,0.0,0.0,0.0,0.0,0.0,0.0,0.0,0.0,0.0,0.0,0.0,0.0,0.0,0.0,0.0,0.0,0.0,0.0,0.0,0.0,0.0,0.0,0.0,0.0,0.0,0.0,0.0,0.0,0.0,0.0,0.0,0.0,0.0,0.0,0.0,0.0,0.0,0.0,0.0,0.0,0.0,0.0,0.0,0.0,0.0,0.0,0.0,0.0,0.0,0.0,0.0,0.0,0.0,0.0,0.0,0.0,0.0,0.0,0.0,0.0,0.0,0.0,0.0,0.0,0.0,0.0,0.0,0.0,0.0,0.0,0.0,0.0,0.0,0.0,0.0,0.0,0.0,0.0,0.0,0.0,0.0,0.0,0.0,0.0,0.0,0.0,0.0,0.0,0.0,0.0,0.0,0.0,0.0,0.0,0.0,0.0,0.0,0.0,0.0,0.0,0.0,0.0,0.0,0.0,0.0,0.0,0.0,0.0,0.0,0.0,0.0,0.0,0.0,0.0,0.0,0.0,0.0,0.0,0.0,0.0,0.0,0.0,0.0,0.0,0.0,0.0,0.0,0.0,0.0,0.0,0.0,0.0,0.0,0.0,0.0,0.0,0.0,0.0,0.0,0.0,0.0,0.0,0.0,0.0,0.0,0.0,0.0,0.0,0.0,0.0,0.0,0.0,0.0,0.0,0.0,0.0,0.0,0.0,0.0,0.0,0.0,0.0,0.0,0.0,0.0,0.0,0.0,0.0,0.0,0.0,0.0,0.0,0.0,0.0,0.0,0.0,0.0,0.0,0.0,0.0,0.0,0.0,0.0,0.0,0.0,0.0,0.0,0.0,0.0,0.0,0.0,0.0,0.0,0.0,0.0,0.0,0.0,0.0,0.0,0.0,0.0,0.0,0.0,0.0,0.0,0.0,0.0,0.0,0.0,0.0,0.0,0.0,0.0,0.0,0.0,0.0,0.0,0.0,0.0,0.0,0.0,0.0,0.0,0.0,0.0,0.0,0.0,0.0,0.0,0.0,0.0,0.0,0.0,0.0,0.0,0.0,0.0,0.0,0.0,0.0,0.0,0.0,0.0,0.0,0.0,0.0,0.0,0.0,0.0,0.0,0.0,0.0,0.0,0.0,0.0,0.0,0.0,0.0,0.0,0.0,0.0,0.0,0.0,0.0,0.0,0.0,0.0,0.0,0.0,0.0,0.0,0.0,0.0,0.0,0.0,0.0,0.0,0.0,0.0,0.0,0.0,0.0,0.0,0.0,0.0,0.0,0.0,0.0,0.0,0.0,0.0,0.0,0.0,0.0,0.0,0.0,0.0,0.0,0.0,0.0,0.0,0.0,0.0,0.0,0.0,0.0,0.0,0.0,0.0,0.0,0.0,0.0,0.0,0.0,0.0,0.0,0.0,0.0,0.0,0.0,0.0,0.0,0.0,0.0,0.0,0.0,0.0,0.0,0.0,0.0,0.0,0.0,0.0,0.0,0.0,0.0,0.0,0.0,0.0,0.0,0.0,0.0,0.0,0.0,0.0,0.0,0.0,0.0,0.0,0.0,0.0,0.0,0.0,0.0,0.0,0.0,0.0,0.0,0.0,0.0,0.0,0.0,0.0,0.0,0.0,0.0,0.0,0.0,0.0,0.0,0.0,0.0,0.0,0.0,0.0,0.0,0.0,0.0,0.0,0.0,0.0,0.0,0.0,0.0,0.0,0.0,0.0,0.0,0.0,0.0,0.0,0.0,0.0,0.0,0.0,0.0,0.0,0.0,0.0,0.0,0.0,0.0,0.0,0.0,0.0,0.0,0.0,0.0,0.0,0.0,0.0,0.0,0.0,0.0,0.0,0.0,0.0,0.0,0.0,0.0,0.0,0.0,0.0,0.0,0.0,0.0,0.0,0.0,0.0,0.0,0.0,0.0,0.0,0.0,0.0,0.0,0.0,0.0,0.0,0.0,0.0,0.0,0.0,0.0,0.0,0.0,0.0,0.0,0.0,0.0,0.0,0.0,0.0,0.0,0.0,0.0,0.0,0.0,0.0,0.0,0.0,0.0,0.0,0.0,0.0,0.0,0.0,0.0,0.0,0.0,0.0,0.0,0.0,0.0,0.0,0.0,0.0,0.0,0.0,0.0,0.0,0.0,0.0,0.0,0.0,0.0,0.0,0.0,0.0,0.0,0.0,0.0,0.0,0.0,0.0,0.0,0.0,0.0,0.0,0.0,0.0,0.0,0.0,0.0,0.0,0.0,0.0,0.0,0.0,0.0,0.0,0.0,0.0,0.0,0.0,0.0,0.0,0.0,0.0,0.0,0.0,0.0,0.0,0.0,0.0,0.0,0.0,0.0,0.0,0.0,0.0,0.0,0.0,0.0,0.0,0.0,0.0,0.0,0.0,0.0,0.0,0.0,0.0,0.0,0.0,0.0,0.0,0.0,0.0,0.0,0.0,0.0,0.0,0.0,0.0,0.0,0.0,0.0,0.0,0.0,0.0,0.0,0.0,0.0,0.0,0.0,0.0,0.0,0.0,0.0,0.0,0.0,0.0,0.0,0.0,0.0,0.0,0.0,0.0,0.0,0.0,0.0,0.0,0.0,0.0,0.0,0.0,0.0,0.0,0.0,0.0,0.0,0.0,0.0,0.0,0.0,0.0,0.0,0.0,0.0,0.0,0.0,0.0,0.0,0.0,0.0,0.0,0.0,0.0,0.0,0.0,0.0,0.0,0.0,0.0,0.0,0.0,0.0,0.0,0.0,0.0,0.0,0.0,0.0,0.0,0.0,0.0,0.0,0.0,0.0,0.0,0.0,0.0,0.0,0.0,0.0,0.0,0.0,0.0,0.0,0.0,0.0,0.0,0.0,0.0,0.0,0.0,0.0,0.0,0.0,0.0,0.0,0.0,0.0,0.0,0.0,0.0,0.0,0.0,0.0,0.0,0.0,0.0,0.0,0.0,0.0,0.0,0.0,0.0,0.0,0.0,0.0,0.0,0.0,0.0,0.0,0.0,0.0,0.0,0.0,0.0,0.0,0.0,0.0,0.0,0.0,0.0,0.0,0.0,0.0,0.0,0.0,0.0,0.0,0.0,0.0,0.0,0.0,0.0,0.0,0.0,0.0,0.0,0.0,0.0,0.0,0.0,0.0,0.0,0.0,0.0,0.0,0.0,0.0,0.0,0.0,0.0,0.0,0.0,0.0,0.0,0.0,0.0,0.0,0.0,0.0,0.0,0.0,0.0,0.0,0.0,0.0,0.0,0.0,0.0,0.0,0.0,0.0,0.0,0.0,0.0,0.0,0.0,0.0,0.0,0.0,0.0,0.0,0.0,0.0,0.0,0.0,0.0,0.0,0.0,0.0,0.0,0.0,0.0,0.0,0.0,0.0,0.0,0.0,0.0,0.0,0.0,0.0,0.0,0.0,0.0,0.0,0.0,0.0,0.0,0.0,0.0,0.0,0.0,0.0,0.0,0.0,0.0,0.0,0.0,0.0,0.0,0.0,0.0,0.0,0.0,0.0,0.0,0.0,0.0,0.0,0.0,0.0,0.0,0.0,0.0,0.0,0.0,0.0,0.0,0.0,0.0,0.0,0.0,0.0,0.0,0.0,0.0,0.0,0.0,0.0,0.0,0.0,0.0,0.0,0.0,0.0,0.0,0.0,0.0,0.0,0.0,0.0,0.0,0.0,0.0,0.0,0.0,0.0,0.0,0.0,0.0,0.0,0.0,0.0,0.0,0.0,0.0,0.0,0.0,0.0,0.0,0.0,0.0,0.0,0.0,0.0,0.0,0.0,0.0,0.0,0.0,0.0,0.0,0.0,0.0,0.0,0.0,0.0,0.0,0.0,0.0,0.0,0.0,0.0,0.0,0.0,0.0,0.0,0.0,0.0,0.0,0.0,0.0,0.0,0.0,0.0,0.0,0.0,0.0,0.0,0.0,0.0,0.0,0.0,0.0,0.0,0.0,0.0,0.0,0.0,0.0,0.0,0.0,0.0,0.0,0.0,0.0,0.0,0.0,0.0,0.0,0.0,0.0,0.0,0.0,0.0,0.0,0.0,0.0,0.0,0.0,0.0,0.0,0.0,0.0,0.0,0.0,0.0,0.0,0.0,0.0,0.0,0.0,0.0,0.0,0.0,0.0,0.0,0.0,0.0,0.0,0.0,0.0,0.0,0.0,0.0,0.0,0.0,0.0,0.0,0.0,0.0,0.0,0.0,0.0,0.0,0.0,0.0,0.0,0.0,0.0,0.0,0.0,0.0,0.0,0.0,0.0,0.0,0.0,0.0,0.0,0.0,0.0,0.0,0.0,0.0,0.0,0.0,0.0,0.0,0.0,0.0,0.0,0.0,0.0,0.0,0.0,0.0,0.0,0.0,0.0,0.0,0.0,0.0,0.0,0.0,0.0,0.0,0.0,0.0,0.0,0.0,0.0,0.0,0.0,0.0,0.0,0.0,0.0,0.0,0.0,0.0,0.0,0.0,0.0,0.0,0.0,0.0,0.0,0.0,0.0,0.0,0.0,0.0,0.0,0.0,0.0,0.0,0.0,0.0,0.0,0.0,0.0,0.0,0.0,0.0,0.0,0.0,0.0,0.0,0.0,0.0,0.0,0.0,0.0,0.0,0.0,0.0,0.0,0.0,0.0,0.0,0.0,0.0,0.0,0.0,0.0,0.0,0.0,0.0,0.0,0.0,0.0,0.0,0.0,0.0,0.0,0.0,0.0,0.0,0.0,0.0,0.0,0.0,0.0,0.0,0.0,0.0,0.0,0.0,0.0,0.0,0.0,0.0,0.0,0.0,0.0,0.0,0.0,0.0,0.0,0.0,0.0,0.0,0.0,0.0,0.0,0.0,0.0,0.0,0.0,0.0,0.0,0.0,0.0,0.0,0.0,0.0,0.0,0.0,0.0,0.0,0.0,0.0,0.0,0.0,0.0,0.0,0.0,0.0,0.0,0.0,0.0,0.0,0.0,0.0,0.0,0.0,0.0,0.0,0.0,0.0,0.0,0.0,0.0,0.0,0.0,0.0,0.0,0.0,0.0,0.0,0.0,0.0,0.0,0.0,0.0,0.0,0.0,0.0,0.0,0.0,0.0,0.0,0.0,0.0,0.0,0.0,0.0,0.0,0.0,0.0,0.0,0.0,0.0,0.0,0.0,0.0,0.0,0.0,0.0,0.0,0.0,0.0,0.0,0.0,0.0,0.0,0.0,0.0,0.0,0.0,0.0,0.0,0.0,0.0,0.0,0.0,0.0,0.0,0.0,0.0,0.0,0.0,0.0,0.0,0.0,0.0,0.0,0.0,0.0,0.0,0.0,0.0,0.0,0.0,0.0,0.0,0.0,0.0,0.0,0.0,0.0,0.0,0.0,0.0,0.0,0.0,0.0,0.0,0.0,0.0,0.0,0.0,0.0,0.0,0.0,0.0,0.0,0.0,0.0,0.0,0.0,0.0,0.0,0.0,0.0,0.0,-2.6072,-2.5511,0.0,0.0,0.0,0.0,0.0,0.0,0.0,0.0,0.0,0.0,0.0,0.0,0.0,0.0,0.0,0.0,0.0,0.0,0.0,0.0,0.0,0.0,0.0,0.0,0.0,0.0,0.0,0.0,0.0,0.0,0.0,0.0,0.0,0.0,0.0,0.0,0.0,0.0,0.0,0.0,0.0,0.0,0.0,0.0,0.0,0.0,0.0,0.0,0.0,0.0,0.0,0.0,0.0,0.0,0.0,0.0,0.0,0.0,0.0,0.0,0.0,0.0,0.0,0.0,0.0,0.0,0.0,0.0,0.0,0.0,0.0,0.0,0.0,0.0,0.0,0.0,0.0,0.0,0.0,0.0,0.0,0.0,0.0,0.0,0.0,0.0,0.0,0.0,0.0,0.0,0.0,0.0,0.0,0.0,0.0,0.0,0.0,0.0,0.0,0.0,0.0,0.0,0.0,0.0,0.0,0.0,0.0,0.0,0.0,0.0,0.0,0.0,0.0,0.0,-2.7793,-2.6691,0.0,0.0,0.0,0.0,0.0,0.0,0.0,0.0,0.0,0.0,0.0,0.0,0.0,0.0,0.0,0.0,0.0,0.0,0.0,0.0,0.0,0.0,0.0,0.0,0.0,0.0,0.0,0.0,0.0,0.0,0.0,0.0,0.0,0.0,0.0,0.0,0.0,0.0,0.0,0.0,0.0,0.0,0.0,0.0,0.0,0.0,0.0,0.0,0.0,0.0,0.0,0.0,0.0,0.0,0.0,0.0,0.0,0.0,0.0,0.0,0.0,0.0,0.0,0.0,0.0,0.0,0.0,0.0,0.0,0.0,0.0,0.0,0.0,0.0,0.0,0.0,0.0,0.0,0.0,0.0,0.0,0.0,0.0,0.0,0.0,0.0,0.0,0.0,0.0,0.0,0.0,0.0,0.0,0.0,0.0,0.0,0.0,0.0,0.0,0.0,0.0,0.0,0.0,0.0,0.0,0.0,0.0,0.0,-3.1971,-3.2783,-3.2938,-3.3662,-3.3991,-3.3817,-3.1004,-2.934,-2.8644,-2.8509,0.0,0.0,0.0,0.0,0.0,0.0,0.0,0.0,0.0,0.0,0.0,0.0,0.0,0.0,0.0,0.0,0.0,0.0,0.0,0.0,0.0,0.0,0.0,0.0,0.0,0.0,0.0,0.0,0.0,0.0,0.0,0.0,0.0,0.0,0.0,0.0,0.0,0.0,-2.6373,-2.6489,-2.6962,-2.7638,0.0,0.0,0.0,0.0,0.0,0.0,0.0,0.0,0.0,0.0,0.0,0.0,0.0,0.0,0.0,0.0,0.0,0.0,0.0,0.0,0.0,0.0,0.0,0.0,0.0,0.0,0.0,0.0,0.0,0.0,0.0,0.0,0.0,0.0,0.0,0.0,0.0,0.0,0.0,0.0,0.0,0.0,0.0,0.0,-2.5518,-2.5577,0.0,0.0,0.0,0.0,0.0,0.0,0.0,0.0,0.0,0.0,0.0,0.0,0.0,-2.9717,-3.1275,-3.2164,-3.3363,-3.4872,-3.5781,-3.6632,-3.7367,-3.7483,-3.7541,-3.7502,-3.7058,0.0,-3.1236,-3.0559,0.0,0.0,0.0,0.0,0.0,0.0,0.0,0.0,0.0,0.0,0.0,0.0,0.0,0.0,0.0,0.0,0.0,0.0,0.0,0.0,0.0,0.0,0.0,0.0,0.0,0.0,0.0,0.0,0.0,0.0,0.0,0.0,0.0,0.0,0.0,0.0,0.0,-2.597,-2.6721,-2.7696,-2.8625,-2.9495,-3.0056,-2.9437,-2.8014,-2.8122,0.0,0.0,0.0,0.0,0.0,0.0,0.0,0.0,0.0,0.0,0.0,0.0,0.0,0.0,0.0,0.0,0.0,0.0,0.0,0.0,0.0,0.0,0.0,0.0,0.0,0.0,0.0,0.0,0.0,0.0,0.0,0.0,0.0,0.0,0.0,0.0,0.0,0.0,0.0,-2.5965,-2.6248,-2.6268,-2.6645,-2.7055,0.0,0.0,0.0,0.0,0.0,0.0,0.0,0.0,0.0,-3.141,-3.2396,-3.346,-3.4659,-3.6013,-3.7077,-3.7851,-3.9141,-3.9973,-4.0346,-4.0804,-4.1036,-4.1061,-4.1036,-3.9689,-3.7351,-3.5074,-3.3073,-3.141,0.0,0.0,0.0,0.0,-3.0694,-3.1507,0.0,0.0,0.0,0.0,0.0,0.0,0.0,0.0,0.0,0.0,0.0,0.0,0.0,0.0,0.0,-1.8922,0.0,0.0,0.0,0.0,0.0,0.0,0.0,0.0,0.0,0.0,0.0,0.0,0.0,0.0,-2.7709,-2.9197,-3.0501,-3.1622,-3.3293,-3.228,-2.934,-2.9998,-2.9282,0.0,0.0,0.0,0.0,0.0,0.0,0.0,0.0,0.0,0.0,0.0,0.0,0.0,0.0,0.0,0.0,0.0,0.0,0.0,0.0,0.0,0.0,0.0,0.0,0.0,0.0,0.0,0.0,0.0,0.0,0.0,0.0,0.0,0.0,0.0,0.0,0.0,0.0,-2.6424,-2.6958,-2.7381,-2.7965,-2.8489,0.0,0.0,0.0,0.0,0.0,0.0,-3.1217,-3.2435,-3.3615,-3.4698,-3.5994,-3.7174,-3.8199,-3.9495,-4.0346,-4.081,-4.2273,-4.3085,-4.3324,-4.3916,-4.4244,-4.4258,-4.3965,-4.3376,-4.2372,-3.9155,-3.6598,-3.4665,-3.4191,-3.3399,-3.2559,-3.2916,-3.3766,-3.4801,0.0,0.0,0.0,0.0,0.0,0.0,0.0,0.0,0.0,0.0,0.0,0.0,0.0,0.0,-1.9842,-1.9936,-2.0638,-2.1093,0.0,0.0,0.0,0.0,0.0,0.0,0.0,0.0,0.0,0.0,0.0,0.0,0.0,0.0,-3.2494,-3.4202,-3.5881,-3.521,-3.285,-3.2889,-3.1952,-3.0269,0.0,0.0,0.0,0.0,0.0,0.0,0.0,0.0,0.0,0.0,0.0,0.0,0.0,0.0,0.0,0.0,0.0,0.0,0.0,0.0,0.0,0.0,0.0,0.0,0.0,0.0,0.0,0.0,0.0,0.0,0.0,0.0,0.0,0.0,0.0,0.0,0.0,0.0,0.0,-2.8988,-2.9223,0.0,0.0,0.0,0.0,-3.3944,-3.4118,-3.4833,-3.6439,-3.6593,-3.7425,-3.912,-3.9274,-4.0094,-4.1738,-4.1835,-4.2705,-4.4349,-4.52,-4.6032,-4.6844,-4.6883,-4.6907,-4.6862,-4.5963,-4.5086,-4.4075,-4.1465,-3.9893,-3.8896,-3.7198,-3.7005,-3.761,-3.6774,-3.7577,-3.9102,0.0,0.0,0.0,0.0,0.0,0.0,0.0,0.0,0.0,0.0,0.0,0.0,0.0,-1.9122,-2.0429,-2.1509,-2.1358,-2.1206,-2.1206,0.0,0.0,0.0,0.0,0.0,0.0,0.0,0.0,0.0,0.0,0.0,0.0,0.0,0.0,0.0,-3.8421,-3.8705,-3.7756,-3.6195,-3.424,-3.2115,-3.0917,-2.9282,0.0,0.0,0.0,0.0,0.0,0.0,0.0,0.0,0.0,0.0,0.0,0.0,0.0,0.0,0.0,0.0,0.0,0.0,0.0,0.0,0.0,0.0,0.0,0.0,0.0,0.0,0.0,0.0,0.0,0.0,0.0,0.0,0.0,0.0,0.0,0.0,0.0,-3.1555,-3.2251,0.0,-3.4195,-3.4775,-3.5336,-3.5955,-3.7038,-3.7928,-3.8528,-3.9591,-4.0462,-4.1081,-4.2202,-4.3324,-4.4427,-4.5007,-4.5877,-4.7038,-4.6757,-4.681,-4.7076,-4.6472,-4.621,-4.6179,-4.5753,-4.5376,-4.5015,-4.4518,-4.2965,-4.0803,-4.012,-3.972,-3.9544,-3.9778,-4.0274,-4.0886,0.0,0.0,0.0,0.0,0.0,0.0,0.0,0.0,0.0,0.0,0.0,-1.7151,-1.8543,-1.9993,-2.1396,-2.2779,-2.2381,-2.1926,-2.1661,0.0,0.0,0.0,0.0,0.0,0.0,0.0,0.0,0.0,0.0,0.0,0.0,0.0,0.0,0.0,0.0,-4.1238,-4.1142,-3.9565,-3.7288,-3.4627,-3.3214,-3.1284,-2.9157,0.0,0.0,0.0,0.0,0.0,0.0,0.0,0.0,0.0,0.0,0.0,0.0,0.0,0.0,0.0,0.0,0.0,0.0,0.0,0.0,0.0,0.0,0.0,0.0,0.0,0.0,0.0,0.0,0.0,0.0,0.0,0.0,0.0,0.0,0.0,-3.2609,-3.4601,-3.5588,-3.6458,-3.7328,-3.7889,-3.845,-3.903,-4.0133,-4.1158,-4.2009,-4.3111,-4.3866,-4.4156,-4.5278,-4.6148,-4.667,-4.725,-4.7831,-4.8392,-4.811,-4.7975,-4.7932,-4.7275,-4.6802,-4.6444,-4.6032,-4.5629,-4.5357,-4.5959,-4.4836,-4.2716,-4.2697,-4.2334,-4.1896,-4.2142,-4.2448,-4.2813,0.0,0.0,0.0,0.0,0.0,0.0,0.0,0.0,0.0,0.0,-1.6468,-1.7804,-1.86,-2.0979,-2.2817,-2.3632,-2.367,-2.3329,-2.2552,-2.1661,0.0,0.0,0.0,0.0,0.0,0.0,0.0,0.0,0.0,0.0,0.0,0.0,0.0,0.0,0.0,0.0,-4.2793,-4.2833,-4.1029,-3.7978,-3.5457,-3.345,-3.1765,0.0,0.0,0.0,0.0,0.0,0.0,0.0,0.0,0.0,0.0,0.0,0.0,0.0,0.0,0.0,0.0,0.0,0.0,0.0,0.0,0.0,0.0,0.0,0.0,0.0,0.0,0.0,0.0,0.0,0.0,0.0,0.0,0.0,-3.201,-3.3471,-3.5474,-3.8044,-3.9088,-3.9971,-4.0868,-4.0984,-4.1661,-4.3305,-4.344,-4.4543,-4.6999,-4.7134,-4.7521,-4.8372,-4.8392,-4.8411,-4.843,-4.843,-4.845,-4.8488,-4.932,-4.9656,-4.9586,-4.9517,-4.8911,-4.7934,-4.6946,-4.6015,-4.5175,-4.576,-4.5458,-4.4693,-4.4802,-4.4838,-4.4796,-4.3856,-4.4113,-4.4915,0.0,0.0,0.0,0.0,0.0,0.0,0.0,0.0,0.0,0.0,-1.6468,-1.7804,-1.86,-2.0979,-2.2817,-2.3632,-2.3158,-2.2741,-2.2514,0.0,0.0,0.0,0.0,0.0,0.0,0.0,0.0,0.0,0.0,0.0,0.0,0.0,0.0,0.0,0.0,0.0,-4.4405,-4.3838,-4.3099,-4.203,-3.9061,-3.6862,-3.5111,0.0,0.0,0.0,0.0,0.0,0.0,0.0,0.0,0.0,0.0,0.0,0.0,0.0,0.0,0.0,0.0,0.0,0.0,0.0,0.0,0.0,0.0,0.0,0.0,0.0,0.0,0.0,0.0,0.0,0.0,0.0,0.0,-3.5298,-3.4728,-3.6102,-3.8334,-4.1525,-4.2106,-4.2841,-4.4349,-4.5026,-4.5548,-4.6013,-4.6631,-4.7308,-4.8005,-4.8043,-4.814,-4.8392,-4.8392,-4.8701,-4.9339,-4.9339,-4.9633,-5.0201,-4.9814,-4.957,-4.9427,-4.874,-4.8163,-4.7769,-4.7376,-4.6662,-4.5855,-4.7127,-4.6431,-4.4607,-4.5218,-4.5141,-4.4655,-4.4376,-4.4485,-4.4777,0.0,0.0,0.0,0.0,0.0,0.0,0.0,0.0,0.0,0.0,-1.6468,-1.7804,-1.86,-2.0657,-2.2286,-2.312,-2.276,-2.2343,-2.1983,0.0,0.0,0.0,0.0,0.0,0.0,0.0,0.0,0.0,0.0,0.0,0.0,0.0,0.0,0.0,0.0,0.0,-4.5546,-4.5418,-4.5384,-4.522,-4.3042,-4.059,-3.8031,-3.5913,-3.4075,-3.248,-3.1313,-3.0327,-2.9534,-2.9205,0.0,0.0,0.0,0.0,0.0,0.0,0.0,0.0,0.0,0.0,0.0,0.0,0.0,0.0,0.0,0.0,0.0,0.0,0.0,0.0,0.0,0.0,0.0,0.0,-3.6845,-3.874,-3.934,-4.0268,-4.1874,-4.4562,-4.522,-4.5838,-4.6844,-4.7366,-4.7792,-4.8159,-4.8662,-4.9088,-4.9436,-4.9455,-4.9455,-4.9455,-4.9459,-4.9676,-5.0198,-5.0146,-5.0345,-5.081,-5.0236,-4.9913,-4.9759,-4.9175,-4.8602,-4.8047,-4.7908,-4.7257,-4.6403,-4.7226,-4.6518,-4.4972,0.0,0.0,0.0,0.0,-4.4551,-4.4578,0.0,0.0,0.0,0.0,0.0,0.0,0.0,0.0,0.0,0.0,0.0,-1.7766,-1.8486,-2.0134,-2.1509,-2.2286,-2.2343,-2.2021,0.0,0.0,0.0,0.0,0.0,0.0,0.0,0.0,0.0,0.0,0.0,0.0,0.0,0.0,0.0,0.0,0.0,0.0,-4.6241,-4.7055,-4.7448,-4.7441,-4.6706,-4.4241,-4.0778,-3.91,-3.7516,-3.5944,-3.427,-3.3102,-3.2261,-3.1449,0.0,0.0,0.0,0.0,0.0,0.0,0.0,0.0,0.0,0.0,0.0,0.0,0.0,0.0,0.0,0.0,0.0,0.0,0.0,0.0,0.0,0.0,0.0,0.0,-3.9649,-4.2222,-4.4678,-4.5123,-4.5742,-4.7212,-4.8082,-4.8585,-4.8662,-4.8682,-4.901,-4.9784,-4.9842,-5.0152,-5.0867,-5.089,0.0,0.0,0.0,-5.0863,-5.0883,-5.0757,-5.0664,-5.0644,-5.0527,-5.0404,-5.0252,-5.0193,-4.9594,-4.8598,-4.8455,-4.7838,-4.6937,-4.6893,-4.6345,-4.5581,-4.6178,-4.5567,-4.4314,-4.4383,-4.4411,-4.4411,0.0,0.0,0.0,0.0,0.0,0.0,0.0,0.0,0.0,-1.4921,-1.6385,-1.7482,-1.7633,-1.9774,-2.1282,-2.1434,-2.1453,-2.1377,0.0,0.0,0.0,0.0,0.0,0.0,0.0,0.0,0.0,0.0,0.0,0.0,0.0,0.0,0.0,0.0,0.0,0.0,0.0,-4.7055,-4.7397,-4.7403,-4.7252,-4.6031,-4.4191,-4.2563,-4.0976,-3.9408,-3.7739,-3.6598,-3.58,-3.4988,-3.3673,-3.2338,-3.2184,0.0,0.0,0.0,0.0,0.0,0.0,0.0,0.0,0.0,0.0,0.0,0.0,0.0,0.0,0.0,0.0,0.0,0.0,0.0,0.0,-4.0732,-4.315,-4.549,-4.7405,-4.8275,-4.8836,-4.9165,-4.9359,-4.9707,-5.0364,-5.0422,-5.05,-5.0674,-5.0674,-5.0751,-5.0906,-5.0913,-5.0897,-5.0897,-5.0793,-5.0701,-5.0663,-5.0586,-5.0466,-5.0317,-5.0275,0.0,-5.0044,-4.9868,-4.9636,-4.9284,-4.9171,-4.8615,-4.7815,-4.845,-4.777,-4.6251,-4.517,-4.4565,-4.4314,-4.443,-4.4487,-4.4487,0.0,0.0,0.0,0.0,0.0,0.0,0.0,0.0,0.0,0.0,-1.6017,-1.681,-1.681,-1.8324,-1.9509,-1.9907,-2.0353,0.0,0.0,0.0,0.0,0.0,0.0,0.0,0.0,0.0,0.0,0.0,0.0,0.0,0.0,0.0,0.0,0.0,0.0,0.0,0.0,-4.8117,-4.8647,-4.8609,-4.8211,-4.7384,-4.6233,-4.4648,-4.3349,-4.2143,-4.0077,-3.9103,-3.862,-3.7375,-3.6091,-3.493,-3.4524,-3.2938,-3.0946,0.0,0.0,0.0,0.0,0.0,0.0,0.0,0.0,0.0,0.0,0.0,0.0,0.0,0.0,-3.669,0.0,0.0,-4.1951,-4.3672,-4.5722,-4.756,-4.8875,-4.9765,-5.0306,-5.0306,-5.0306,-5.0461,-5.0867,-5.0906,-5.089,-5.0893,-5.0893,-5.0877,-5.0808,-5.081,-5.0775,-5.0701,-5.0567,-5.0467,-5.0404,-5.023,-5.0111,-5.0012,-4.991,-4.9795,-4.9712,-4.9577,-4.9427,-4.9308,-4.923,-4.8907,-4.8431,-4.8021,-4.7076,-4.5815,-4.4741,-4.4285,-4.4314,-4.4458,-4.4515,-4.4515,0.0,0.0,0.0,0.0,0.0,0.0,0.0,0.0,0.0,0.0,0.0,-1.6177,-1.6177,-1.6952,-1.7804,0.0,0.0,0.0,0.0,0.0,0.0,0.0,0.0,0.0,0.0,0.0,0.0,0.0,0.0,0.0,0.0,0.0,0.0,0.0,0.0,0.0,0.0,-4.8761,-4.9405,-4.9349,-4.8704,-4.7979,-4.7099,-4.57,-4.4764,-4.3865,-4.1617,-4.0747,-4.0436,-3.8755,-3.7723,-3.7046,-3.64,-3.5007,-3.3267,-3.1584,-2.9863,0.0,0.0,0.0,0.0,0.0,0.0,0.0,0.0,0.0,-3.582,-3.7348,-3.8605,-3.9978,-4.1699,-4.3401,-4.5104,-4.6825,-4.8256,-4.9378,-5.0059,-5.0581,-5.0874,-5.0858,-5.0874,-5.089,-5.0874,-5.0874,-5.0877,-5.0863,-5.0829,-5.0775,-5.0682,-5.0625,-5.0624,-5.0675,-5.0524,-5.0508,-5.0607,-5.035,-5.0137,-4.992,-4.9784,-4.9577,-4.9352,-4.9308,-4.9197,-4.9101,-4.9068,-4.8996,-4.8797,-4.733,-4.6252,-4.5486,-4.4785,-4.4434,-4.4314,-4.4458,-4.4515,-4.4515,0.0,0.0,0.0,0.0,0.0,0.0,0.0,0.0,0.0,0.0,0.0,0.0,0.0,0.0,0.0,0.0,0.0,0.0,0.0,0.0,0.0,0.0,0.0,0.0,0.0,0.0,0.0,0.0,0.0,0.0,0.0,0.0,0.0,0.0,0.0,0.0,0.0,0.0,-4.7681,-4.7662,-4.7567,-4.7055,-4.6247,-4.5352,-4.4636,-4.3886,-4.2194,-4.1162,-4.0347,-3.8737,-3.8143,-3.8047,-3.7955,-3.6767,-3.5065,-3.3325,0.0,-2.994,-2.8296,-2.8973,-3.0404,-3.141,-3.2822,-3.4427,0.0,0.0,-3.9197,-4.0172,-4.2241,-4.4407,-4.6071,-4.7811,-4.9533,-5.1215,-5.1641,-5.178,-5.1843,-5.125,-5.0793,-5.072,-5.0829,-5.088,-5.081,-5.0756,-5.072,-5.072,-5.0606,-5.0527,-5.0527,-5.0361,-5.0616,-5.1357,-5.1147,-5.1319,-5.1954,-5.1843,-5.1331,-5.0421,-5.0408,-4.9968,-4.9211,-4.915,-4.9101,-4.9101,-4.8962,-4.8909,-4.8834,-4.7924,-4.7088,-4.6271,-4.5549,-4.4878,-4.4314,-4.4458,-4.4515,-4.4515,0.0,0.0,0.0,0.0,0.0,0.0,0.0,0.0,0.0,0.0,0.0,0.0,0.0,0.0,0.0,0.0,0.0,0.0,0.0,0.0,0.0,0.0,0.0,0.0,0.0,0.0,0.0,0.0,0.0,0.0,0.0,0.0,0.0,0.0,0.0,0.0,0.0,0.0,-4.7318,-4.7307,-4.6833,-4.6158,-4.5293,-4.399,-4.2449,-4.094,-4.0346,-3.932,0.0,0.0,-3.6324,-3.6021,-3.654,-3.5855,-3.4657,-3.345,-3.1913,0.0,-2.9708,-3.0385,-3.1855,0.0,-3.6071,-3.7928,-4.0133,-4.1932,-4.3556,-4.4929,-4.6477,-4.8082,-4.9765,-5.0654,-5.1544,0.0,-5.2531,-5.2186,-5.2101,-5.1333,-5.049,-4.9854,-4.9777,-5.0009,-5.0568,-5.0527,-5.0446,-5.0404,-5.0275,-5.0164,-5.0111,-5.0399,-5.073,-5.1026,-5.1382,-5.1694,-5.1957,-5.1813,-5.1491,-5.1087,-5.0514,-5.0089,-4.9738,-4.9219,-4.8996,-4.8962,-4.8909,-4.8909,-4.8834,-4.8036,-4.7237,-4.642,-4.568,-4.4941,-4.4274,-4.4401,-4.4487,-4.4515,0.0,0.0,0.0,0.0,0.0,0.0,0.0,0.0,0.0,0.0,0.0,0.0,0.0,0.0,0.0,0.0,0.0,0.0,0.0,0.0,0.0,0.0,0.0,0.0,0.0,0.0,0.0,0.0,0.0,0.0,0.0,0.0,0.0,0.0,0.0,0.0,0.0,0.0,-4.5859,-4.5836,-4.5041,-4.4391,-4.3682,-4.1749,-3.9648,-3.7736,-3.7889,-3.6886,0.0,0.0,-3.384,-3.3665,-3.433,-3.4091,-3.3426,-3.2617,-3.1526,-3.0675,-3.1129,0.0,0.0,-3.7197,-3.9573,-4.1795,-4.4134,-4.5965,-4.755,-4.8841,-4.9769,-5.0735,-5.197,-5.2202,-5.2492,-5.3362,-5.2746,-5.2136,-5.2067,-5.0991,-4.991,-4.9105,-4.8705,-4.8777,-4.9484,-4.9729,-4.9911,-5.0043,-4.9943,-4.9811,-4.9721,-5.0193,-5.0621,-5.0999,-5.1509,-5.199,-5.2389,-5.2229,-5.201,-5.1768,-5.0895,-5.0358,-5.0135,-4.9299,-4.8909,-4.8909,-4.8909,-4.8909,-4.8853,-4.8277,-4.7553,-4.6754,-4.6001,-4.5227,-4.4531,-4.4389,-4.4401,-4.4458,0.0,0.0,0.0,0.0,0.0,0.0,0.0,0.0,0.0,0.0,0.0,0.0,0.0,0.0,0.0,0.0,0.0,0.0,0.0,0.0,0.0,0.0,0.0,0.0,0.0,0.0,0.0,0.0,0.0,0.0,0.0,0.0,0.0,0.0,0.0,0.0,0.0,0.0,0.0,-4.2375,-4.1581,-4.1287,-4.1048,-3.8509,-3.65,-3.504,-3.5171,0.0,0.0,0.0,-3.1009,-3.17,-3.1788,-3.1796,0.0,-3.0818,-3.0528,0.0,0.0,0.0,-3.8317,-4.0053,-4.3023,-4.5954,-4.7651,-4.9404,-5.0694,-5.0803,-5.146,-5.2056,-5.2182,-5.2202,-5.2492,-5.3362,-5.2715,-5.2067,-5.1914,-5.0251,-4.898,-4.8726,-4.7837,-4.7248,0.0,-4.8075,-4.8969,-4.9655,-4.9598,-4.951,-4.9529,-4.9402,-5.0076,-5.1724,-5.161,-5.2287,-5.3907,-5.3776,-5.3348,-5.2549,-5.1751,-5.0915,-5.0079,-4.928,-4.8909,-4.8909,-4.8909,-4.8909,-4.8909,-4.8872,-4.8389,-4.7571,-4.6773,-4.602,-4.5264,-4.4482,-4.4244,-4.4314,0.0,0.0,0.0,0.0,0.0,0.0,0.0,0.0,0.0,0.0,0.0,0.0,0.0,0.0,0.0,0.0,0.0,0.0,0.0,0.0,0.0,0.0,0.0,0.0,0.0,0.0,0.0,0.0,0.0,0.0,0.0,0.0,0.0,0.0,0.0,0.0,0.0,0.0,0.0,0.0,-3.9698,-3.8785,-3.7677,-3.5742,-3.3652,-3.1575,0.0,0.0,0.0,0.0,0.0,0.0,-2.8847,0.0,0.0,-3.0163,-3.1222,-3.2704,0.0,0.0,-4.1178,-4.4025,-4.6818,-4.9183,-5.0375,-5.151,-5.2203,-5.174,-5.1392,-5.1024,-5.0568,-5.0004,-4.9908,-5.0828,-5.0185,-4.9716,-5.0125,-4.8999,-4.7815,-4.6928,-4.6458,0.0,0.0,0.0,0.0,-4.8593,-4.8447,-4.8613,-4.9193,-5.0157,-5.0946,-5.1523,-5.2493,-5.3293,-5.3851,-5.3813,-5.3664,-5.3385,-5.2048,-5.0655,-4.9299,-4.902,-4.8909,-4.8909,-4.8909,-4.8909,-4.8909,-4.8909,-4.8426,-4.7664,-4.7404,-4.6843,-4.6025,-4.5239,-4.4941,-4.4879,0.0,0.0,0.0,0.0,0.0,0.0,0.0,0.0,0.0,0.0,0.0,0.0,0.0,0.0,0.0,0.0,0.0,0.0,0.0,0.0,0.0,0.0,0.0,0.0,0.0,0.0,0.0,0.0,0.0,0.0,0.0,0.0,0.0,0.0,0.0,0.0,0.0,0.0,0.0,0.0,0.0,-3.557,-3.4261,-3.2659,-3.0879,0.0,0.0,0.0,0.0,0.0,0.0,0.0,0.0,-2.7711,-2.856,-3.0285,-3.2403,-3.4908,-3.8284,-4.147,-4.4518,-4.7356,-4.9923,-5.1858,-5.2152,-5.2631,-5.2612,-5.1279,-5.0086,-4.8969,-4.7935,-4.7024,-4.675,-4.7654,-4.7497,-4.7605,-4.8564,-4.8018,-4.7308,-4.6751,-4.6288,-4.5959,0.0,0.0,0.0,-4.789,-4.7849,-4.8252,-4.9387,-5.0412,-5.1212,-5.1806,-5.2828,-5.3515,-5.3813,-5.3813,-5.3515,-5.294,-5.1602,-5.0246,-4.8909,-4.8909,-4.8909,-4.8909,-4.8909,-4.8909,-4.8909,-4.8909,-4.8612,-4.8091,-4.7813,-4.7386,-4.6791,-4.5695,-4.5287,-4.5207,0.0,0.0,0.0,0.0,0.0,0.0,0.0,0.0,0.0,0.0,0.0,0.0,0.0,0.0,0.0,0.0,0.0,0.0,0.0,0.0,0.0,0.0,0.0,0.0,-2.345,-2.4332,-2.4771,-2.4727,0.0,0.0,0.0,0.0,0.0,0.0,0.0,0.0,0.0,0.0,0.0,0.0,0.0,0.0,-3.0944,-2.9365,0.0,0.0,0.0,0.0,0.0,0.0,0.0,0.0,0.0,0.0,-2.9609,-3.1314,-3.4202,-3.7557,-4.0921,-4.48,-4.8308,-5.0045,-5.2303,-5.3849,-5.2996,-5.269,-5.1916,-4.9501,-4.7606,-4.5898,0.0,0.0,-4.3085,-4.3994,-4.4743,-4.5724,-4.7274,-4.7264,-4.7344,0.0,0.0,0.0,0.0,0.0,0.0,-4.7646,-4.7701,-4.8407,-5.0023,-5.0153,-5.0915,-5.2549,-5.2642,-5.3032,-5.3794,-5.3775,-5.2958,-5.1398,-5.058,-4.9745,-4.8909,-4.8909,-4.8909,-4.8909,-4.8909,-4.8909,-4.8909,-4.8909,-4.8909,-4.8816,-4.8054,-4.7757,-4.7571,-4.5992,-4.5398,-4.5231,0.0,0.0,0.0,0.0,0.0,0.0,0.0,0.0,0.0,0.0,0.0,0.0,0.0,0.0,0.0,0.0,0.0,0.0,0.0,0.0,0.0,0.0,0.0,0.0,0.0,-2.251,-2.3244,-2.3836,0.0,0.0,0.0,0.0,0.0,0.0,0.0,0.0,0.0,0.0,0.0,0.0,0.0,0.0,-2.8422,0.0,0.0,0.0,0.0,0.0,0.0,0.0,0.0,0.0,0.0,-3.0918,-3.325,-3.5599,-3.8637,-4.201,-4.536,-4.8353,-5.0956,-5.2628,-5.3419,-5.3584,-5.2745,-5.1102,-4.9049,-4.6641,-4.3862,-4.1379,0.0,0.0,0.0,-4.0346,-4.1622,0.0,-4.5421,-4.5982,0.0,-4.7072,0.0,-4.6573,-4.6494,-4.6494,0.0,0.0,-4.7701,-4.8407,-5.0023,-5.0729,-5.1546,-5.2568,-5.3181,-5.359,-5.3813,-5.3218,-5.2401,-5.1398,-5.0525,-4.9707,-4.8909,-4.8909,-4.8909,-4.8909,-4.8909,-4.8909,-4.8909,-4.8909,-4.8909,-4.889,-4.8667,-4.8593,-4.8481,-4.746,-4.6717,-4.6085,0.0,0.0,0.0,0.0,0.0,0.0,0.0,0.0,0.0,0.0,0.0,0.0,0.0,0.0,0.0,0.0,0.0,0.0,0.0,0.0,0.0,0.0,0.0,0.0,0.0,0.0,0.0,0.0,0.0,0.0,0.0,0.0,0.0,0.0,0.0,0.0,0.0,0.0,0.0,0.0,0.0,0.0,0.0,0.0,0.0,0.0,0.0,0.0,0.0,0.0,0.0,-2.9747,-3.1456,-3.4011,-3.681,-3.8977,0.0,-4.5726,-4.833,-5.0784,-5.2819,-5.3772,-5.3582,-5.276,-5.1193,-4.856,-4.5767,-4.3316,-4.019,0.0,0.0,0.0,0.0,0.0,0.0,0.0,-4.4957,-4.5865,-4.6604,0.0,-4.77,0.0,-4.7553,-4.7553,-4.7738,0.0,-4.824,-4.8946,-5.058,-5.1472,-5.2308,-5.3107,-5.3571,-5.3627,-5.3292,-5.2104,-5.1286,-5.0822,-4.9986,-4.9355,-4.8909,-4.8909,-4.8909,-4.8909,-4.8909,-4.8909,-4.8909,-4.8909,-4.8909,-4.8909,-4.8909,-4.8909,-4.8797,-4.7999,-4.7404,-4.6903,0.0,0.0,0.0,0.0,0.0,0.0,0.0,0.0,0.0,0.0,0.0,0.0,0.0,0.0,0.0,0.0,0.0,0.0,0.0,0.0,0.0,0.0,0.0,0.0,0.0,0.0,0.0,0.0,0.0,0.0,0.0,0.0,0.0,0.0,0.0,0.0,0.0,0.0,0.0,0.0,0.0,0.0,0.0,0.0,0.0,0.0,0.0,0.0,0.0,0.0,-3.0616,-3.2366,-3.4154,-3.714,-4.0318,-4.2013,-4.5357,-4.8874,-5.0425,-5.2499,-5.4167,-5.4065,-5.3103,-5.1505,-4.8946,-4.5628,-4.2399,-3.9902,0.0,-3.4321,-3.3574,-3.3532,-3.4369,-3.6635,0.0,-4.0972,-4.4775,-4.6012,-4.7148,-4.8729,-4.8887,-4.8909,-4.8909,-4.9002,-4.902,-4.8909,-4.9206,-4.9986,-5.1323,-5.2159,-5.2977,-5.3775,-5.3701,-5.3311,-5.2605,-5.0952,-5.0098,-5.0098,-4.928,-4.8909,-4.8909,-4.8909,-4.8909,-4.8909,-4.8909,-4.8909,-4.8909,-4.8909,-4.8909,-4.8909,-4.8909,-4.8909,-4.8816,-4.8129,-4.7794,-4.7608,0.0,0.0,0.0,0.0,0.0,0.0,0.0,0.0,0.0,0.0,-1.0587,-1.1058,0.0,0.0,0.0,0.0,0.0,0.0,0.0,0.0,0.0,0.0,0.0,0.0,0.0,0.0,0.0,0.0,0.0,0.0,0.0,0.0,0.0,0.0,0.0,0.0,0.0,0.0,0.0,0.0,0.0,0.0,0.0,0.0,0.0,0.0,0.0,0.0,0.0,0.0,-3.1921,-3.4276,-3.6672,-4.026,-4.3944,-4.5623,-4.8581,-5.1511,-5.2471,-5.3958,-5.5068,-5.435,-5.2329,-4.9854,-4.7314,-4.3455,0.0,0.0,0.0,-3.2524,-3.1708,-3.2158,0.0,-3.4168,0.0,0.0,0.0,0.0,-4.6277,0.0,0.0,0.0,0.0,0.0,0.0,0.0,-5.0803,-5.1788,-5.1416,-5.2159,-5.2977,-5.3775,-5.3144,-5.2735,-5.2605,-5.0952,-5.0098,-5.0098,-4.928,-4.8909,-4.8909,-4.8909,-4.8909,-4.8909,-4.8909,-4.8909,-4.8909,-4.8909,-4.8909,-4.8909,-4.8909,-4.8909,-4.889,-4.8742,-4.8277,-4.7683,0.0,0.0,0.0,0.0,0.0,0.0,0.0,-0.8774,-0.8656,-0.9119,-0.9509,-0.9905,-1.0321,-1.1082,0.0,0.0,0.0,0.0,0.0,0.0,0.0,0.0,0.0,0.0,0.0,0.0,-1.9424,0.0,0.0,0.0,0.0,0.0,0.0,0.0,0.0,0.0,0.0,0.0,0.0,0.0,0.0,0.0,0.0,0.0,0.0,0.0,0.0,0.0,0.0,0.0,-3.1594,-3.429,-3.7738,-4.1454,-4.4873,-4.6553,-4.9092,-5.1663,-5.2897,-5.374,-5.4031,-5.3165,-5.0945,-4.8037,-4.4557,0.0,0.0,0.0,-3.2411,-3.0827,-3.043,0.0,0.0,0.0,0.0,0.0,0.0,0.0,0.0,0.0,0.0,0.0,0.0,0.0,-5.0618,-5.0228,-5.1695,-5.2252,-5.1435,-5.2568,-5.3218,-5.3181,-5.2401,-5.1769,-5.1305,-5.0098,-4.9485,-4.9466,-4.9076,-4.8909,-4.8909,-4.8909,-4.8909,-4.8909,-4.8909,-4.8909,-4.8909,-4.8909,-4.8909,-4.8909,-4.8909,-4.8909,-4.8909,-4.8909,-4.8667,-4.8314,0.0,0.0,0.0,0.0,0.0,0.0,0.0,-0.7762,-0.756,-0.8229,-0.8316,-0.8563,-0.9213,-1.0161,-1.0752,0.0,0.0,0.0,0.0,0.0,0.0,0.0,0.0,0.0,0.0,0.0,0.0,-1.9741,0.0,0.0,0.0,0.0,0.0,0.0,0.0,0.0,0.0,0.0,0.0,0.0,0.0,0.0,0.0,0.0,0.0,0.0,0.0,0.0,0.0,0.0,-3.0598,-3.3189,-3.6729,-4.0578,-4.4156,-4.6013,-4.8311,-5.0619,-5.2316,-5.2955,-5.289,-5.1834,-4.9447,-4.6298,-4.2125,-3.8366,0.0,0.0,-3.0827,-2.9717,-2.9698,0.0,0.0,0.0,0.0,0.0,0.0,0.0,0.0,0.0,0.0,0.0,0.0,0.0,0.0,-5.1398,-5.2159,-5.2401,-5.1936,-5.3107,-5.3441,-5.2624,-5.1825,-5.0989,-5.0116,-4.9299,-4.8909,-4.8909,-4.8909,-4.8909,-4.8909,-4.8909,-4.8909,-4.8909,-4.8909,-4.8909,-4.8909,-4.8909,-4.8909,-4.8909,-4.8909,-4.8909,-4.8909,-4.8909,-4.8909,-4.8909,0.0,0.0,0.0,0.0,0.0,0.0,0.0,-0.7452,-0.7395,-0.7425,-0.7425,-0.7467,-0.7605,-0.8997,-0.993,0.0,0.0,0.0,0.0,0.0,0.0,0.0,0.0,0.0,0.0,0.0,0.0,-1.8916,-1.9707,0.0,0.0,0.0,0.0,0.0,0.0,0.0,0.0,0.0,0.0,0.0,0.0,0.0,0.0,0.0,0.0,0.0,0.0,0.0,0.0,0.0,0.0,-3.1023,-3.2145,-3.6477,-4.1622,-4.4117,0.0,0.0,-5.0561,-5.2126,-5.2878,-5.1222,-4.8241,-4.4804,-4.1278,0.0,0.0,-3.1678,-3.0499,-2.9771,-2.9717,-3.0415,0.0,0.0,0.0,0.0,0.0,0.0,0.0,0.0,0.0,0.0,0.0,0.0,-5.1398,-5.1398,-5.2159,-5.2902,-5.3553,-5.372,-5.3441,-5.2624,-5.1825,-5.0989,-5.0116,-4.9299,-4.8909,-4.8909,-4.8909,-4.8909,-4.8909,-4.8909,-4.8909,-4.8909,-4.8909,-4.8909,-4.8909,-4.8909,-4.8909,-4.8909,-4.8909,-4.8909,-4.8909,-4.8909,-4.8909,-4.8909,0.0,0.0,0.0,0.0,0.0,0.0,-0.6596,-0.6229,-0.6062,-0.6515,-0.6585,-0.678,-0.7345,-0.8446,-0.9156,0.0,0.0,0.0,0.0,0.0,0.0,0.0,0.0,0.0,0.0,0.0,-1.7849,-1.8863,-1.9216,0.0,0.0,0.0,0.0,0.0,0.0,-2.0136,0.0,0.0,0.0,0.0,0.0,0.0,0.0,0.0,0.0,0.0,0.0,0.0,0.0,0.0,0.0,0.0,-2.9863,-3.1942,0.0,0.0,-4.2883,-4.5696,-4.7865,-4.9295,-4.9875,-4.8702,-4.6222,-4.3013,-3.908,0.0,0.0,-3.0395,-2.9855,-2.9739,-2.9146,-2.968,-3.0359,0.0,0.0,0.0,0.0,0.0,0.0,0.0,0.0,0.0,0.0,0.0,-5.2327,-5.281,-5.3144,-5.346,-5.3775,-5.3348,-5.2717,-5.1899,-5.1101,-5.0265,-4.9392,-4.9057,-4.8909,-4.8909,-4.8909,-4.8909,-4.8909,-4.8909,-4.8909,-4.8909,-4.8909,-4.8909,-4.8909,-4.8909,-4.8909,-4.8909,-4.8909,-4.8909,-4.8909,-4.8909,-4.8874,-4.8857,0.0,0.0,0.0,0.0,0.0,-0.5565,-0.6121,-0.5676,-0.5498,-0.6056,-0.5898,-0.5981,-0.6619,-0.7684,-0.8348,-0.8363,0.0,0.0,0.0,0.0,0.0,0.0,0.0,0.0,0.0,0.0,-1.7001,-1.8191,-1.869,-1.9246,0.0,0.0,-2.0225,-2.0227,0.0,0.0,0.0,0.0,0.0,0.0,0.0,0.0,0.0,0.0,0.0,0.0,0.0,0.0,0.0,0.0,0.0,0.0,0.0,0.0,0.0,0.0,-3.9058,-4.1851,-4.436,-4.5813,-4.6432,-4.5605,-4.3489,-4.0604,0.0,0.0,-3.2133,-2.9174,-2.9141,-2.9437,-2.8758,-2.9226,-2.9852,0.0,0.0,0.0,0.0,0.0,0.0,0.0,0.0,0.0,0.0,-5.1008,-5.2828,-5.3404,-5.3683,-5.3813,-5.3813,-5.281,-5.1992,-5.1416,-5.0599,-4.9763,-4.8909,-4.8909,-4.8909,-4.8909,-4.8909,-4.8909,-4.8909,-4.8909,-4.8909,-4.8909,-4.8909,-4.8909,-4.8909,-4.8909,-4.8909,-4.8909,-4.8909,-4.8909,-4.8909,-4.8909,-4.8839,-4.8787,0.0,0.0,0.0,0.0,0.0,0.0,-0.62,-0.6197,-0.619,-0.6196,-0.5446,-0.4947,-0.5024,-0.6504,-0.754,-0.7602,0.0,0.0,0.0,0.0,0.0,0.0,0.0,0.0,0.0,0.0,-1.6503,-1.6522,-1.8189,-1.9004,-1.903,-1.9908,-2.0304,-2.0304,0.0,0.0,0.0,0.0,0.0,0.0,0.0,0.0,0.0,0.0,0.0,0.0,0.0,0.0,0.0,0.0,0.0,0.0,0.0,0.0,0.0,0.0,-3.5534,-3.7429,-3.9967,-4.1867,-4.2931,-4.2066,-3.995,-3.7373,0.0,0.0,-2.985,-2.8157,-2.8351,-2.8793,-2.8707,-2.924,-2.9681,-2.9626,-3.0222,0.0,0.0,0.0,0.0,0.0,0.0,0.0,0.0,-5.0673,-5.2605,-5.2605,-5.3348,-5.3813,-5.3813,-5.2289,-5.1416,-5.1398,-5.0562,-4.9707,-4.8909,-4.8909,-4.8909,-4.8909,-4.8909,-4.8909,-4.8909,-4.8909,-4.8909,-4.8909,-4.8909,-4.8909,-4.8909,-4.8909,-4.8909,-4.8909,-4.8909,-4.8909,-4.8909,-4.8909,-4.8839,-4.8787,0.0,0.0,0.0,0.0,0.0,0.0,0.0,-0.5414,-0.5597,-0.619,-0.6035,-0.6096,-0.6715,-0.7739,-0.8411,-0.8491,0.0,0.0,0.0,0.0,0.0,0.0,0.0,0.0,0.0,0.0,-1.5907,-1.6503,-1.7023,-1.7869,-1.9011,-1.928,-1.9735,-2.0312,-2.0312,-2.0312,0.0,0.0,0.0,0.0,0.0,0.0,0.0,0.0,0.0,0.0,0.0,0.0,0.0,0.0,0.0,0.0,0.0,0.0,0.0,0.0,0.0,0.0,-3.5861,-3.7887,-3.9411,-3.8527,-3.6853,-3.4891,-3.2929,-3.0929,-2.8994,-2.733,-2.8006,-2.8725,-2.8008,-2.8877,-2.9663,-2.9551,-2.9695,0.0,0.0,0.0,0.0,0.0,0.0,0.0,0.0,0.0,-5.1138,-5.1732,-5.2029,-5.2159,-5.2159,-5.1119,-5.0785,-5.1379,-5.0023,-4.9169,-4.8909,-4.8909,-4.8909,-4.8909,-4.8909,-4.8909,-4.8909,-4.8909,-4.8909,-4.8909,-4.8909,-4.8909,-4.8909,-4.8909,-4.8909,-4.8909,-4.8909,-4.8874,-4.8822,-4.8822,-4.866,-4.8438,0.0,0.0,0.0,0.0,0.0,0.0,0.0,-0.6011,-0.6282,-0.7132,-0.6982,-0.7005,-0.7546,-0.8344,-0.8863,-0.8934,0.0,0.0,0.0,0.0,0.0,0.0,0.0,0.0,0.0,-1.5248,-1.5488,-1.6002,-1.6329,-1.7196,-1.8551,-1.8859,-1.9468,-2.0296,-2.0296,-2.0296,0.0,0.0,0.0,0.0,0.0,0.0,-2.0501,0.0,0.0,0.0,0.0,0.0,0.0,0.0,0.0,0.0,0.0,0.0,0.0,0.0,-2.8219,0.0,0.0,-3.366,-3.5007,-3.4468,-3.3295,0.0,0.0,-2.9159,-2.7775,-2.639,-2.7401,-2.832,-2.7632,-2.8739,-2.97,-2.9531,-2.9431,0.0,0.0,0.0,0.0,0.0,0.0,0.0,0.0,-4.9002,-5.0005,-5.0859,-5.1212,-5.1398,-5.1398,-5.058,-5.0358,-5.0896,-4.9596,-4.8909,-4.8909,-4.8909,-4.8909,-4.8909,-4.8909,-4.8909,-4.889,-4.8593,-4.8444,-4.8426,-4.8129,-4.8166,0.0,-4.8444,-4.863,-4.8909,-4.8874,-4.8857,-4.8787,-4.8715,-4.8532,-4.8247,0.0,0.0,0.0,0.0,0.0,0.0,0.0,0.0,-0.7736,-0.8601,-0.8059,-0.7645,-0.7773,-0.8518,-0.9014,-0.9097,0.0,0.0,0.0,0.0,0.0,0.0,0.0,0.0,0.0,-1.5289,-1.5274,-1.5206,-1.6017,-1.6866,-1.7734,-1.8545,-1.9375,-2.0224,-2.0282,-2.0301,-2.0308,-2.0373,-2.0398,-2.0396,-2.0408,-2.0399,0.0,0.0,0.0,0.0,0.0,0.0,0.0,0.0,0.0,0.0,0.0,0.0,0.0,0.0,0.0,0.0,0.0,0.0,0.0,0.0,0.0,0.0,0.0,-2.7121,0.0,-2.5457,-2.6587,-2.7656,-2.7537,-2.8717,-2.9662,-2.9513,-2.9487,0.0,0.0,0.0,0.0,0.0,0.0,0.0,-4.6252,-4.7868,-4.9132,-4.9875,-5.0729,-5.1212,-5.1212,-5.045,-5.0023,-5.0023,-4.9243,-4.8853,-4.8909,-4.8909,-4.8872,-4.8816,-4.8816,-4.8779,-4.8704,-4.7961,-4.7608,-4.7571,-4.6828,-4.6921,-4.7608,-4.7608,-4.8054,-4.8723,-4.8637,-4.862,-4.8584,-4.8366,-4.8177,-4.7983,0.0,0.0,0.0,0.0,0.0,0.0,0.0,0.0,0.0,0.0,-0.7724,-0.8114,-0.9436,-0.9768,-0.9915,0.0,0.0,0.0,0.0,0.0,0.0,0.0,0.0,0.0,0.0,-1.5311,-1.5298,-1.5278,-1.5472,-1.6029,-1.69,-1.7718,-1.8551,-1.9417,-2.0081,-2.0371,-2.0371,-2.0402,-2.0394,-2.041,-2.039,-2.0439,0.0,0.0,0.0,0.0,-2.3201,-2.4238,0.0,0.0,0.0,0.0,0.0,0.0,0.0,0.0,-2.5437,-2.5687,-2.6101,0.0,-2.8486,-2.8486,-2.7832,0.0,0.0,0.0,0.0,0.0,0.0,0.0,0.0,-2.8212,-2.8949,-2.9419,0.0,0.0,0.0,0.0,0.0,0.0,0.0,-4.4413,-4.5472,-4.7033,-4.8054,-4.8259,-4.902,-4.9485,-4.9485,-4.9299,-4.9187,-4.9187,-4.8338,-4.8227,-4.889,-4.8909,-4.8593,-4.798,-4.798,-4.7664,-4.7051,-4.6865,-4.6773,-4.6773,-4.6587,-4.6605,-4.6773,-4.6773,-4.6884,-4.7051,-4.6932,-4.6829,-4.6725,-4.6526,-4.6245,-4.6023,0.0,0.0,0.0,0.0,0.0,0.0,0.0,0.0,0.0,0.0,0.0,0.0,0.0,0.0,0.0,0.0,0.0,0.0,0.0,0.0,0.0,0.0,0.0,-1.5351,-1.5345,-1.5352,-1.5345,-1.5345,-1.5345,-1.5788,-1.6619,-1.7454,-1.8313,-1.9182,-2.0061,-2.0454,-2.0439,-2.0439,-2.0448,-2.0441,-2.0441,0.0,0.0,0.0,0.0,0.0,-2.3047,-2.4127,0.0,-2.5505,-2.548,-2.544,0.0,0.0,0.0,0.0,-2.5303,-2.5303,-2.5303,-2.5986,-2.6717,-2.6717,-2.6351,-2.6005,0.0,0.0,0.0,0.0,0.0,0.0,0.0,0.0,0.0,0.0,-3.0362,0.0,0.0,0.0,0.0,0.0,-4.302,-4.4339,0.0,-4.6085,-4.6754,-4.7125,-4.7553,-4.7794,-4.7794,-4.7794,-4.7794,-4.7794,-4.7265,-4.7432,-4.8301,-4.7877,-4.7435,-4.699,-4.699,-4.6768,-4.6342,-4.5971,-4.5805,-4.5786,-4.5397,-4.5453,-4.5819,-4.5853,-4.6075,-4.6409,-4.6289,-4.6205,-4.6047,-4.5772,-4.5449,-4.5224,0.0,0.0,0.0,0.0,0.0,0.0,0.0,0.0,0.0,0.0,0.0,0.0,0.0,0.0,0.0,0.0,0.0,0.0,0.0,0.0,0.0,0.0,0.0,-1.5401,-1.5399,-1.5409,-1.5326,-1.5209,-1.5324,-1.5671,-1.623,-1.7381,-1.8452,-1.9425,-2.0165,-2.0503,-2.049,-2.049,-2.0494,-2.0503,-2.0503,0.0,0.0,0.0,0.0,0.0,0.0,0.0,0.0,-2.5531,-2.5505,-2.5488,-2.5415,0.0,0.0,0.0,0.0,0.0,-2.5303,-2.5303,-2.5303,-2.5303,-2.5303,-2.5303,0.0,0.0,0.0,0.0,0.0,0.0,0.0,0.0,0.0,0.0,0.0,0.0,0.0,0.0,0.0,0.0,-4.302,0.0,-4.5026,-4.5212,-4.5565,-4.6271,-4.642,-4.6494,-4.6494,-4.6494,-4.6494,-4.6461,-4.6194,-4.6437,-4.7143,-4.65,-4.6096,-4.5967,-4.5967,-4.5912,-4.5764,-4.5081,-4.4786,-4.4731,-4.4066,-4.4159,-4.4786,-4.485,-4.5271,-4.5901,-4.5817,-4.5731,-4.5607,-4.5237,-4.4907,-4.4687,0.0,0.0,0.0,0.0,0.0,0.0,0.0,0.0,0.0,0.0,0.0,0.0,0.0,0.0,0.0,0.0,0.0,0.0,0.0,0.0,0.0,0.0,-1.4472,-1.5408,-1.5405,-1.5401,-1.5046,-1.4303,-1.5041,-1.5096,-1.4547,-1.6887,-1.8817,-2.0316,-2.0433,-2.0492,-2.0494,-2.0494,-2.0494,-2.0494,-2.0494,0.0,0.0,0.0,0.0,0.0,0.0,0.0,0.0,-2.5585,-2.5544,-2.5485,-2.5414,0.0,0.0,0.0,0.0,0.0,-2.5313,-2.5303,-2.5303,-2.5303,-2.5303,-2.5303,0.0,0.0,0.0,0.0,0.0,0.0,0.0,0.0,0.0,0.0,0.0,0.0,0.0,0.0,-4.0698,-4.1497,0.0,-4.4061,-4.4191,-4.4859,-4.5342,-4.5472,-4.6122,-4.6494,-4.6494,-4.6494,-4.6442,-4.6338,-4.5466,-4.5052,-4.5058,-4.5752,-4.5714,-4.4945,-4.4945,-4.4577,-4.3915,-4.3805,-4.375,-4.3731,-4.3587,-4.3605,-4.375,-4.3781,-4.3922,-4.3999,-4.395,-4.3794,-4.3616,-4.3337,-4.3084,-4.2884,0.0,0.0,0.0,0.0,0.0,0.0,0.0,0.0,0.0,0.0,0.0,0.0,0.0,0.0,0.0,0.0,0.0,0.0,0.0,0.0,0.0,-1.2798,-1.401,-1.4912,-1.5383,-1.494,-1.4492,-1.4101,-1.4079,-1.4073,-1.4167,-1.6782,-1.8909,-2.0547,-2.0547,-2.0547,-2.0547,-2.0547,-2.0547,-2.0547,0.0,0.0,0.0,0.0,0.0,0.0,0.0,0.0,0.0,0.0,-2.5576,-2.5529,-2.5492,0.0,0.0,0.0,0.0,0.0,-2.5313,-2.5303,-2.5303,-2.5303,-2.5293,-2.5283,0.0,0.0,0.0,0.0,0.0,0.0,0.0,0.0,0.0,0.0,0.0,-3.6742,-3.8321,-4.0364,-4.1832,0.0,0.0,-4.4005,-4.4005,-4.4358,-4.4599,-4.4599,-4.4934,-4.5157,-4.5157,-4.5157,-4.5106,-4.5008,-4.4454,-4.4046,-4.3834,-4.4181,-4.4127,-4.3725,-4.3725,-4.3543,-4.3196,-4.3196,-4.3196,-4.3196,-4.3196,-4.3196,-4.3178,-4.325,-4.3321,-4.3356,-4.325,-4.3178,-4.305,-4.2745,-4.2526,-4.2387,0.0,0.0,0.0,0.0,0.0,0.0,0.0,0.0,0.0,0.0,0.0,0.0,0.0,0.0,0.0,0.0,0.0,0.0,0.0,0.0,-1.31,-1.3104,-1.3744,-1.4411,-1.508,-1.424,-1.3603,-1.3214,-1.2988,-1.3514,-1.4759,-1.6966,-1.8936,-2.0593,-2.0593,-2.0593,-2.0593,-2.0593,-2.0593,-2.0593,0.0,0.0,0.0,0.0,0.0,0.0,0.0,0.0,0.0,0.0,0.0,0.0,0.0,0.0,0.0,-2.5421,-2.5406,-2.5398,-2.5313,-2.5303,-2.5303,-2.5303,0.0,-2.5339,-2.545,0.0,0.0,0.0,0.0,0.0,0.0,0.0,0.0,0.0,-3.6259,-3.8042,-3.9231,-4.12,-4.2593,-4.2779,-4.3491,-4.3974,-4.3974,-4.3942,-4.3942,-4.3942,-4.3974,-4.3974,-4.3974,-4.4005,-4.3942,-4.3883,-4.3682,-4.3426,-4.3123,-4.2938,-4.2824,-4.2824,-4.2824,-4.2824,-4.2824,-4.2824,-4.2824,-4.2824,-4.2824,-4.2824,-4.2862,-4.292,-4.3013,-4.3105,-4.2995,-4.292,-4.2862,-4.2548,-4.2405,-4.2287,0.0,0.0,0.0,0.0,0.0,0.0,0.0,0.0,0.0,0.0,0.0,0.0,0.0,0.0,0.0,0.0,0.0,0.0,0.0,0.0,-1.4003,-1.4012,-1.4065,-1.4131,-1.4188,-1.3346,-1.2122,-1.0574,-1.2065,-1.4082,-1.652,-1.7537,-1.8921,-2.0593,-2.0593,-2.0593,-2.0593,-2.0593,-2.0593,-2.0593,-2.0593,0.0,0.0,0.0,0.0,0.0,0.0,0.0,0.0,0.0,0.0,0.0,0.0,0.0,-2.5479,-2.5426,-2.5404,-2.5397,-2.5322,-2.5303,-2.5303,-2.5302,0.0,0.0,-2.6166,0.0,0.0,0.0,0.0,0.0,0.0,0.0,0.0,0.0,-3.6166,-3.7596,-3.9955,0.0,-4.1962,-4.2705,-4.346,-4.3897,-4.3897,-4.3851,-4.3804,-4.3804,-4.3883,-4.3897,-4.3897,-4.3992,-4.3961,-4.3804,-4.36,-4.3339,-4.2938,-4.2709,-4.2609,-4.2609,-4.2609,-4.2609,-4.2609,-4.2609,-4.2609,-4.2609,-4.2609,-4.2609,-4.2649,-4.2783,-4.2822,-4.2822,-4.2822,-4.2724,-4.2544,-4.2387,-4.2287,-4.2287,0.0,0.0,0.0,0.0,0.0,0.0,0.0,0.0,0.0,0.0,0.0,0.0,0.0,0.0,0.0,0.0,0.0,0.0,0.0,0.0,-1.4092,-1.4098,-1.4092,-1.3842,-1.3309,-1.1908,-1.087,-1.0239,-1.0863,-1.2234,-1.4316,-1.6289,-1.8122,-1.9812,-2.0359,-2.0593,-2.0593,-2.0593,-2.0593,-2.0651,-2.1198,-2.1608,0.0,0.0,0.0,0.0,0.0,0.0,0.0,0.0,-2.5656,-2.5591,0.0,-2.5557,-2.549,-2.5418,-2.5395,-2.5398,-2.5322,-2.5302,-2.5292,-2.525,0.0,0.0,0.0,0.0,0.0,0.0,0.0,0.0,0.0,0.0,0.0,-3.5832,-3.6909,-3.8135,-4.0104,-4.1089,-4.169,-4.1976,-4.2162,-4.2266,-4.2234,-4.2124,-4.2279,-4.2809,-4.2809,-4.3063,-4.3679,-4.373,-4.3716,-4.36,-4.3428,-4.316,-4.2842,-4.257,-4.2369,-4.2269,-4.2369,-4.2409,-4.2409,-4.2409,-4.2409,-4.2409,-4.2409,-4.2409,-4.2409,-4.245,-4.2548,-4.2606,-4.2606,-4.2526,-4.2346,-4.2328,-4.2287,-4.2287,0.0,0.0,0.0,0.0,0.0,0.0,0.0,0.0,0.0,0.0,0.0,0.0,0.0,0.0,0.0,0.0,0.0,0.0,-1.2306,-1.3695,-1.4503,-1.452,-1.4244,-1.3697,-1.2826,-1.1064,-0.9903,-0.9352,-0.9886,-1.1159,-1.3172,-1.5832,-1.7871,-1.9346,-2.0204,-2.0593,-2.0593,-2.0593,-2.0593,-2.0671,-2.1549,-2.2055,0.0,0.0,0.0,0.0,0.0,0.0,0.0,0.0,-2.563,0.0,0.0,0.0,0.0,0.0,-2.5406,-2.5389,-2.5321,-2.5282,-2.5241,0.0,0.0,0.0,0.0,0.0,0.0,0.0,0.0,0.0,0.0,0.0,0.0,0.0,-3.7151,-3.8191,-4.0076,-4.0818,-4.1252,-4.144,-4.1298,-4.1185,-4.1071,-4.0924,-4.1061,-4.1606,-4.1573,-4.188,-4.2567,-4.2671,-4.2656,-4.2624,-4.243,-4.2195,-4.1949,-4.1676,-4.1457,-4.1316,-4.1398,-4.1724,-4.2222,-4.2222,-4.2222,-4.2246,-4.2246,-4.2246,-4.2287,-4.2287,-4.2346,-4.2445,-4.2445,-4.2387,-4.2287,-4.2287,-4.2287,-4.2287,0.0,0.0,0.0,0.0,0.0,0.0,0.0,0.0,0.0,0.0,0.0,0.0,0.0,0.0,0.0,0.0,0.0,0.0,-1.4039,-1.491,-1.541,-1.5397,-1.4565,-1.3709,-1.2826,-1.1031,-0.9253,-0.7504,-0.918,-1.1297,-1.3845,-1.6603,-1.8383,-1.9331,-2.0205,-2.0593,-2.0593,-2.0593,-2.0593,-2.0671,-2.1569,-2.2385,-2.3201,0.0,0.0,0.0,0.0,0.0,0.0,0.0,-2.5543,0.0,0.0,0.0,0.0,0.0,-2.5397,-2.538,-2.5321,-2.5252,0.0,0.0,0.0,0.0,0.0,0.0,0.0,0.0,0.0,0.0,-3.286,0.0,0.0,-3.6278,-3.6686,-3.7495,-3.9841,-4.0145,-4.0478,-4.1268,-4.1121,-4.0906,-4.0769,-4.0526,-4.0293,-4.0184,-4.0293,-4.0384,-4.0473,-4.0597,-4.0684,-4.0686,-4.051,-4.0292,-4.0085,-3.9893,-3.9736,-3.962,-3.9562,-4.043,-4.1987,-4.1987,-4.2012,-4.2103,-4.2103,-4.2145,-4.2269,-4.2269,-4.2269,-4.2269,-4.2269,-4.2269,-4.2269,-4.2269,-4.2251,-4.2269,0.0,0.0,0.0,0.0,0.0,0.0,0.0,0.0,0.0,0.0,0.0,0.0,0.0,0.0,0.0,0.0,0.0,0.0,-1.4073,-1.4929,-1.5393,-1.541,-1.5157,-1.4612,-1.3734,-1.189,-0.9771,-0.7349,-0.9078,-1.0656,-1.2115,-1.5433,-1.7483,-1.8454,-1.9932,-2.0593,-2.0593,-2.0593,-2.0591,-2.0724,-2.2168,-2.2884,-2.3266,0.0,0.0,0.0,0.0,0.0,0.0,0.0,0.0,0.0,0.0,0.0,0.0,-2.5332,-2.5293,-2.5261,-2.5236,-2.5141,0.0,0.0,0.0,0.0,0.0,0.0,0.0,0.0,0.0,0.0,-3.3667,0.0,0.0,-3.542,-3.5642,-3.6085,-3.7349,-3.7534,-3.7598,-3.7787,-3.7638,-3.7385,-3.7156,-3.696,-3.6987,-3.7399,-3.747,-3.7952,-3.9118,-3.9209,-3.9478,-4.0032,-3.9917,-3.98,-3.9678,-3.9417,-3.9276,-3.9234,-3.9186,-3.9856,-4.1155,-4.1155,-4.118,-4.118,-4.118,-4.0884,-4.0392,-4.0392,-4.0392,-4.0392,-4.0392,-4.0392,-4.0392,-4.0392,-4.0451,-4.0566,0.0,0.0,0.0,0.0,0.0,0.0,0.0,0.0,0.0,0.0,0.0,0.0,0.0,0.0,0.0,0.0,0.0,0.0,0.0,-1.5115,-1.5404,-1.5399,-1.5399,-1.514,-1.4581,-1.3094,-1.1703,-1.0406,-1.1106,-1.1924,-1.2882,-1.6111,-1.7959,-1.8573,-1.9974,-2.0593,-2.0593,-2.0591,-2.0783,-2.1208,-2.2552,-2.328,-2.3731,0.0,0.0,0.0,0.0,0.0,0.0,0.0,0.0,0.0,0.0,0.0,0.0,-2.5231,-2.5187,-2.516,-2.5113,0.0,0.0,0.0,0.0,0.0,0.0,0.0,0.0,0.0,0.0,-3.4049,-3.3998,-3.3972,0.0,-3.4972,-3.5092,-3.534,-3.6091,-3.6229,-3.6219,-3.609,-3.5951,-3.576,-3.5486,-3.5289,-3.5296,-3.5561,-3.5541,-3.5929,-3.6905,-3.6978,-3.7226,-3.776,-3.7627,-3.7549,-3.7506,-3.7346,-3.7225,-3.7225,-3.7178,-3.786,-3.9218,-3.9817,-4.014,-4.02,-4.0306,-4.0063,-3.962,-3.962,-3.962,-3.962,-3.962,-3.962,-3.962,-3.962,-3.9678,-3.9793,0.0,0.0,0.0,0.0,0.0,0.0,0.0,0.0,0.0,0.0,0.0,0.0,0.0,0.0,0.0,0.0,0.0,0.0,0.0,0.0,-1.5399,-1.5404,-1.5404,-1.5413,-1.5419,-1.4578,-1.4549,-1.5366,-1.4475,-1.4448,-1.5294,-1.795,-1.9236,-1.9336,-2.0208,-2.0593,-2.0591,-2.0586,-2.1011,-2.1769,-2.2711,-2.3529,-2.4282,-2.521,0.0,0.0,0.0,0.0,0.0,0.0,0.0,0.0,0.0,0.0,-2.5164,-2.5094,-2.5057,-2.5032,0.0,0.0,0.0,0.0,0.0,0.0,0.0,0.0,0.0,0.0,0.0,-3.3972,-3.3972,-3.3921,-3.4081,-3.4734,-3.4704,-3.4838,-3.5448,-3.5515,-3.5478,-3.5331,-3.5218,-3.5055,-3.4791,-3.464,-3.4447,-3.4084,-3.4084,-3.4137,-3.4259,-3.4259,-3.4366,-3.4653,-3.4524,-3.4469,-3.4469,-3.4391,-3.4387,-3.4387,-3.4387,-3.5118,-3.651,-3.815,-3.8968,-3.9164,-3.9282,-3.9328,-3.9328,-3.9328,-3.9328,-3.9328,-3.9328,-3.9368,-3.9368,-3.9368,-3.9425,-3.9562,0.0,0.0,0.0,0.0,0.0,0.0,0.0,0.0,0.0,0.0,0.0,0.0,0.0,0.0,0.0,0.0,0.0,0.0,0.0,0.0,-1.5403,-1.5399,-1.5399,-1.5684,-1.6308,-1.6123,-1.6437,-1.7297,-1.6372,-1.6024,-1.623,-1.8267,-1.9246,-1.9334,-2.0202,-2.056,-2.0514,-2.0511,-2.062,-2.0912,-2.2414,-2.3095,-2.3373,-2.4871,-2.5406,0.0,0.0,0.0,0.0,0.0,0.0,0.0,-2.5138,-2.5087,-2.5032,-2.4896,-2.4832,-2.4764,0.0,0.0,0.0,0.0,0.0,0.0,0.0,0.0,0.0,0.0,-3.272,-3.3834,-3.378,-3.3671,-3.3603,-3.3604,-3.2979,-3.2499,-3.2679,-3.2205,-3.1827,-3.1815,-3.1727,-3.1607,-3.1373,-3.1282,-3.1137,-3.0819,-3.0819,-3.1272,-3.2308,-3.2377,-3.2931,-3.4198,-3.4177,-3.4177,-3.4177,-3.4155,-3.4155,-3.4155,-3.4155,-3.4328,-3.4708,-3.6441,-3.755,-3.8074,-3.7539,-3.7335,-3.7335,-3.7335,-3.7358,-3.7399,-3.7318,-3.7399,-3.7541,-3.7421,-3.7541,-3.768,0.0,0.0,0.0,0.0,0.0,0.0,0.0,0.0,0.0,0.0,0.0,0.0,0.0,0.0,0.0,0.0,0.0,0.0,0.0,0.0,-1.5409,-1.5407,-1.5405,-1.5986,-1.7246,-1.7275,-1.7883,-1.9132,-1.8659,-1.82,0.0,-1.9223,-1.9882,-1.9937,-2.0369,-2.0528,-2.0503,-2.0506,-2.0955,-2.1765,-2.2602,-2.3418,-2.4188,-2.5037,-2.534,-2.5293,-2.5293,0.0,0.0,0.0,0.0,0.0,0.0,0.0,-2.4842,-2.4731,-2.4673,-2.4578,0.0,0.0,0.0,0.0,0.0,0.0,0.0,0.0,0.0,0.0,-3.1891,-3.3186,-3.3532,-3.3182,-3.2766,-3.2523,-3.1709,-3.1057,-3.1013,-3.0688,-3.0439,-3.0427,-3.0427,-3.0318,-3.0131,-3.0068,-2.9989,-2.9777,-2.9744,-3.0023,-3.0662,-3.0696,-3.1076,-3.1869,-3.1903,-3.1903,-3.1903,-3.1903,-3.1903,-3.1903,-3.2283,-3.2835,-3.3559,-3.4914,-3.574,-3.6127,-3.5762,-3.5588,-3.5588,-3.5588,-3.5627,-3.5649,-3.5627,-3.5667,-3.5766,-3.571,-3.5826,-3.5993,0.0,0.0,0.0,0.0,0.0,0.0,0.0,0.0,0.0,0.0,0.0,0.0,0.0,0.0,0.0,0.0,0.0,0.0,0.0,0.0,0.0,-1.5391,-1.5543,-1.6364,-1.7968,-1.8158,-1.8984,-2.0527,-2.0507,0.0,0.0,0.0,0.0,-2.0572,-2.0528,-2.0487,-2.048,-2.0467,-2.1351,-2.2739,-2.2835,-2.3774,-2.5157,-2.5226,-2.5252,-2.5239,-2.5187,-2.5153,-2.5141,-2.5069,0.0,0.0,0.0,0.0,-2.4645,-2.4564,-2.4513,-2.4426,0.0,0.0,0.0,0.0,0.0,0.0,0.0,0.0,0.0,-2.9088,-3.0748,-3.2236,-3.2907,-3.2329,-3.1714,-3.1487,-3.0645,-2.9982,-2.986,-2.98,-2.9695,-2.9667,-2.9712,-2.9664,-2.9505,-2.9505,-2.944,-2.9311,-2.9311,-2.9297,-2.9317,-2.9317,-2.9368,-2.9506,-2.9506,-2.9506,-2.9506,-2.9506,-2.9506,-2.9506,-3.0162,-3.1127,-3.2334,-3.3049,-3.3751,-3.4349,-3.4349,-3.4349,-3.4349,-3.4349,-3.4349,-3.4349,-3.4349,-3.4349,-3.4425,-3.4428,-3.4521,-3.4738,0.0,0.0,0.0,0.0,0.0,0.0,0.0,0.0,0.0,0.0,0.0,0.0,0.0,0.0,0.0,0.0,0.0,0.0,-1.5401,0.0,0.0,-1.5394,-1.6116,-1.698,-1.7984,-1.873,-1.9606,-2.0581,0.0,0.0,0.0,0.0,0.0,-2.0515,0.0,0.0,-2.0408,-2.0346,-2.0855,-2.1751,-2.2448,-2.3275,-2.4189,-2.4862,-2.5082,-2.5032,-2.5038,-2.4987,-2.494,-2.4869,-2.4804,0.0,0.0,0.0,-2.4425,-2.4357,-2.4284,-2.4229,0.0,0.0,0.0,0.0,0.0,0.0,0.0,0.0,0.0,0.0,-2.964,-3.0959,-3.1049,-3.0802,-3.0503,-3.0429,-2.9562,-2.89,-2.89,-2.8307,-2.7871,-2.784,-2.7871,-2.7853,-2.7823,-2.7823,-2.7778,-2.7719,-2.7719,-2.7964,-2.8506,-2.8558,-2.8834,-2.9489,-2.9506,-2.9506,-2.9506,-2.9506,-2.9506,-2.9506,-2.961,-2.9765,-2.9972,-3.0058,-3.1612,-3.4133,-3.4133,-3.4133,-3.4133,-3.4133,-3.4177,-3.4198,-3.4155,-3.425,-3.4387,-3.4293,-3.4332,-3.4443,0.0,0.0,0.0,0.0,0.0,0.0,0.0,0.0,0.0,0.0,0.0,0.0,0.0,0.0,0.0,-1.6862,-1.6863,-1.6863,-1.6866,-1.6863,-1.6863,-1.6863,-1.7216,-1.7847,-1.8711,-1.9094,-1.9708,-2.0543,0.0,0.0,0.0,-2.0959,-2.1161,0.0,0.0,0.0,0.0,0.0,-2.213,-2.2921,-2.3195,-2.3797,-2.455,-2.486,-2.4953,-2.4879,-2.4851,-2.4808,-2.4783,-2.467,-2.4591,-2.4528,-2.4498,0.0,0.0,0.0,-2.421,0.0,0.0,0.0,0.0,0.0,0.0,0.0,0.0,0.0,-2.5588,-2.6289,-2.743,-2.8758,-3.0232,-3.0006,-2.9523,-2.9417,-2.8617,-2.7959,-2.791,-2.7615,-2.7407,-2.7407,-2.7407,-2.7407,-2.7407,-2.7407,-2.7376,-2.7362,-2.7345,-2.7469,-2.7764,-2.7782,-2.792,-2.8265,-2.8265,-2.8265,-2.8265,-2.8265,-2.8472,-2.8885,-2.8885,-2.911,-2.9506,-2.9506,-3.0248,-3.1524,-3.1524,-3.1524,-3.1524,-3.1524,-3.1543,-3.1614,-3.2044,-3.2254,-3.2362,-3.276,-3.2954,-3.306,0.0,0.0,0.0,0.0,0.0,0.0,0.0,0.0,0.0,0.0,0.0,0.0,0.0,0.0,0.0,0.0,-1.7998,-1.7998,-1.7998,-1.7998,-1.7998,-1.7998,-1.8217,-1.8632,-1.9295,-1.9493,-1.9904,0.0,0.0,0.0,-2.0495,-2.1297,-2.1784,0.0,-2.194,0.0,0.0,0.0,0.0,0.0,0.0,0.0,0.0,-2.4842,-2.4764,-2.4682,-2.4642,-2.461,-2.4578,-2.4461,-2.4391,-2.4355,-2.4339,-2.4266,0.0,0.0,0.0,0.0,0.0,0.0,0.0,0.0,0.0,0.0,0.0,0.0,-2.4313,0.0,-2.5529,-2.6679,-2.8706,-2.8646,-2.825,-2.8146,-2.7365,-2.6774,-2.6713,-2.6868,-2.7006,-2.7006,-2.7178,-2.7299,-2.7299,-2.7299,-2.7299,-2.7299,-2.7299,-2.7299,-2.7299,-2.7299,-2.7299,-2.7299,-2.7299,-2.7299,-2.7299,-2.7299,-2.7575,-2.8127,-2.8127,-2.8403,-2.8937,-2.8937,-2.8937,-2.8972,-2.9351,-2.9506,-2.9506,-2.9506,-2.9506,-2.9558,-3.0162,-3.0386,-3.0455,-3.1061,-3.1287,-3.1373,0.0,0.0,0.0,0.0,0.0,0.0,0.0,0.0,0.0,0.0,0.0,0.0,-1.8,-1.7996,-1.8008,-1.7997,-1.7998,-1.7998,-1.7998,-1.7998,-1.7998,-1.7998,-1.8788,0.0,-1.9295,-2.0059,0.0,0.0,0.0,0.0,-2.042,-2.1224,-2.2003,-2.2735,-2.2735,-2.2728,-2.2708,0.0,0.0,0.0,0.0,0.0,0.0,0.0,-2.4528,-2.4424,-2.4407,-2.4373,-2.4303,-2.4229,-2.421,-2.4192,-2.4152,-2.4133,-2.417,0.0,0.0,0.0,0.0,0.0,0.0,0.0,0.0,0.0,0.0,0.0,0.0,-2.4039,-2.4646,-2.5229,-2.5418,-2.5936,-2.6328,-2.6328,-2.5651,-2.5109,-2.5126,-2.573,-2.6161,-2.6161,-2.6833,-2.7299,-2.7299,-2.7299,-2.7299,-2.7299,-2.7299,-2.7299,-2.7299,-2.7299,-2.7299,-2.7299,-2.7299,-2.7299,-2.7299,-2.7299,-2.7316,-2.7351,-2.7351,-2.7368,-2.7402,-2.7402,-2.7402,-2.7489,-2.8885,-2.9506,-2.9506,-2.9506,-2.9506,-2.9506,-2.9558,-2.9558,-2.9575,-2.961,-2.9627,-2.9627,0.0,0.0,0.0,0.0,0.0,0.0,0.0,0.0,0.0,0.0,0.0,0.0,0.0,-1.9606,-1.9608,-1.9609,-1.9609,-1.9608,-1.9608,-1.9608,-1.9608,-1.9608,-1.9898,-2.0067,-2.0072,-2.0344,0.0,0.0,0.0,-2.0418,-2.0429,-2.176,-2.2506,-2.2767,-2.3284,-2.376,-2.4167,-2.4088,0.0,0.0,0.0,0.0,0.0,0.0,0.0,0.0,0.0,0.0,-2.4037,-2.3978,-2.3939,-2.3939,-2.3917,-2.3917,-2.3937,-2.3896,-2.3816,0.0,0.0,0.0,0.0,0.0,0.0,0.0,0.0,-2.3024,-2.3188,-2.3162,-2.3739,-2.4285,-2.4313,-2.4947,-2.5496,-2.5496,-2.5219,-2.5005,-2.5005,-2.5229,-2.5574,-2.6057,-2.635,-2.673,-2.7247,-2.7299,-2.7299,-2.7299,-2.7299,-2.7299,-2.7299,-2.7299,-2.7299,-2.7299,-2.7299,-2.7299,-2.7299,-2.7299,-2.7299,-2.7299,-2.7299,-2.7299,-2.7299,-2.7299,-2.7299,-2.7333,-2.7851,-2.8092,-2.8092,-2.8092,-2.8092,-2.8144,-2.861,-2.8799,-2.8851,-2.9334,-2.9506,-2.9506,0.0,0.0,0.0,0.0,0.0,0.0,0.0,0.0,0.0,0.0,0.0,0.0,0.0,0.0,-2.0579,-2.0841,-2.0627,-2.0588,-2.0841,-2.0627,-2.0471,-2.0471,-2.0432,-2.0441,-2.0428,-2.0434,0.0,0.0,0.0,0.0,0.0,-2.197,-2.2689,-2.265,-2.3724,-2.4468,0.0,0.0,0.0,-2.4647,0.0,0.0,-2.4266,0.0,0.0,0.0,0.0,0.0,-2.3792,-2.371,-2.371,-2.3714,-2.3732,-2.3728,-2.3707,-2.3728,-2.3646,0.0,0.0,0.0,0.0,0.0,0.0,0.0,0.0,0.0,-2.2764,-2.2712,-2.3081,-2.3426,-2.3426,-2.3895,-2.4365,-2.4625,-2.4413,-2.4229,-2.4229,-2.4453,-2.4798,-2.5281,-2.5574,-2.604,-2.6816,-2.6902,-2.7006,-2.7282,-2.7299,-2.7299,-2.7299,-2.7299,-2.7299,-2.7299,-2.7299,-2.7299,-2.7299,-2.7299,-2.7299,-2.7299,-2.7299,-2.7299,-2.7299,-2.7299,-2.7299,-2.7299,-2.7299,-2.7299,-2.7299,-2.7299,-2.7299,-2.7351,-2.7833,-2.8023,-2.8092,-2.8575,-2.8765,-2.8765,0.0,0.0,0.0,0.0,0.0,0.0,0.0,0.0,0.0,-2.0536,0.0,0.0,0.0,0.0,0.0,-2.1567,-2.0908,-2.0803,-2.1577,-2.0899,-2.0467,-2.0467,-2.0397,-2.0352,-2.0349,-2.0366,0.0,0.0,0.0,0.0,0.0,0.0,-2.2562,-2.2501,-2.4086,-2.4783,-2.4775,0.0,-2.4515,-2.4376,0.0,-2.4115,-2.3996,0.0,0.0,0.0,-2.3594,-2.3571,0.0,-2.3504,0.0,0.0,0.0,-2.3544,-2.3517,-2.3567,-2.3453,0.0,0.0,0.0,0.0,0.0,0.0,0.0,-2.2712,0.0,-2.2712,-2.2712,-2.2712,-2.2712,-2.2712,-2.2712,-2.2926,-2.3633,-2.3177,-2.2712,-2.2712,-2.3305,-2.377,-2.3788,-2.4505,-2.5264,-2.6006,-2.6074,-2.6385,-2.7161,-2.723,-2.723,-2.723,-2.723,-2.723,-2.7247,-2.7247,-2.7282,-2.7299,-2.7282,-2.7247,-2.7247,-2.723,-2.723,-2.7247,-2.7247,-2.7282,-2.7299,-2.7299,-2.7299,-2.7299,-2.7299,-2.7299,-2.7299,-2.7299,-2.7299,-2.7299,-2.7299,-2.7299,-2.7299,0.0,0.0,0.0,0.0,0.0,0.0,0.0,0.0,-2.0515,0.0,0.0,0.0,-2.1987,-2.2018,-2.2055,-2.225,-2.2087,-2.2077,-2.223,-2.2096,-2.1972,-2.1914,-2.1895,-2.1875,-2.1807,-2.1817,0.0,0.0,0.0,0.0,0.0,0.0,0.0,0.0,-2.4081,-2.4428,-2.4301,-2.441,0.0,-2.4171,-2.4056,-2.3899,0.0,0.0,0.0,0.0,0.0,-2.3199,-2.3151,0.0,-2.3077,-2.3109,0.0,0.0,0.0,0.0,0.0,0.0,-2.307,0.0,0.0,0.0,0.0,0.0,0.0,0.0,-2.2712,-2.2712,-2.2712,-2.2712,-2.2712,-2.2712,-2.2754,-2.2961,-2.285,-2.2712,-2.2712,-2.2875,-2.3185,-2.3736,-2.3994,-2.4453,-2.5229,-2.5316,-2.5402,-2.5626,-2.5643,-2.5643,-2.5643,-2.5643,-2.5885,-2.6419,-2.6437,-2.6713,-2.7282,-2.6713,-2.6437,-2.6437,-2.5885,-2.5919,-2.6437,-2.6437,-2.6747,-2.7299,-2.7299,-2.7299,-2.7299,-2.7299,-2.7299,-2.7299,-2.7299,-2.7299,-2.7299,-2.7299,-2.7299,-2.7299,0.0,0.0,0.0,0.0,0.0,0.0,0.0,0.0,-2.087,0.0,0.0,0.0,-2.2437,-2.2429,-2.2505,-2.281,-2.2533,-2.2483,-2.2773,-2.252,-2.2331,-2.2287,-2.2281,-2.2268,-2.2224,-2.223,0.0,0.0,0.0,0.0,0.0,0.0,0.0,0.0,0.0,0.0,0.0,0.0,0.0,0.0,-2.3789,0.0,0.0,-2.3324,-2.3199,0.0,0.0,0.0,-2.2686,-2.2634,-2.2634,0.0,0.0,0.0,0.0,0.0,0.0,0.0,0.0,0.0,0.0,0.0,0.0,0.0,-2.2712,-2.2712,-2.2712,-2.2712,-2.2712,-2.2712,-2.2712,-2.2712,-2.2712,-2.2712,-2.2712,-2.2712,-2.2712,-2.2712,-2.284,-2.3271,-2.3323,-2.3633,-2.4436,-2.4505,-2.4643,-2.4971,-2.5005,-2.5005,-2.5005,-2.5005,-2.5212,-2.5643,-2.5643,-2.5868,-2.6333,-2.5885,-2.5643,-2.5643,-2.5212,-2.5229,-2.5643,-2.5643,-2.5902,-2.6333,-2.6333,-2.6333,-2.635,-2.6678,-2.7006,-2.7299,-2.7299,-2.7299,-2.7299,-2.7299,-2.7299,-2.7299,0.0,0.0,0.0,0.0,0.0,0.0,0.0,0.0,0.0,0.0,-2.2457,-2.2475,-2.2417,-2.235,-2.2588,-2.3281,-2.2641,-2.2479,-2.3217,-2.2588,-2.2184,-2.2184,-2.2184,-2.2184,-2.2184,-2.2184,0.0,0.0,0.0,0.0,0.0,0.0,0.0,0.0,0.0,0.0,0.0,0.0,0.0,-2.3463,-2.3417,-2.3206,0.0,0.0,-2.2756,-2.2517,-2.2436,-2.2337,-2.222,-2.2136,-2.2192,0.0,0.0,0.0,0.0,0.0,-2.2712,0.0,0.0,0.0,0.0,0.0,-2.2685,0.0,-2.2712,-2.2712,-2.2712,-2.2712,-2.2712,-2.2712,-2.2712,-2.2712,-2.2712,-2.2712,-2.2712,-2.2712,-2.2712,-2.2712,-2.2712,-2.2712,-2.2712,-2.297,-2.3598,-2.3667,-2.396,-2.4695,-2.4747,-2.4747,-2.4747,-2.4747,-2.4781,-2.4867,-2.4867,-2.4919,-2.5005,-2.4919,-2.4867,-2.4867,-2.4781,-2.4798,-2.4867,-2.4867,-2.4919,-2.5005,-2.5005,-2.5005,-2.5057,-2.5712,-2.6454,-2.7178,-2.7264,-2.7299,-2.7299,-2.7299,-2.7299,-2.7299,-1.9011,0.0,0.0,0.0,0.0,0.0,0.0,0.0,0.0,-2.2843,-2.3412,-2.3731,-2.3731,-2.3565,-2.3524,-2.3686,-2.3502,-2.3426,-2.3587,-2.3462,-2.3371,-2.3367,-2.3367,-2.3329,-2.3288,-2.3347,-2.3367,0.0,0.0,0.0,0.0,0.0,0.0,0.0,0.0,0.0,0.0,0.0,0.0,-2.2712,-2.2755,0.0,-2.2493,-2.2347,-2.2209,-2.2113,-2.1986,-2.1869,-2.1781,-2.1675,-2.1764,-2.1899,0.0,0.0,0.0,-2.2237,0.0,0.0,0.0,0.0,0.0,0.0,-2.2659,0.0,-2.2712,-2.2712,-2.2712,-2.2712,-2.2712,-2.2712,-2.2712,-2.2712,-2.2712,-2.2712,-2.2712,-2.2712,-2.2712,-2.2712,-2.2712,-2.2712,-2.2712,-2.2763,-2.2892,-2.2892,-2.2988,-2.3143,-2.316,-2.316,-2.316,-2.316,-2.3436,-2.4012,-2.4012,-2.4367,-2.4988,-2.4367,-2.4012,-2.404,-2.3436,-2.347,-2.4012,-2.4012,-2.4402,-2.5005,-2.5005,-2.5005,-2.5023,-2.516,-2.5661,-2.6402,-2.704,-2.7299,-2.7299,-2.7299,-2.7299,-2.7299,-1.8999,0.0,0.0,0.0,0.0,0.0,0.0,0.0,0.0,-2.3344,-2.3666,-2.3759,-2.3635,-2.3468,-2.3356,-2.3323,-2.3264,-2.3241,-2.3236,-2.3241,-2.3241,-2.3236,-2.3236,-2.3253,-2.3189,-2.3236,-2.3259,0.0,0.0,0.0,0.0,0.0,0.0,0.0,0.0,0.0,0.0,0.0,-2.2298,-2.213,-2.2275,0.0,-2.2039,-2.1866,-2.1735,-2.165,-2.1918,-2.2151,-2.2231,-2.181,-2.1779,0.0,-2.1609,-2.1631,-2.1777,0.0,-2.2003,-2.2135,0.0,0.0,0.0,-2.2415,-2.2487,0.0,0.0,-2.2542,-2.2542,-2.2515,-2.2552,-2.2579,-2.2569,-2.2623,-2.2659,-2.2659,-2.2685,-2.2712,-2.2712,-2.2712,-2.2712,-2.2712,-2.2712,-2.2712,-2.2712,-2.2712,-2.2712,-2.2712,-2.2712,-2.2712,-2.2712,-2.2712,-2.2884,-2.3219,-2.3237,-2.347,-2.385,-2.347,-2.3237,-2.3237,-2.2875,-2.2875,-2.3237,-2.3237,-2.3488,-2.385,-2.385,-2.385,-2.3884,-2.4264,-2.4626,-2.5074,-2.6247,-2.6695,-2.6747,-2.7144,-2.7299,-2.7299,-1.8713,0.0,0.0,0.0,0.0,0.0,0.0,0.0,0.0,-2.3556,-2.3455,-2.323,-2.2972,-2.2855,-2.2772,-2.2643,-2.2617,-2.2617,-2.2617,-2.2617,-2.2617,-2.2617,-2.2617,-2.2617,-2.2617,-2.2617,-2.2643,0.0,0.0,0.0,0.0,0.0,0.0,0.0,0.0,0.0,0.0,0.0,0.0,-2.1831,0.0,-2.1983,-2.1573,-2.1564,-2.144,-2.1375,-2.2047,-2.2515,-2.2733,-2.2146,-2.2077,-2.212,-2.163,-2.1504,0.0,0.0,0.0,0.0,0.0,0.0,-2.2056,-2.2152,-2.2209,-2.2209,0.0,0.0,0.0,-2.2237,-2.2304,-2.2388,-2.2321,-2.2415,-2.2525,-2.2525,-2.2605,-2.2659,-2.2685,-2.2685,-2.2712,-2.2712,-2.2712,-2.2712,-2.2712,-2.2712,-2.2712,-2.2712,-2.2712,-2.2712,-2.2712,-2.2712,-2.2712,-2.2712,-2.2712,-2.2712,-2.2712,-2.2712,-2.2712,-2.2712,-2.2712,-2.2712,-2.2712,-2.2712,-2.2712,-2.2712,-2.2712,-2.2712,-2.2737,-2.3323,-2.3581,-2.3736,-2.5298,-2.5902,-2.5971,-2.6626,-2.6851,-2.6868,-1.8426,-1.8847,0.0,0.0,0.0,0.0,0.0,0.0,0.0,-2.3109,-2.2859,-2.2616,-2.2422,0.0,0.0,0.0,0.0,-2.1911,-2.1911,-2.1911,-2.1911,-2.1911,-2.1911,-2.1911,-2.1911,-2.1969,-2.2027,-2.201,0.0,0.0,0.0,0.0,0.0,0.0,-2.1797,0.0,0.0,0.0,-2.2362,0.0,-2.274,-2.2208,0.0,-2.1609,-2.1711,-2.1733,-2.2332,-2.2592,-2.2602,-2.254,-2.2567,-2.2608,-2.253,-2.2201,-2.185,-2.1883,0.0,0.0,0.0,-2.1556,-2.1738,-2.1754,-2.1857,-2.1957,-2.1957,0.0,-2.2027,-2.1957,0.0,-2.2027,-2.1957,0.0,0.0,-2.2315,-2.2443,-2.2525,-2.2605,-2.2659,-2.2712,-2.2712,-2.2712,-2.2712,-2.2712,-2.2712,-2.2712,-2.2712,-2.2712,-2.2712,-2.2712,-2.2712,-2.2712,-2.2712,-2.2712,-2.2712,-2.2712,-2.2712,-2.2712,-2.2712,-2.2712,-2.2712,-2.2712,-2.2712,-2.2712,-2.2712,-2.2712,-2.2712,-2.2712,-2.2771,-2.2806,-2.2988,-2.4522,-2.5126,-2.5143,-2.5229,-2.5264,-2.535,-1.9198,-1.9495,0.0,0.0,0.0,0.0,0.0,0.0,0.0,-2.2483,-2.2309,0.0,0.0,0.0,0.0,0.0,0.0,-2.123,-2.123,-2.123,0.0,-2.1276,-2.1276,-2.1308,-2.1323,-2.1354,-2.1432,-2.1493,-2.1524,0.0,0.0,0.0,0.0,0.0,-2.1198,0.0,-2.1696,0.0,-2.2266,0.0,0.0,-2.2404,0.0,-2.2164,-2.2452,-2.2698,-2.2933,-2.3266,-2.3529,-2.3142,-2.3026,-2.3063,-2.2658,-2.2155,-2.1714,-2.1714,0.0,0.0,-2.099,-2.1103,-2.1261,-2.1276,-2.1386,-2.1495,-2.1495,-2.157,-2.1615,-2.1526,0.0,0.0,0.0,0.0,0.0,0.0,-2.2158,-2.2271,-2.2326,-2.2398,-2.2542,-2.2685,-2.2712,-2.2712,-2.2712,-2.2712,-2.2712,-2.2712,-2.2712,-2.2712,-2.2712,-2.2712,-2.2712,-2.2712,-2.2712,-2.2712,-2.2712,-2.2712,-2.2712,-2.2712,-2.2712,-2.2712,-2.2712,-2.2712,-2.2685,-2.2632,-2.2632,-2.2605,-2.2579,-2.2579,-2.2579,-2.2647,-2.3354,-2.388,-2.4367,-2.4833,-2.5005,-2.504,-2.008,0.0,0.0,0.0,0.0,0.0,0.0,0.0,0.0,0.0,0.0,0.0,-2.1182,-2.1023,0.0,0.0,-2.0563,-2.059,-2.0793,-2.0808,-2.092,-2.1211,-2.1245,-2.1264,-2.1316,-2.1159,-2.1098,-2.1196,0.0,0.0,0.0,0.0,0.0,0.0,0.0,-2.1177,-2.1643,0.0,-2.2436,-2.2861,-2.2971,-2.2918,-2.2848,-2.2809,-2.315,-2.3628,-2.3603,-2.3902,-2.4199,-2.3733,-2.3603,-2.3551,-2.3057,-2.2492,-2.1972,-2.1786,0.0,0.0,-2.0642,-2.0679,-2.0745,-2.0828,-2.0909,-2.1006,-2.1038,-2.1151,-2.1198,-2.1071,-2.1166,0.0,0.0,0.0,-2.1601,-2.1631,0.0,-2.1953,-2.1998,-2.2089,-2.2293,-2.2579,-2.2632,-2.2659,-2.2659,-2.2659,-2.2685,-2.2712,-2.2712,-2.2712,-2.2712,-2.2712,-2.2712,-2.2712,-2.2712,-2.2712,-2.2712,-2.2712,-2.2712,-2.2712,-2.2685,-2.2659,-2.2659,-2.2632,-2.2579,-2.2525,-2.2497,-2.2426,-2.2371,-2.2371,-2.2371,-2.2415,-2.247,-2.285,-2.3481,-2.4132,-2.4367,-2.4402,-2.083,-2.0708,0.0,0.0,0.0,0.0,0.0,0.0,0.0,0.0,0.0,0.0,0.0,0.0,0.0,0.0,0.0,-2.011,-2.0752,-2.0798,-2.1175,-2.2018,-2.2049,-2.2087,-2.2171,-2.1526,-2.1203,-2.1203,0.0,0.0,0.0,0.0,0.0,0.0,0.0,-2.1203,-2.1311,-2.2671,-2.324,-2.3332,-2.384,-2.4017,-2.3888,-2.3437,-2.3686,-2.4271,-2.4271,-2.4219,-2.4208,-2.4245,-2.4204,-2.4177,-2.4214,-2.3682,-2.2928,-2.2355,-2.1666,-2.0941,-2.0319,-2.022,-2.0339,-2.0388,-2.0475,-2.0561,-2.0693,-2.0777,-2.0794,-2.0726,-2.0777,-2.0794,-2.0726,-2.0941,-2.1151,-2.1198,-2.1401,0.0,0.0,-2.1768,-2.1974,-2.2349,-2.246,-2.2542,-2.2596,-2.2605,-2.2632,-2.2685,-2.2712,-2.2712,-2.2712,-2.2712,-2.2712,-2.2712,-2.2712,-2.2712,-2.2712,-2.2712,-2.2712,-2.2712,-2.2632,-2.2605,-2.2605,-2.246,-2.2405,-2.2405,-2.2198,-2.2124,-2.2124,-2.2124,-2.2124,-2.2141,-2.2265,-2.2327,-2.2372,-2.2674,-2.2754,-2.2884,0.0,0.0,0.0,0.0,0.0,0.0,0.0,-2.1103,0.0,0.0,-2.0465,0.0,0.0,-1.9717,-1.9464,0.0,0.0,-1.9837,-2.0055,-2.0451,-2.0866,-2.1274,-2.1329,-2.1395,-2.1525,-2.1317,-2.1212,-2.1212,0.0,0.0,0.0,0.0,0.0,0.0,0.0,-2.1702,0.0,0.0,0.0,0.0,0.0,-2.3638,-2.3623,-2.3709,-2.391,-2.4109,-2.4109,-2.4024,-2.3925,-2.4067,-2.4024,-2.3925,-2.4067,-2.3249,-2.2188,-2.2015,-2.1114,-2.0104,-1.9893,-1.9869,-1.9904,-1.999,-2.0096,-2.0235,-2.0407,-2.0475,-2.0509,-2.0525,-2.0543,-2.0561,-2.0509,-2.0677,-2.0843,-2.0876,-2.1007,-2.1119,0.0,-2.1324,-2.1526,-2.1648,-2.2015,-2.2271,-2.2371,-2.247,-2.2569,-2.2632,-2.2632,-2.2632,-2.2632,-2.2579,-2.2569,-2.2569,-2.2569,-2.2579,-2.2632,-2.2632,-2.2632,-2.2632,-2.2569,-2.247,-2.2415,-2.2231,-2.2089,-2.2003,-2.1869,-2.1764,-2.1688,-2.1688,-2.1688,-2.1718,-2.1915,-2.1991,-2.2003,-2.236,-2.2515,-2.2549,-1.9975,0.0,0.0,0.0,0.0,0.0,0.0,0.0,0.0,0.0,-2.002,0.0,-1.9398,0.0,-1.9142,-1.8827,-1.8959,-1.9288,-1.978,-2.0161,-2.0713,-2.1399,-2.1413,-2.1499,-2.1684,-2.1465,-2.1364,-2.1364,0.0,-2.1111,0.0,0.0,0.0,0.0,0.0,-2.1889,-2.2344,-2.2466,-2.2761,0.0,0.0,-2.3098,-2.3098,-2.3377,-2.361,-2.3797,-2.3797,-2.3653,-2.3523,-2.3668,-2.3625,-2.3523,-2.3711,-2.3083,-2.2166,-2.1704,-2.0896,-2.0049,-1.959,-1.9508,-1.9493,-1.9566,-1.969,-1.9848,-2.0045,-2.0131,-2.02,-2.025,-2.0304,-2.0339,-2.0304,-2.0441,-2.0559,-2.0592,-2.0695,-2.0778,0.0,-2.0958,-2.1103,-2.1103,-2.1554,-2.1969,-2.2147,-2.226,-2.2371,-2.2515,-2.2542,-2.2542,-2.2542,-2.2415,-2.2388,-2.2432,-2.2388,-2.2398,-2.2487,-2.2487,-2.247,-2.2426,-2.2343,-2.2231,-2.2118,-2.1853,-2.1705,-2.1617,-2.1495,-2.1386,-2.1308,-2.1308,-2.1308,-2.1308,-2.1462,-2.154,-2.1648,-2.2089,-2.2276,-2.226,-1.9457,0.0,0.0,0.0,-2.027,0.0,0.0,-1.9975,-1.9756,0.0,-1.9874,-1.9788,-1.8941,-1.9188,-1.9071,-1.8299,-1.8152,-1.8645,-1.9885,-2.0009,-2.074,-2.2267,-2.2324,-2.2356,-2.2466,-2.1865,-2.1581,-2.1581,0.0,0.0,0.0,0.0,0.0,0.0,-2.147,0.0,-2.1946,-2.2449,-2.2663,-2.2663,-2.2512,-2.2466,-2.2466,-2.2466,-2.283,-2.3319,-2.3363,-2.3143,-2.2889,-2.3172,-2.3083,-2.2934,-2.3172,-2.3157,-2.2805,-2.1576,-2.1085,-2.0643,-1.944,-1.9093,-1.9101,-1.9132,-1.9273,-1.9413,-1.9617,-1.9726,-1.9797,-1.9919,-1.997,-1.999,-2.008,-2.0185,-2.0304,-2.0388,-2.0441,-2.0494,-2.0494,-2.061,-2.0693,-2.0693,-2.1135,-2.1554,-2.1823,-2.194,-2.2101,-2.2349,-2.2377,-2.2377,-2.2377,-2.2169,-2.213,-2.2254,-2.213,-2.213,-2.2282,-2.2282,-2.222,-2.2068,-2.194,-2.184,-2.1751,-2.1433,-2.1277,-2.1246,-2.1007,-2.0861,-2.0861,-2.0861,-2.0861,-2.0893,-2.0942,-2.1071,-2.123,-2.1764,-2.1969,-2.1969,-1.8936,-1.9387,-1.9864,0.0,-2.0131,-1.9912,-2.0101,-1.9962,-1.9864,0.0,-1.9978,-1.9809,-1.9501,-1.9437,-1.9141,-1.8545,-1.9202,-1.957,-1.9481,-2.0254,-2.0954,-2.1506,-2.152,-2.1554,-2.1684,-2.1547,-2.1431,-2.1431,0.0,0.0,-2.1477,0.0,0.0,0.0,0.0,0.0,-2.213,-2.2146,-2.2077,-2.1888,-2.1921,-2.1921,-2.1827,-2.1921,-2.2016,-2.2109,-2.2558,-2.2663,-2.254,-2.2663,-2.2632,-2.254,-2.2663,-2.2302,-2.1783,-2.1425,-2.0628,-1.9749,-1.9397,-1.9013,-1.8659,-1.8745,-1.8784,-1.8898,-1.9213,-1.9288,-1.9325,-1.9523,-1.9581,-1.9675,-1.9797,-1.994,-2.0096,-2.015,-2.027,-2.0373,-2.0373,-2.0407,-2.0491,-2.0491,-2.0628,-2.0942,-2.1402,-2.1691,-2.1928,-2.2101,-2.2044,-2.2015,-2.2015,-2.1794,-2.1675,-2.1705,-2.1658,-2.1721,-2.1844,-2.1844,-2.1844,-2.1797,-2.1691,-2.1524,-2.1355,-2.1103,-2.0958,-2.0843,-2.0662,-2.0579,-2.0579,-2.0579,-2.0579,-2.0613,-2.0728,-2.0827,-2.0958,-2.1386,-2.1584,-2.1628,-1.9249,-1.9653,0.0,-2.0245,-2.0002,-1.9872,-2.0122,-1.9948,-1.9894,-1.9929,-1.9997,-1.9931,-1.957,-1.9605,-1.9448,-1.8861,-1.9317,-1.9602,-1.9595,-2.0205,-2.0718,-2.1006,-2.1082,-2.1131,-2.1166,-2.118,-2.1229,-2.1229,0.0,0.0,-2.1471,0.0,0.0,0.0,0.0,-2.1949,-2.1949,-2.1746,-2.152,-2.1326,-2.1423,-2.1423,0.0,-2.1423,-2.1423,-2.1361,-2.1732,-2.1874,-2.1888,-2.1969,-2.1969,-2.1888,-2.1969,-2.1778,-2.1425,-2.1161,-2.0603,-2.0004,-1.974,-1.921,-1.8751,-1.8817,-1.8632,-1.8539,-1.876,-1.8874,-1.8936,-1.9101,-1.9199,-1.931,-1.9442,-1.9617,-1.9777,-1.994,-2.008,-2.0166,-2.0166,-2.02,-2.025,-2.027,-2.0357,-2.0561,-2.1006,-2.134,-2.1617,-2.1811,-2.1797,-2.1721,-2.1675,-2.1432,-2.1308,-2.1291,-2.126,-2.1276,-2.1401,-2.1401,-2.1386,-2.1355,-2.1245,-2.1135,-2.0958,-2.0761,-2.0628,-2.0559,-2.0475,-2.0392,-2.0392,-2.0392,-2.0392,-2.0426,-2.0525,-2.0577,-2.0677,-2.0909,-2.1103,-2.1182,-1.9874,0.0,0.0,0.0,0.0,-2.0042,-2.0191,-2.0062,-1.9884,-1.9728,-2.0107,-2.0134,-1.9535,-1.9853,-1.9824,-1.9199,-1.9107,-1.9316,-1.9903,-2.0009,-2.021,-2.0683,-2.0822,-2.0835,-2.0709,-2.0835,-2.0885,-2.0947,0.0,0.0,0.0,0.0,0.0,0.0,0.0,0.0,0.0,-2.1277,-2.1082,-2.0997,-2.0997,-2.0997,-2.0947,-2.0947,-2.0947,-2.0947,-2.0947,-2.1033,-2.118,-2.1326,-2.1277,-2.118,-2.1326,-2.1423,-2.1411,-2.0893,-2.0781,-2.0694,-2.0172,-1.9594,-1.9113,-1.903,-1.8645,-1.8351,-1.8375,-1.845,-1.8514,-1.8669,-1.8745,-1.886,-1.9072,-1.925,-1.945,-1.9726,-1.9848,-1.9919,-1.9955,-1.9955,0.0,0.0,-2.015,0.0,-2.0626,-2.0957,-2.1262,-2.1528,-2.1511,-2.1481,-2.1355,-2.1151,-2.0974,-2.0942,-2.0893,-2.0893,-2.0942,-2.0926,-2.091,-2.0828,-2.0794,-2.0744,-2.066,-2.0491,-2.0388,-2.0388,-2.0339,-2.0304,-2.0304,-2.0304,-2.0304,-2.0304,-2.0354,-2.0388,-2.0388,-2.046,-2.0595,-2.0728,-1.9834,0.0,0.0,0.0,0.0,-2.0603,-2.0407,-2.03,-2.0274,-2.0404,-2.0637,-2.069,-2.0325,-2.0453,-2.0283,-1.9564,-1.9941,-1.9995,-1.9523,-1.9922,-2.0181,-2.0131,-2.0283,-2.0283,-2.0131,-2.0283,-2.0435,-2.0612,-2.0623,0.0,0.0,0.0,0.0,0.0,0.0,0.0,-2.1082,-2.1033,-2.101,-2.0938,-2.0938,-2.0875,-2.0749,-2.0749,-2.0749,-2.0749,-2.0749,-2.0848,-2.1033,-2.1033,-2.1033,-2.1033,-2.1033,-2.1082,-2.1055,-2.0962,-2.0636,-2.0281,-2.0174,-1.9718,-1.9168,-1.8642,-1.8428,-1.8269,-1.7909,-1.7842,-1.7909,-1.8121,-1.8254,-1.8386,-1.8581,-1.8912,-1.925,-1.9493,-1.9566,-1.9639,-1.9726,-1.9762,-1.9762,0.0,-1.9869,-2.001,-2.0339,-2.0712,-2.1055,-2.123,-2.1119,-2.0991,-2.0991,-2.0745,-2.0595,-2.0579,-2.0579,-2.0579,-2.0579,-2.0579,-2.0579,-2.0561,-2.0561,-2.0509,-2.0457,-2.0423,-2.0388,-2.0304,-2.0304,-2.0304,-2.0304,-2.0304,-2.0304,-2.0304,-2.0304,-2.0304,-2.0304,-2.0339,-2.0373,-2.0392,-2.0116,0.0,0.0,0.0,-2.0472,-2.0359,-2.0016,-1.9939,-2.0012,-2.0245,-2.0448,-2.0461,-2.0246,-2.0347,-2.0281,-1.9824,-2.0041,-2.0029,-1.9548,-1.9775,-1.9811,-1.9604,-1.972,-1.972,-1.9617,-1.9772,-1.9978,-2.0131,-2.0321,-2.0498,-2.0675,0.0,0.0,0.0,0.0,-2.0772,0.0,-2.0636,-2.0649,-2.0675,-2.0675,-2.0725,-2.0699,-2.0699,-2.0699,-2.0699,-2.0699,-2.0749,-2.0848,-2.0848,-2.0848,-2.0848,-2.0848,-2.0911,-2.0974,-2.0974,-2.0811,-2.062,-2.062,-1.9967,-1.9234,-1.8955,-1.8422,-1.7889,-1.7637,-1.7625,-1.7611,-1.772,-1.7868,-1.8003,-1.8282,-1.8874,-1.9233,-1.9055,-1.9072,-1.9161,-1.9236,-1.9273,-1.931,-1.9435,0.0,0.0,-1.9995,-2.0292,-2.0613,-2.0924,-2.0843,-2.0761,-2.0712,-2.0527,-2.0441,-2.0392,-2.0407,-2.0407,-2.0407,-2.0407,-2.0407,-2.0407,-2.0407,-2.0373,-2.0354,-2.0354,-2.0339,-2.0304,-2.0304,-2.0304,-2.0304,-2.0304,-2.0304,-2.0304,-2.0304,-2.0304,-2.0304,-2.0304,-2.0304,-2.0304,0.0,-2.0271,0.0,0.0,-2.0029,-1.9862,-1.9512,-1.946,-1.9565,-1.9772,-1.9926,-1.9978,-1.9823,-1.9926,-1.9978,-1.9823,-1.9823,-1.972,-1.9512,-1.946,-1.9356,-1.9146,-1.9251,-1.9251,-1.9133,-1.9344,-1.9552,-1.9708,-1.9978,-2.0182,-2.041,-2.0625,0.0,0.0,0.0,-2.0359,-2.022,-2.0131,-2.0182,-2.0347,-2.036,-2.0448,-2.0599,-2.0599,-2.0599,-2.0599,-2.0599,-2.0599,-2.0599,-2.0599,-2.0649,-2.0699,-2.0699,-2.0762,-2.0838,-2.0838,-2.0861,-2.0921,-2.0801,-2.0099,-1.9343,-1.9091,-1.8415,-1.7779,-1.7659,-1.7726,-1.7805,-1.7805,-1.7958,-1.8138,-1.8413,-1.892,-1.9193,-1.8742,-1.8676,-1.8707,-1.8721,-1.8798,-1.8874,-1.8988,0.0,-1.9398,-1.9645,-1.9839,-2.015,-2.0509,-2.0592,-2.0577,-2.046,-2.0423,-2.0354,-2.0304,-2.0304,-2.0304,-2.0304,-2.0304,-2.0304,-2.0304,-2.0304,-2.0304,-2.0304,-2.0304,-2.0304,-2.0304,-2.0304,-2.0304,-2.0304,-2.0304,-2.0304,-2.0304,-2.0304,-2.0304,-2.0304,-2.0304,-2.0304,-2.0304,0.0,0.0,-1.9512,-1.9473,-1.9344,-1.9239,-1.9093,-1.904,-1.9093,-1.9239,-1.9408,-1.9408,-1.9291,-1.9408,-1.9408,-1.9291,-1.9279,-1.9186,-1.9093,-1.904,-1.8999,-1.8851,-1.8946,-1.8999,-1.8851,-1.8999,-1.9198,-1.942,-1.9565,-1.9772,-2.0042,-2.0195,-2.0195,-2.0093,-1.9965,-1.9811,-1.9668,-1.9668,-1.9759,-1.9862,-1.999,-2.0144,-2.0233,-2.0233,-2.0233,-2.0233,-2.0233,-2.0233,-2.0233,-2.0233,-2.0448,-2.0699,-2.0699,-2.0712,-2.0712,-2.0712,-2.0699,-2.0594,-2.007,-1.9847,-1.952,-1.8472,-1.8511,-1.8655,-1.817,-1.8432,-1.8799,-1.8916,-1.9051,-1.9186,-1.9262,-1.9003,-1.8821,-1.8934,-1.8627,-1.8397,-1.8503,-1.8517,-1.8581,-1.863,-1.8784,-1.8959,-1.9244,-1.9442,-1.9711,-2.0025,-2.0285,-2.0423,-2.0423,-2.0354,-2.0304,-2.0304,-2.0304,-2.0304,-2.0304,-2.0304,-2.0304,-2.0304,-2.0304,-2.0304,-2.0304,-2.0304,-2.0304,-2.0304,-2.0304,-2.0304,-2.0304,-2.0304,-2.0304,-2.0304,-2.0304,-2.0304,-2.0304,-2.0304,-2.0304,-2.0304,-1.9011,-1.9105,-1.9158,-1.9064,-1.8999,-1.8893,-1.8679,-1.8625,-1.8625,-1.856,-1.8881,-1.9105,-1.8999,-1.9093,-1.9105,-1.8999,-1.8946,-1.8893,-1.8625,-1.8625,-1.8572,-1.841,-1.841,-1.841,-1.8356,-1.8572,-1.8732,-1.8934,-1.9146,-1.9356,-1.9629,-1.9772,-1.9772,-1.9629,-1.95,-1.9396,-1.9251,-1.9251,-1.9291,-1.9436,-1.9565,-1.972,-1.9875,-1.9914,-1.9965,-1.9965,-1.9965,-1.9914,-1.9875,-1.9914,-2.0182,-2.0448,-2.0562,-2.0562,-2.0612,-2.0662,-2.0699,-2.0581,-1.9956,-1.9538,-1.9081,-1.8296,-1.7996,-1.7917,-1.8061,-1.827,-1.8519,-1.8891,-1.9384,-1.9622,-1.9277,-1.9101,-1.8967,-1.869,-1.8194,-1.7841,-1.7882,-1.8029,-1.8149,-1.8189,-1.8358,-1.8577,-1.8808,-1.9087,-1.9384,-1.969,-2.001,-2.022,-2.022,-2.0185,-2.015,-2.0131,-2.0131,-2.0131,-2.0185,-2.0185,-2.022,-2.0304,-2.0304,-2.0304,-2.0304,-2.0304,-2.0304,-2.0304,-2.0304,-2.0304,-2.0304,-2.0304,-2.0304,-2.0304,-2.0304,-2.0304,-2.0304,-2.0304,-2.027,-2.0185,-1.8691,-1.8732,-1.8721,-1.8691,-1.8637,-1.853,-1.8367,-1.8313,-1.8259,-1.8139,-1.8464,-1.8679,-1.8583,-1.8679,-1.8679,-1.8583,-1.8583,-1.853,-1.8313,-1.8313,-1.8259,-1.8096,-1.8084,-1.8084,-1.8084,-1.8259,-1.841,-1.8518,-1.8774,-1.8999,-1.921,-1.9356,-1.9356,-1.921,-1.9093,-1.8934,-1.8839,-1.8839,-1.8881,-1.9028,-1.9146,-1.9316,-1.946,-1.9552,-1.9552,-1.9552,-1.9552,-1.95,-1.946,-1.9552,-1.9708,-1.9926,-2.0258,-2.036,-2.041,-2.0562,-2.0662,-2.0492,-1.9747,-1.9224,-1.8741,-1.7965,-1.76,-1.7561,-1.813,-1.839,-1.8695,-1.9303,-1.9843,-2.0075,-1.9666,-1.9403,-1.9078,-1.8667,-1.7993,-1.7516,-1.7516,-1.7652,-1.7788,-1.7842,-1.8016,-1.824,-1.8436,-1.8784,-1.9049,-1.9347,-1.966,-1.9889,-2.001,-2.001,-1.9975,-1.9919,-1.9919,-1.994,-2.001,-2.001,-2.008,-2.02,-2.02,-2.02,-2.02,-2.02,-2.02,-2.02,-2.02,-2.02,-2.02,-2.02,-2.02,-2.02,-2.02,-2.02,-2.02,-2.02,-2.0131,-2.001,-1.8367,-1.8259,-1.8193,-1.8367,-1.8259,-1.8084,-1.8084,-1.8084,-1.8084,-1.8084,-1.8096,-1.8084,-1.8084,-1.8084,-1.8084,-1.8084,-1.8084,-1.8084,-1.8084,-1.8084,-1.8084,-1.8084,-1.8084,-1.8084,-1.8084,-1.8084,-1.8193,-1.8422,-1.8518,-1.8679,-1.8798,-1.8946,-1.8946,-1.8798,-1.8679,-1.8518,-1.8422,-1.8422,-1.8464,-1.8614,-1.8732,-1.8893,-1.8987,-1.8987,-1.8987,-1.8987,-1.8987,-1.8987,-1.8987,-1.8987,-1.8987,-1.9146,-1.9784,-1.999,-2.0093,-2.041,-2.0511,-2.0265,-1.9191,-1.8911,-1.8591,-1.7329,-1.7471,-1.8028,-1.8498,-1.9132,-1.9772,-2.0518,-2.0686,-2.0686,-2.0686,-1.9803,-1.9087,-1.9074,-1.8216,-1.7516,-1.7516,-1.7516,-1.757,-1.7679,-1.7801,-1.8003,-1.8202,-1.845,-1.8745,-1.9064,-1.9184,-1.9369,-1.9762,-1.9797,-1.9762,-1.9726,-1.969,-1.9726,-1.9797,-1.9797,-1.9884,-2.0005,-2.0005,-2.0005,-2.0005,-2.0005,-2.0005,-2.0005,-2.0005,-2.0005,-2.0005,-2.0005,-2.0005,-2.0005,-2.0005,-2.0005,-2.0005,-2.0005,-1.9919,-1.9797,-1.8193,-1.8139,-1.8139,-1.8193,-1.8139,-1.8084,-1.8084,-1.8084,-1.8084,-1.8084,-1.8084,-1.8084,-1.8084,-1.8084,-1.8084,-1.8084,-1.8084,-1.8084,-1.8084,-1.8084,-1.8084,-1.8084,-1.8084,-1.8084,-1.8084,-1.8084,-1.8139,-1.8205,-1.8247,-1.8356,-1.853,-1.8583,-1.8583,-1.853,-1.8356,-1.8247,-1.8205,-1.8205,-1.8193,-1.8302,-1.8476,-1.853,-1.8572,-1.8667,-1.8721,-1.8721,-1.8721,-1.8679,-1.8572,-1.8679,-1.8679,-1.8679,-1.9052,-1.9368,-1.9681,-2.0042,-2.0144,-1.9952,-1.8982,-1.8719,-1.8402,-1.7127,-1.7224,-1.774,-1.8219,-1.9116,-2.0015,-2.0472,-2.0562,-2.0612,-2.0662,-1.9756,-1.8957,-1.8957,-1.803,-1.7323,-1.7323,-1.7378,-1.7432,-1.7487,-1.7638,-1.7801,-1.7963,-1.8189,-1.8425,-1.8659,-1.8745,-1.9011,-1.9487,-1.9457,-1.9369,-1.9273,-1.9288,-1.931,-1.9406,-1.9472,-1.9581,-1.9639,-1.9762,-1.9797,-1.9797,-1.9797,-1.9797,-1.9797,-1.9797,-1.9797,-1.9797,-1.9797,-1.9797,-1.9797,-1.9797,-1.9797,-1.9762,-1.969,-1.9581,-1.9523,-1.7755,-1.7755,-1.7755,-1.7755,-1.7755,-1.7755,-1.7755,-1.7755,-1.7755,-1.7755,-1.7755,-1.7755,-1.7755,-1.7755,-1.7854,-1.8084,-1.8084,-1.8084,-1.8084,-1.8084,-1.8084,-1.8084,-1.8084,-1.8084,-1.8084,-1.8084,-1.8084,-1.8084,-1.8084,-1.8139,-1.8313,-1.8313,-1.8313,-1.8259,-1.8139,-1.8084,-1.8084,-1.8084,-1.8084,-1.8084,-1.8259,-1.8313,-1.8313,-1.841,-1.8398,-1.8398,-1.8398,-1.8356,-1.8313,-1.841,-1.8356,-1.8313,-1.8583,-1.8851,-1.9105,-1.9565,-1.9733,-1.9597,-1.8649,-1.8393,-1.808,-1.6823,-1.6873,-1.7439,-1.8138,-1.9033,-1.9888,-2.0182,-2.0296,-2.0283,-2.0213,-1.9422,-1.8721,-1.85,-1.7713,-1.7115,-1.7115,-1.7253,-1.735,-1.7404,-1.7528,-1.7638,-1.7747,-1.7922,-1.8109,-1.8307,-1.8358,-1.8553,-1.895,-1.9035,-1.9035,-1.8988,-1.8988,-1.9011,-1.9124,-1.9191,-1.9302,-1.9347,-1.942,-1.9457,-1.9457,-1.9457,-1.9457,-1.9457,-1.9457,-1.9457,-1.9457,-1.9457,-1.942,-1.9384,-1.9384,-1.9384,-1.9347,-1.9273,-1.9161,-1.9101,-1.7231,-1.7231,-1.7231,-1.7231,-1.7199,-1.7177,-1.7177,-1.7155,-1.7134,-1.7134,-1.7134,-1.7134,-1.7134,-1.7134,-1.7357,-1.792,-1.803,-1.803,-1.803,-1.803,-1.803,-1.803,-1.803,-1.8084,-1.8084,-1.8084,-1.8084,-1.8084,-1.8084,-1.8084,-1.8084,-1.8084,-1.8084,-1.8084,-1.8084,-1.8084,-1.8084,-1.8084,-1.8084,-1.8084,-1.8084,-1.8084,-1.8084,-1.8084,-1.8084,-1.8084,-1.8084,-1.8084,-1.8084,-1.8084,-1.8084,-1.8139,-1.8313,-1.8367,-1.8464,-1.9028,-1.9251,-1.9123,-1.819,-1.7977,-1.7694,-1.6507,-1.6556,-1.7157,-1.8163,-1.8897,-1.9408,-1.9708,-1.9875,-1.9813,-1.9441,-1.8904,-1.8367,-1.7766,-1.729,-1.696,-1.7002,-1.7115,-1.7253,-1.7363,-1.7404,-1.7432,-1.7488,-1.7625,-1.7747,-1.7948,-1.7948,-1.8068,-1.8279,-1.8592,-1.8745,-1.8745,-1.8745,-1.8836,-1.8955,-1.8955,-1.8979,-1.9064,-1.9064,-1.9064,-1.9064,-1.9064,-1.9064,-1.9064,-1.9064,-1.9064,-1.9064,-1.9064,-1.8988,-1.886,-1.886,-1.8822,-1.8784,-1.8784,-1.8707,-1.8592,-1.7478,-1.7417,-1.7417,-1.7417,-1.7176,-1.6994,-1.6994,-1.6702,-1.6482,-1.6482,-1.6482,-1.6482,-1.6482,-1.6482,-1.6595,-1.6708,-1.7123,-1.7412,-1.7412,-1.7412,-1.7468,-1.7645,-1.7645,-1.7744,-1.7963,-1.7963,-1.8018,-1.8084,-1.8084,-1.8084,-1.8084,-1.8084,-1.8084,-1.8084,-1.8084,-1.8084,-1.8084,-1.8084,-1.8084,-1.8084,-1.8084,-1.8084,-1.8084,-1.8084,-1.8084,-1.8084,-1.8084,-1.8084,-1.8084,-1.8084,-1.8084,-1.8084,-1.8139,-1.8193,-1.8247,-1.8732,-1.8893,-1.8718,-1.7799,-1.7557,-1.7352,-1.6536,-1.6943,-1.7748,-1.8505,-1.8809,-1.8999,-1.9291,-1.946,-1.9403,-1.8996,-1.8616,-1.8109,-1.7574,-1.7073,-1.6803,-1.6918,-1.7002,-1.7086,-1.7253,-1.735,-1.7404,-1.7432,-1.7502,-1.757,-1.7598,-1.7693,-1.7828,-1.7989,-1.8121,-1.824,-1.8347,-1.8347,-1.8372,-1.8475,-1.8475,-1.8528,-1.862,-1.862,-1.862,-1.862,-1.862,-1.862,-1.862,-1.862,-1.862,-1.862,-1.862,-1.862,-1.8581,-1.8581,-1.8581,-1.8542,-1.8475,-1.8383,-1.8344,-1.6878,-1.6878,-1.6878,-1.6878,-1.6503,-1.6267,-1.6267,-1.59,-1.568,-1.568,-1.568,-1.568,-1.568,-1.568,-1.568,-1.568,-1.6368,-1.6775,-1.6775,-1.6842,-1.6965,-1.7078,-1.719,-1.7346,-1.7579,-1.7689,-1.7799,-1.7931,-1.7931,-1.7931,-1.7931,-1.7865,-1.781,-1.781,-1.7755,-1.7689,-1.7689,-1.77,-1.77,-1.7689,-1.7689,-1.7755,-1.781,-1.781,-1.7865,-1.7931,-1.7931,-1.7975,-1.803,-1.803,-1.803,-1.8084,-1.8084,-1.8084,-1.8139,-1.8422,-1.853,-1.8413,-1.7414,-1.7118,-1.7036,-1.6607,-1.7047,-1.7769,-1.8359,-1.853,-1.8691,-1.8869,-1.904,-1.8927,-1.8276,-1.7995,-1.7599,-1.6786,-1.656,-1.6504,-1.6595,-1.6735,-1.6918,-1.7044,-1.7141,-1.7183,-1.7183,-1.7212,-1.7282,-1.7352,-1.7406,-1.7543,-1.7706,-1.776,-1.7882,-1.8202,-1.8202,-1.8228,-1.8254,-1.8254,-1.8293,-1.8361,-1.8361,-1.8361,-1.8361,-1.8361,-1.8361,-1.8361,-1.8361,-1.8361,-1.8361,-1.8361,-1.8307,-1.8254,-1.8228,-1.8202,-1.8109,-1.7962,-1.7908,-1.7922,-1.5964,-1.6002,-1.6039,-1.6039,-1.5694,-1.5476,-1.5476,-1.5074,-1.4775,-1.4775,-1.4775,-1.4775,-1.4775,-1.4775,-1.4775,-1.4775,-1.5507,-1.5958,-1.6083,-1.6275,-1.6343,-1.64,-1.6616,-1.6842,-1.7022,-1.7245,-1.7423,-1.7545,-1.7545,-1.7545,-1.7545,-1.7423,-1.7357,-1.7357,-1.719,-1.7078,-1.7078,-1.7145,-1.7145,-1.7067,-1.7078,-1.7245,-1.7412,-1.7412,-1.7534,-1.7645,-1.7711,-1.7755,-1.7854,-1.7854,-1.7975,-1.8041,-1.8041,-1.8041,-1.8041,-1.8041,-1.8139,-1.8105,-1.7166,-1.6888,-1.6865,-1.6738,-1.7117,-1.7611,-1.7993,-1.8247,-1.8367,-1.8506,-1.8566,-1.8329,-1.7444,-1.7254,-1.6931,-1.5903,-1.5969,-1.6144,-1.6238,-1.6436,-1.6675,-1.6791,-1.6833,-1.6833,-1.6833,-1.6833,-1.6918,-1.7115,-1.7157,-1.724,-1.7393,-1.7434,-1.7652,-1.8043,-1.8083,-1.8123,-1.8163,-1.8163,-1.8123,-1.8123,-1.8109,-1.8069,-1.8069,-1.8069,-1.8069,-1.8069,-1.8069,-1.8069,-1.8069,-1.8069,-1.8016,-1.7922,-1.7868,-1.7747,-1.7679,-1.7529,-1.7516,-1.7516,-1.5447,-1.5635,-1.5869,-1.5869,-1.5546,-1.5221,-1.5221,-1.4595,-1.413,-1.413,-1.413,-1.413,-1.413,-1.413,-1.413,-1.413,-1.424,-1.4588,-1.5059,-1.5118,-1.5235,-1.541,-1.5584,-1.5816,-1.6285,-1.6694,-1.6931,-1.6931,-1.6931,-1.6931,-1.6931,-1.6931,-1.6864,-1.674,-1.6684,-1.6616,-1.6425,-1.6425,-1.6425,-1.6425,-1.6616,-1.6786,-1.6944,-1.7179,-1.7357,-1.7534,-1.7656,-1.7711,-1.7711,-1.7711,-1.7755,-1.7767,-1.7767,-1.7767,-1.7767,-1.7767,-1.7767,-1.7752,-1.7427,-1.7306,-1.7306,-1.7255,-1.7645,-1.7993,-1.8061,-1.8139,-1.8139,-1.8193,-1.7966,-1.7594,-1.7,-1.6643,-1.6291,-1.5664,-1.5659,-1.5792,-1.5869,-1.61,-1.6318,-1.6367,-1.6509,-1.6565,-1.6565,-1.6565,-1.662,-1.6761,-1.6876,-1.696,-1.7086,-1.7199,-1.7282,-1.7365,-1.7625,-1.7842,-1.7963,-1.7963,-1.7882,-1.776,-1.7652,-1.7611,-1.7611,-1.7611,-1.7611,-1.7611,-1.7611,-1.7611,-1.7611,-1.7611,-1.7598,-1.7598,-1.757,-1.757,-1.7529,-1.7516,-1.7516,-1.7516,-1.4972,-1.5077,-1.5251,-1.5451,-1.4998,-1.4684,-1.4902,-1.4266,-1.3761,-1.3761,-1.3761,-1.3761,-1.3761,-1.3761,-1.3761,-1.3761,-1.3761,-1.3872,-1.4112,-1.4359,-1.4538,-1.4656,-1.4883,-1.5235,-1.57,-1.5979,-1.6218,-1.6343,-1.6343,-1.6275,-1.6151,-1.6104,-1.5989,-1.5816,-1.57,-1.5642,-1.5575,-1.5575,-1.5575,-1.5575,-1.5642,-1.5874,-1.6151,-1.6389,-1.6729,-1.7022,-1.7245,-1.7368,-1.749,-1.759,-1.7645,-1.7711,-1.7711,-1.7711,-1.7655,-1.7386,-1.7297,-1.7241,-1.7164,-1.6967,-1.6763,-1.6763,-1.6945,-1.7183,-1.7455,-1.7308,-1.7194,-1.7466,-1.7179,-1.6779,-1.6276,-1.6097,-1.5811,-1.537,-1.539,-1.5537,-1.5603,-1.5792,-1.5969,-1.6032,-1.6088,-1.6132,-1.6132,-1.6132,-1.6175,-1.6318,-1.6448,-1.6534,-1.6637,-1.6765,-1.6808,-1.6808,-1.7308,-1.7569,-1.7638,-1.7666,-1.7652,-1.757,-1.7529,-1.7516,-1.7516,-1.7516,-1.7516,-1.7516,-1.7516,-1.7516,-1.7516,-1.7516,-1.7516,-1.7475,-1.7461,-1.7461,-1.7419,-1.7282,-1.724,-1.724,-1.4427,-1.4487,-1.4632,-1.4906,-1.4478,-1.4196,-1.4504,-1.3956,-1.3511,-1.3511,-1.3511,-1.3511,-1.3511,-1.3511,-1.3511,-1.3511,-1.3511,-1.3511,-1.3511,-1.3821,-1.407,-1.407,-1.4359,-1.4715,-1.5118,-1.5274,-1.5449,-1.5584,-1.5584,-1.5517,-1.5323,-1.5225,-1.5061,-1.4858,-1.4683,-1.452,-1.4436,-1.4436,-1.4482,-1.4566,-1.4625,-1.4915,-1.542,-1.57,-1.6046,-1.6436,-1.6658,-1.6794,-1.6926,-1.7026,-1.7137,-1.7269,-1.7335,-1.7291,-1.7181,-1.6848,-1.6738,-1.6749,-1.702,-1.6759,-1.6401,-1.6401,-1.6351,-1.6362,-1.6755,-1.6542,-1.6373,-1.6766,-1.644,-1.6029,-1.5765,-1.5595,-1.5427,-1.5177,-1.521,-1.53,-1.5379,-1.5525,-1.5626,-1.5659,-1.5703,-1.5748,-1.5748,-1.5748,-1.5792,-1.5913,-1.6013,-1.6088,-1.6194,-1.6293,-1.6349,-1.6349,-1.696,-1.7267,-1.7308,-1.7365,-1.7393,-1.7393,-1.7352,-1.7352,-1.7352,-1.7352,-1.7352,-1.7352,-1.7352,-1.7352,-1.7352,-1.7352,-1.7352,-1.7365,-1.7308,-1.7267,-1.728,-1.7015,-1.6918,-1.6918,-1.3665,-1.3887,-1.4153,-1.4179,-1.4136,-1.411,-1.4136,-1.3785,-1.3511,-1.3511,-1.3511,-1.3511,-1.3511,-1.3511,-1.3511,-1.3511,-1.3511,-1.3511,-1.3511,-1.3511,-1.3571,-1.3571,-1.3881,-1.413,-1.4309,-1.4478,-1.4588,-1.4588,-1.4588,-1.4588,-1.4588,-1.4588,-1.4277,-1.3805,-1.3805,-1.3492,-1.3048,-1.3048,-1.3244,-1.3509,-1.369,-1.4197,-1.4824,-1.5294,-1.5642,-1.5928,-1.5846,-1.581,-1.58,-1.58,-1.5865,-1.5938,-1.6275,-1.6165,-1.5855,-1.5932,-1.6094,-1.6364,-1.7357,-1.7286,-1.6969,-1.6969,-1.6609,-1.6322,-1.6367,-1.6345,-1.6334,-1.6367,-1.5924,-1.5575,-1.5697,-1.5289,-1.5006,-1.5062,-1.5108,-1.5108,-1.5108,-1.5255,-1.5312,-1.5357,-1.5435,-1.5513,-1.5513,-1.5513,-1.557,-1.5703,-1.5715,-1.576,-1.5836,-1.5836,-1.5836,-1.5836,-1.6577,-1.6947,-1.7047,-1.7031,-1.7044,-1.7044,-1.696,-1.6918,-1.6918,-1.6918,-1.6918,-1.6918,-1.6918,-1.6918,-1.6918,-1.6918,-1.6918,-1.6918,-1.6931,-1.6931,-1.6931,-1.6761,-1.6718,-1.6718,-1.3536,-1.3631,-1.381,-1.405,-1.3896,-1.381,-1.4059,-1.3759,-1.3511,-1.3511,-1.3511,-1.3511,-1.3511,-1.3511,-1.3511,-1.3511,-1.3511,-1.3511,-1.3511,-1.3511,-1.3511,-1.3511,-1.3631,-1.3761,-1.395,-1.4001,-1.4121,-1.4181,-1.4181,-1.3996,-1.3705,-1.3705,-1.3385,-1.2884,-1.2884,-1.2805,-1.2619,-1.2619,-1.2642,-1.2789,-1.3156,-1.3513,-1.3947,-1.4436,-1.4781,-1.4924,-1.5103,-1.5029,-1.4905,-1.5032,-1.5085,-1.5116,-1.5246,-1.5273,-1.5225,-1.5341,-1.5196,-1.5133,-1.5913,-1.6061,-1.5959,-1.5655,-1.5219,-1.4958,-1.5241,-1.5088,-1.4969,-1.5351,-1.5022,-1.4741,-1.4987,-1.4935,-1.4891,-1.496,-1.5062,-1.5108,-1.5108,-1.5153,-1.5165,-1.5165,-1.5198,-1.5244,-1.5244,-1.5244,-1.5289,-1.5334,-1.539,-1.5435,-1.5492,-1.557,-1.5603,-1.5603,-1.5969,-1.6219,-1.6367,-1.6497,-1.6582,-1.6582,-1.6595,-1.665,-1.665,-1.665,-1.665,-1.665,-1.665,-1.665,-1.665,-1.665,-1.665,-1.665,-1.665,-1.6595,-1.6509,-1.6405,-1.6318,-1.6262,-1.3511,-1.3511,-1.3596,-1.3862,-1.3691,-1.3596,-1.387,-1.3682,-1.3511,-1.3511,-1.3511,-1.3511,-1.3511,-1.3511,-1.3511,-1.3511,-1.3511,-1.3511,-1.3511,-1.3511,-1.3511,-1.3511,-1.3511,-1.3571,-1.37,-1.37,-1.3761,-1.3821,-1.3821,-1.3569,-1.3154,-1.3154,-1.2819,-1.2218,-1.2218,-1.2149,-1.2038,-1.2038,-1.2107,-1.2244,-1.2518,-1.285,-1.3199,-1.3656,-1.3871,-1.3932,-1.4096,-1.4019,-1.3873,-1.4041,-1.4041,-1.4123,-1.4271,-1.4307,-1.4314,-1.4286,-1.4185,-1.4094,-1.4369,-1.4604,-1.483,-1.4676,-1.4312,-1.4095,-1.4403,-1.4233,-1.4105,-1.451,-1.4413,-1.428,-1.4477,-1.4638,-1.4765,-1.4834,-1.4926,-1.5028,-1.5028,-1.5028,-1.5028,-1.5028,-1.5028,-1.5028,-1.5028,-1.5028,-1.5028,-1.5051,-1.5108,-1.521,-1.521,-1.5334,-1.5379,-1.5379,-1.548,-1.557,-1.5724,-1.5988,-1.6151,-1.6151,-1.625,-1.6262,-1.6262,-1.6262,-1.6262,-1.6262,-1.6262,-1.6262,-1.6262,-1.6262,-1.6262,-1.6262,-1.6262,-1.6207,-1.6107,-1.6057,-1.5969,-1.5913,-1.3511,-1.3511,-1.3511,-1.3511,-1.3511,-1.3511,-1.3511,-1.3511,-1.3511,-1.3511,-1.3511,-1.3511,-1.3511,-1.3511,-1.3511,-1.3511,-1.3511,-1.3511,-1.3511,-1.3511,-1.3511,-1.3511,-1.3511,-1.3511,-1.3511,-1.3502,-1.3502,-1.3502,-1.3502,-1.3314,-1.2971,-1.2971,-1.256,-1.1788,-1.1788,-1.1627,-1.1326,-1.1326,-1.149,-1.1788,-1.1788,-1.2118,-1.261,-1.2848,-1.2967,-1.3068,-1.281,-1.2715,-1.2715,-1.2715,-1.2715,-1.2779,-1.3247,-1.3259,-1.3001,-1.2594,-1.2974,-1.3408,-1.2988,-1.3263,-1.3831,-1.4354,-1.4264,-1.3973,-1.3973,-1.3973,-1.3973,-1.402,-1.4093,-1.4222,-1.4373,-1.4477,-1.4627,-1.4776,-1.4776,-1.4787,-1.4787,-1.4787,-1.4787,-1.4787,-1.4787,-1.4787,-1.4787,-1.4787,-1.4811,-1.4903,-1.4903,-1.4949,-1.5108,-1.5108,-1.5108,-1.5108,-1.5108,-1.5108,-1.5108,-1.5558,-1.5792,-1.5792,-1.5792,-1.5792,-1.5792,-1.5792,-1.5792,-1.5792,-1.5792,-1.5792,-1.5792,-1.5792,-1.5792,-1.5792,-1.5792,-1.5792,-1.5792,-1.5715,-1.5715,-1.5671,-1.3511,-1.3511,-1.3511,-1.3511,-1.3511,-1.3511,-1.3511,-1.3511,-1.3511,-1.3511,-1.3511,-1.3511,-1.3511,-1.3511,-1.3511,-1.3511,-1.3511,-1.3511,-1.3511,-1.3511,-1.3511,-1.3511,-1.3511,-1.3511,-1.3511,-1.3262,-1.3134,-1.3134,-1.286,-1.2535,-1.2184,-1.2184,-1.1918,-1.1447,-1.1447,-1.1379,-1.1326,-1.1326,-1.1336,-1.1464,-1.173,-1.191,-1.2083,-1.2405,-1.2453,-1.2316,-1.2246,-1.2129,-1.1998,-1.1998,-1.1998,-1.2016,-1.2286,-1.23,-1.2232,-1.2212,-1.2367,-1.2482,-1.236,-1.2506,-1.2849,-1.3352,-1.3435,-1.342,-1.342,-1.342,-1.3467,-1.3563,-1.3705,-1.38,-1.3847,-1.401,-1.4208,-1.4208,-1.4337,-1.4419,-1.4523,-1.4523,-1.4523,-1.4523,-1.4523,-1.4523,-1.4523,-1.4523,-1.4523,-1.4558,-1.4558,-1.4558,-1.4605,-1.4605,-1.4605,-1.4605,-1.4708,-1.4754,-1.4754,-1.521,-1.5447,-1.5447,-1.5525,-1.5525,-1.5447,-1.5447,-1.539,-1.5289,-1.5289,-1.5289,-1.5289,-1.5289,-1.5289,-1.5289,-1.5289,-1.5244,-1.5187,-1.5142,-1.5119,-1.5051,-1.3511,-1.3511,-1.3554,-1.3716,-1.3613,-1.3562,-1.3716,-1.3605,-1.3511,-1.3511,-1.3459,-1.3407,-1.3407,-1.3338,-1.3338,-1.3398,-1.345,-1.3511,-1.3511,-1.3511,-1.3511,-1.3511,-1.3511,-1.3511,-1.3511,-1.316,-1.298,-1.298,-1.2586,-1.2278,-1.2055,-1.1856,-1.1669,-1.149,-1.1336,-1.1326,-1.1326,-1.1326,-1.1326,-1.1344,-1.1524,-1.1619,-1.1636,-1.1867,-1.186,-1.1714,-1.1714,-1.1618,-1.1528,-1.1528,-1.1528,-1.1578,-1.1628,-1.1728,-1.1778,-1.1828,-1.1877,-1.1927,-1.1927,-1.2026,-1.2224,-1.2471,-1.2803,-1.3035,-1.3084,-1.3094,-1.3094,-1.319,-1.3427,-1.3587,-1.3587,-1.3887,-1.4169,-1.4169,-1.4307,-1.4405,-1.4514,-1.4392,-1.4275,-1.4275,-1.4058,-1.3941,-1.3941,-1.3941,-1.4015,-1.4244,-1.4313,-1.4313,-1.4313,-1.4189,-1.4093,-1.414,-1.4244,-1.4291,-1.4373,-1.4651,-1.488,-1.5085,-1.5119,-1.5119,-1.504,-1.4994,-1.488,-1.4731,-1.4731,-1.4731,-1.4686,-1.4686,-1.4686,-1.4731,-1.4731,-1.4731,-1.4686,-1.4686,-1.4697,-1.4627,-1.3441,-1.3466,-1.3602,-1.3958,-1.3695,-1.3559,-1.3979,-1.3697,-1.339,-1.339,-1.3285,-1.3241,-1.3241,-1.305,-1.305,-1.3241,-1.3407,-1.3511,-1.3511,-1.3511,-1.3511,-1.3511,-1.3476,-1.3459,-1.3459,-1.3143,-1.298,-1.298,-1.2586,-1.2389,-1.2381,-1.2047,-1.1839,-1.1822,-1.149,-1.1327,-1.1319,-1.1285,-1.1326,-1.1326,-1.1326,-1.1326,-1.1326,-1.1326,-1.1326,-1.1326,-1.1326,-1.1326,-1.1326,-1.1326,-1.1326,-1.1326,-1.1326,-1.1377,-1.1477,-1.1477,-1.1578,-1.1678,-1.1678,-1.1805,-1.1872,-1.1931,-1.2308,-1.2733,-1.2851,-1.2881,-1.29,-1.2939,-1.3291,-1.3596,-1.3545,-1.3972,-1.4334,-1.4334,-1.446,-1.4576,-1.4576,-1.4265,-1.4053,-1.4053,-1.359,-1.3242,-1.3242,-1.3242,-1.3451,-1.3952,-1.4084,-1.4124,-1.4083,-1.3754,-1.3614,-1.3678,-1.3668,-1.3752,-1.3873,-1.3873,-1.4176,-1.473,-1.4581,-1.4534,-1.4534,-1.4384,-1.4233,-1.4129,-1.4129,-1.4025,-1.392,-1.392,-1.3978,-1.4129,-1.4129,-1.4186,-1.428,-1.428,-1.428,-1.428,-1.3084,-1.3308,-1.3525,-1.3605,-1.3324,-1.3108,-1.3252,-1.2962,-1.2728,-1.2728,-1.2674,-1.2674,-1.2674,-1.2613,-1.2674,-1.2867,-1.3172,-1.3407,-1.3511,-1.3511,-1.3511,-1.3511,-1.3127,-1.2974,-1.2974,-1.2956,-1.298,-1.298,-1.2586,-1.2389,-1.2389,-1.2312,-1.2269,-1.2252,-1.1884,-1.1669,-1.1643,-1.1404,-1.1326,-1.1326,-1.1326,-1.1326,-1.1326,-1.1326,-1.1326,-1.1326,-1.1326,-1.1326,-1.1326,-1.1326,-1.1326,-1.1326,-1.1326,-1.1326,-1.1326,-1.1326,-1.1377,-1.1377,-1.1377,-1.1593,-1.1878,-1.1931,-1.2308,-1.2609,-1.2678,-1.2656,-1.2748,-1.3062,-1.3299,-1.3408,-1.3301,-1.3483,-1.3594,-1.3594,-1.3657,-1.3711,-1.3819,-1.3742,-1.3729,-1.3729,-1.3599,-1.3489,-1.3489,-1.3489,-1.358,-1.3666,-1.3729,-1.3576,-1.3282,-1.3186,-1.3043,-1.2774,-1.2832,-1.2909,-1.3054,-1.316,-1.3542,-1.4176,-1.4129,-1.4035,-1.381,-1.381,-1.3658,-1.3409,-1.3409,-1.3409,-1.3351,-1.3351,-1.3399,-1.3409,-1.3409,-1.3457,-1.3457,-1.3457,-1.3457,-1.3457,-1.2755,-1.3026,-1.3192,-1.3251,-1.2972,-1.2747,-1.2804,-1.2515,-1.2236,-1.2236,-1.2236,-1.2174,-1.2174,-1.2112,-1.2182,-1.2428,-1.2744,-1.2981,-1.3025,-1.3025,-1.3025,-1.3025,-1.2792,-1.2642,-1.2582,-1.2642,-1.2588,-1.2404,-1.1925,-1.1861,-1.22,-1.2026,-1.2043,-1.2297,-1.1947,-1.1835,-1.1973,-1.1599,-1.149,-1.1524,-1.1345,-1.1326,-1.1326,-1.1326,-1.1326,-1.1326,-1.1326,-1.1326,-1.1326,-1.1326,-1.1326,-1.1326,-1.1326,-1.1326,-1.1326,-1.1326,-1.1326,-1.131,-1.1499,-1.1687,-1.1884,-1.2109,-1.2353,-1.2558,-1.269,-1.2699,-1.2753,-1.2959,-1.3212,-1.3403,-1.3291,-1.3501,-1.3684,-1.3684,-1.3741,-1.3798,-1.3855,-1.3737,-1.3608,-1.3608,-1.3387,-1.3214,-1.3214,-1.3396,-1.3515,-1.3515,-1.3515,-1.3424,-1.3204,-1.2821,-1.2571,-1.248,-1.2503,-1.2594,-1.2695,-1.2935,-1.3285,-1.364,-1.3506,-1.3415,-1.3382,-1.3183,-1.2949,-1.2745,-1.2745,-1.2745,-1.2696,-1.2696,-1.2696,-1.2745,-1.2745,-1.2793,-1.2852,-1.2852,-1.2852,-1.289,-1.2312,-1.255,-1.2787,-1.2788,-1.252,-1.229,-1.2352,-1.2004,-1.174,-1.174,-1.1677,-1.1622,-1.1622,-1.156,-1.1622,-1.1934,-1.2243,-1.2359,-1.2421,-1.2421,-1.2421,-1.2421,-1.2366,-1.2212,-1.2089,-1.1974,-1.184,-1.1776,-1.1328,-1.1373,-1.198,-1.1639,-1.1721,-1.215,-1.1872,-1.1825,-1.2066,-1.1709,-1.1581,-1.1604,-1.1336,-1.1175,-1.1175,-1.1175,-1.1175,-1.1175,-1.1175,-1.1175,-1.1175,-1.1175,-1.1175,-1.1226,-1.1226,-1.1226,-1.1276,-1.1276,-1.1319,-1.1439,-1.1703,-1.1882,-1.2107,-1.2415,-1.2535,-1.2634,-1.2858,-1.287,-1.2844,-1.2905,-1.3186,-1.3415,-1.3415,-1.367,-1.3881,-1.3881,-1.401,-1.407,-1.407,-1.3776,-1.3562,-1.3562,-1.3164,-1.2923,-1.2923,-1.3222,-1.3415,-1.3415,-1.3415,-1.3389,-1.3327,-1.2712,-1.2378,-1.2422,-1.2413,-1.2466,-1.2624,-1.295,-1.3141,-1.3204,-1.2908,-1.2931,-1.3162,-1.2714,-1.2435,-1.2277,-1.2203,-1.2126,-1.2026,-1.2026,-1.2076,-1.2175,-1.2175,-1.2283,-1.2382,-1.2382,-1.2382,-1.2421,-1.1567,-1.2016,-1.2315,-1.2063,-1.1771,-1.1485,-1.1227,-1.0999,-1.0807,-1.0807,-1.0751,-1.0744,-1.0744,-1.0996,-1.1247,-1.1373,-1.1677,-1.1926,-1.205,-1.205,-1.205,-1.205,-1.1707,-1.1368,-1.1188,-1.0616,-1.082,-1.1966,-1.1867,-1.189,-1.1981,-1.1936,-1.1936,-1.2028,-1.1802,-1.1705,-1.1741,-1.1518,-1.1265,-1.1032,-1.0985,-1.0837,-1.0624,-1.0624,-1.0624,-1.0624,-1.0624,-1.0624,-1.0624,-1.0624,-1.0675,-1.0769,-1.0769,-1.0922,-1.1124,-1.1124,-1.1404,-1.172,-1.1771,-1.2321,-1.2834,-1.2886,-1.3134,-1.3357,-1.3416,-1.3175,-1.3046,-1.3356,-1.3459,-1.3494,-1.3494,-1.3537,-1.3571,-1.3571,-1.3571,-1.3571,-1.3571,-1.3528,-1.3494,-1.3494,-1.3451,-1.3416,-1.3416,-1.3468,-1.3494,-1.3494,-1.3494,-1.3365,-1.3055,-1.2943,-1.2728,-1.2439,-1.2422,-1.2477,-1.2587,-1.2639,-1.284,-1.3182,-1.2829,-1.2752,-1.3014,-1.2624,-1.2339,-1.2218,-1.1921,-1.1769,-1.1769,-1.1769,-1.1778,-1.1778,-1.1778,-1.1769,-1.1828,-1.1828,-1.1877,-1.1977,-1.0811,-1.1253,-1.15,-1.107,-1.0893,-1.0659,-1.0223,-1.0053,-0.9977,-0.9977,-0.9977,-0.9977,-0.9977,-1.0225,-1.0415,-1.0471,-1.0661,-1.0843,-1.0905,-1.0905,-1.0905,-1.0905,-1.065,-1.052,-1.0334,-1.003,-1.0144,-1.0591,-1.0808,-1.1008,-1.1247,-1.1247,-1.124,-1.1358,-1.1338,-1.1456,-1.1555,-1.1345,-1.1184,-1.0917,-1.0732,-1.0508,-1.0241,-1.0241,-1.0241,-1.0241,-1.0241,-1.0241,-1.0241,-1.0241,-1.0241,-1.0344,-1.0403,-1.0506,-1.0648,-1.1066,-1.1292,-1.156,-1.2078,-1.2429,-1.2789,-1.294,-1.3107,-1.3216,-1.3216,-1.3099,-1.3092,-1.3416,-1.3511,-1.3511,-1.3511,-1.3511,-1.3511,-1.3511,-1.3511,-1.3511,-1.3511,-1.3511,-1.3511,-1.3511,-1.3511,-1.3511,-1.3511,-1.3511,-1.3511,-1.3511,-1.3511,-1.3442,-1.328,-1.3083,-1.2903,-1.2723,-1.2723,-1.278,-1.2837,-1.3027,-1.3217,-1.339,-1.3217,-1.3084,-1.2989,-1.2595,-1.2253,-1.1991,-1.1818,-1.1678,-1.1477,-1.1477,-1.1477,-1.1477,-1.1477,-1.1477,-1.1477,-1.1477,-1.1519,-1.1578]}]]